Time,TemperatureF,DewpointF,PressureIn,WindDirection,WindDirectionDegrees,WindSpeedMPH,WindSpeedGustMPH,Humidity,HourlyPrecipIn,Conditions,Clouds,dailyrainin,SoftwareType,DateUTC
2013-01-30 00:00:00,22.1,14.8,28.58,NNW,338,0.0,0.0,73,0.00,,---,0.00,VWS V14.01,2013-01-30 06:00:00,
2013-01-30 00:01:00,22.1,14.8,28.58,NNW,338,0.0,0.0,73,0.00,,---,0.00,VWS V14.01,2013-01-30 06:01:00,
2013-01-30 00:02:00,22.1,14.8,28.61,NNW,338,0.0,0.0,73,0.00,,---,0.00,VWS V14.01,2013-01-30 06:02:00,
2013-01-30 00:03:00,22.1,14.8,28.61,NNW,338,0.0,0.0,73,0.00,,---,0.00,VWS V14.01,2013-01-30 06:03:00,
2013-01-30 00:04:00,22.1,14.8,28.61,NNW,338,0.0,0.0,73,0.00,,---,0.00,VWS V14.01,2013-01-30 06:04:00,
2013-01-30 00:05:00,22.1,14.8,28.61,NNW,338,0.0,0.0,73,0.00,,---,0.00,VWS V14.01,2013-01-30 06:05:00,
2013-01-30 00:06:00,22.1,14.8,28.61,NNW,338,0.0,0.0,73,0.00,,---,0.00,VWS V14.01,2013-01-30 06:06:00,
2013-01-30 00:07:00,22.1,14.8,28.61,NNW,338,0.0,0.0,73,0.00,,---,0.00,VWS V14.01,2013-01-30 06:07:00,
2013-01-30 00:08:00,22.1,14.5,28.61,NNW,338,0.0,0.0,72,0.00,,---,0.00,VWS V14.01,2013-01-30 06:08:00,
2013-01-30 00:09:00,22.1,14.5,28.61,NNW,338,0.0,0.0,72,0.00,,---,0.00,VWS V14.01,2013-01-30 06:09:00,
2013-01-30 00:10:00,22.1,14.5,28.61,NNW,338,0.0,0.0,72,0.00,,---,0.00,VWS V14.01,2013-01-30 06:10:00,
2013-01-30 00:11:00,22.1,14.5,28.61,NNE,22,0.0,0.0,72,0.00,,---,0.00,VWS V14.01,2013-01-30 06:11:00,
2013-01-30 00:12:00,22.1,14.5,28.61,NNW,338,0.0,0.0,72,0.00,,---,0.00,VWS V14.01,2013-01-30 06:12:00,
2013-01-30 00:13:00,22.1,14.5,28.61,NNW,338,0.0,0.0,72,0.00,,---,0.00,VWS V14.01,2013-01-30 06:13:00,
2013-01-30 00:14:00,22.1,14.5,28.61,NNW,338,0.0,0.0,72,0.00,,---,0.00,VWS V14.01,2013-01-30 06:14:00,
2013-01-30 00:15:00,22.1,14.5,28.61,NNW,338,0.0,0.0,72,0.00,,---,0.00,VWS V14.01,2013-01-30 06:15:00,
2013-01-30 00:16:00,22.1,14.5,28.61,NW,315,0.0,0.0,72,0.00,,---,0.00,VWS V14.01,2013-01-30 06:16:00,
2013-01-30 00:17:00,22.1,14.5,28.58,NNW,338,0.0,0.0,72,0.00,,---,0.00,VWS V14.01,2013-01-30 06:17:00,
2013-01-30 00:18:00,21.9,14.3,28.58,NNW,338,0.0,0.0,72,0.00,,---,0.00,VWS V14.01,2013-01-30 06:18:00,
2013-01-30 00:19:00,21.9,14.3,28.58,North,0,0.0,0.0,72,0.00,,---,0.00,VWS V14.01,2013-01-30 06:19:00,
2013-01-30 00:20:00,21.9,14.3,28.58,NNW,338,0.0,0.0,72,0.00,,---,0.00,VWS V14.01,2013-01-30 06:20:00,
2013-01-30 00:21:00,21.9,14.3,28.58,NNW,338,0.0,0.0,72,0.00,,---,0.00,VWS V14.01,2013-01-30 06:21:00,
2013-01-30 00:22:00,21.9,14.3,28.58,NNW,338,0.0,0.0,72,0.00,,---,0.00,VWS V14.01,2013-01-30 06:22:00,
2013-01-30 00:23:00,21.9,14.3,28.58,NNW,338,0.0,0.0,72,0.00,,---,0.00,VWS V14.01,2013-01-30 06:23:00,
2013-01-30 00:24:00,21.9,14.3,28.58,NNW,338,0.0,0.0,72,0.00,,---,0.00,VWS V14.01,2013-01-30 06:24:00,
2013-01-30 00:25:00,21.9,14.3,28.58,NNW,338,0.0,0.0,72,0.00,,---,0.00,VWS V14.01,2013-01-30 06:25:00,
2013-01-30 00:26:00,21.9,14.3,28.58,NNW,338,0.0,0.0,72,0.00,,---,0.00,VWS V14.01,2013-01-30 06:26:00,
2013-01-30 00:27:00,21.9,14.3,28.58,NNW,338,0.0,0.0,72,0.00,,---,0.00,VWS V14.01,2013-01-30 06:27:00,
2013-01-30 00:28:00,21.9,14.0,28.58,NNW,338,0.0,0.0,71,0.00,,---,0.00,VWS V14.01,2013-01-30 06:28:00,
2013-01-30 00:29:00,21.9,13.6,28.58,NNW,338,0.0,0.0,70,0.00,,---,0.00,VWS V14.01,2013-01-30 06:29:00,
2013-01-30 00:30:00,21.9,14.0,28.58,NNW,338,0.0,0.0,71,0.00,,---,0.00,VWS V14.01,2013-01-30 06:30:00,
2013-01-30 00:31:00,21.9,14.0,28.58,NNW,338,0.0,0.0,71,0.00,,---,0.00,VWS V14.01,2013-01-30 06:31:00,
2013-01-30 00:32:00,21.9,14.0,28.52,NNW,338,0.0,0.0,71,0.00,,---,0.00,VWS V14.01,2013-01-30 06:32:00,
2013-01-30 00:33:00,21.9,14.0,28.52,NNW,338,0.0,0.0,71,0.00,,---,0.00,VWS V14.01,2013-01-30 06:33:00,
2013-01-30 00:34:00,21.9,14.0,28.52,North,0,0.0,0.0,71,0.00,,---,0.00,VWS V14.01,2013-01-30 06:34:00,
2013-01-30 00:35:00,21.7,13.5,28.52,NNW,338,0.0,0.0,70,0.00,,---,0.00,VWS V14.01,2013-01-30 06:35:00,
2013-01-30 00:36:00,21.9,13.6,28.52,North,0,0.0,0.0,70,0.00,,---,0.00,VWS V14.01,2013-01-30 06:36:00,
2013-01-30 00:37:00,21.9,13.6,28.52,North,0,0.0,0.0,70,0.00,,---,0.00,VWS V14.01,2013-01-30 06:37:00,
2013-01-30 00:38:00,21.7,13.5,28.52,NNW,338,0.0,0.0,70,0.00,,---,0.00,VWS V14.01,2013-01-30 06:38:00,
2013-01-30 00:39:00,21.7,13.5,28.52,NNW,338,0.0,0.0,70,0.00,,---,0.00,VWS V14.01,2013-01-30 06:39:00,
2013-01-30 00:40:00,21.7,13.5,28.52,NNW,338,0.0,0.0,70,0.00,,---,0.00,VWS V14.01,2013-01-30 06:40:00,
2013-01-30 00:41:00,21.7,13.8,28.52,North,0,0.0,0.0,71,0.00,,---,0.00,VWS V14.01,2013-01-30 06:41:00,
2013-01-30 00:42:00,21.7,13.5,28.52,NNW,338,0.0,0.0,70,0.00,,---,0.00,VWS V14.01,2013-01-30 06:42:00,
2013-01-30 00:43:00,21.7,13.5,28.52,NNW,338,0.0,0.0,70,0.00,,---,0.00,VWS V14.01,2013-01-30 06:43:00,
2013-01-30 00:44:00,21.7,13.5,28.52,NNW,338,0.0,0.0,70,0.00,,---,0.00,VWS V14.01,2013-01-30 06:44:00,
2013-01-30 00:45:00,21.7,13.5,28.52,NNW,338,0.0,0.0,70,0.00,,---,0.00,VWS V14.01,2013-01-30 06:45:00,
2013-01-30 00:46:00,21.7,13.5,28.52,NNW,338,0.0,0.0,70,0.00,,---,0.00,VWS V14.01,2013-01-30 06:46:00,
2013-01-30 00:47:00,21.7,13.5,28.55,NNW,338,0.0,0.0,70,0.00,,---,0.00,VWS V14.01,2013-01-30 06:47:00,
2013-01-30 00:48:00,21.7,13.1,28.55,NNE,22,0.0,0.0,69,0.00,,---,0.00,VWS V14.01,2013-01-30 06:48:00,
2013-01-30 00:49:00,21.7,13.1,28.55,NNE,22,0.0,0.0,69,0.00,,---,0.00,VWS V14.01,2013-01-30 06:49:00,
2013-01-30 00:50:00,21.6,13.3,28.55,WNW,292,0.0,0.0,70,0.00,,---,0.00,VWS V14.01,2013-01-30 06:50:00,
2013-01-30 00:51:00,21.6,13.3,28.55,NNW,338,0.0,0.0,70,0.00,,---,0.00,VWS V14.01,2013-01-30 06:51:00,
2013-01-30 00:52:00,21.6,13.3,28.55,NNW,338,0.0,0.0,70,0.00,,---,0.00,VWS V14.01,2013-01-30 06:52:00,
2013-01-30 00:53:00,21.6,13.3,28.55,NNW,338,0.0,0.0,70,0.00,,---,0.00,VWS V14.01,2013-01-30 06:53:00,
2013-01-30 00:54:00,21.6,13.3,28.55,WNW,292,0.0,0.0,70,0.00,,---,0.00,VWS V14.01,2013-01-30 06:54:00,
2013-01-30 00:55:00,21.4,13.1,28.55,WNW,292,0.0,0.0,70,0.00,,---,0.00,VWS V14.01,2013-01-30 06:55:00,
2013-01-30 00:57:00,21.4,13.8,28.55,NW,315,0.0,0.0,72,0.00,,---,0.00,VWS V14.01,2013-01-30 06:57:00,
2013-01-30 00:58:00,21.2,13.6,28.55,NW,315,0.0,0.0,72,0.00,,---,0.00,VWS V14.01,2013-01-30 06:58:00,
2013-01-30 00:59:00,21.2,13.6,28.55,NNW,338,0.0,0.0,72,0.00,,---,0.00,VWS V14.01,2013-01-30 06:59:00,
2013-01-30 01:00:00,21.2,13.6,28.55,NNW,338,0.0,0.0,72,0.00,,---,0.00,VWS V14.01,2013-01-30 07:00:00,
2013-01-30 01:01:00,21.2,13.6,28.55,NNW,338,0.0,0.0,72,0.00,,---,0.00,VWS V14.01,2013-01-30 07:01:00,
2013-01-30 01:02:00,21.2,13.6,28.55,NNW,338,0.0,0.0,72,0.00,,---,0.00,VWS V14.01,2013-01-30 07:02:00,
2013-01-30 01:03:00,21.2,13.6,28.55,NNW,338,0.0,0.0,72,0.00,,---,0.00,VWS V14.01,2013-01-30 07:03:00,
2013-01-30 01:04:00,21.2,13.6,28.55,NNW,338,0.0,0.0,72,0.00,,---,0.00,VWS V14.01,2013-01-30 07:04:00,
2013-01-30 01:05:00,21.2,13.6,28.55,NNW,338,0.0,0.0,72,0.00,,---,0.00,VWS V14.01,2013-01-30 07:05:00,
2013-01-30 01:06:00,21.2,13.6,28.55,NNW,338,0.0,0.0,72,0.00,,---,0.00,VWS V14.01,2013-01-30 07:06:00,
2013-01-30 01:07:00,21.2,13.6,28.55,NNW,338,0.0,0.0,72,0.00,,---,0.00,VWS V14.01,2013-01-30 07:07:00,
2013-01-30 01:08:00,21.2,13.6,28.55,NNW,338,0.0,0.0,72,0.00,,---,0.00,VWS V14.01,2013-01-30 07:08:00,
2013-01-30 01:09:00,21.2,13.6,28.55,NNW,338,0.0,0.0,72,0.00,,---,0.00,VWS V14.01,2013-01-30 07:09:00,
2013-01-30 01:10:00,21.2,13.6,28.55,NNW,338,0.0,0.0,72,0.00,,---,0.00,VWS V14.01,2013-01-30 07:10:00,
2013-01-30 01:11:00,21.2,13.9,28.55,NNW,338,0.0,0.0,73,0.00,,---,0.00,VWS V14.01,2013-01-30 07:11:00,
2013-01-30 01:12:00,21.2,13.9,28.55,NNW,338,0.0,0.0,73,0.00,,---,0.00,VWS V14.01,2013-01-30 07:12:00,
2013-01-30 01:13:00,21.0,13.4,28.55,NNW,338,0.0,0.0,72,0.00,,---,0.00,VWS V14.01,2013-01-30 07:13:00,
2013-01-30 01:14:00,21.0,13.4,28.55,NNW,338,0.0,0.0,72,0.00,,---,0.00,VWS V14.01,2013-01-30 07:14:00,
2013-01-30 01:15:00,21.0,13.4,28.55,NNW,338,0.0,0.0,72,0.00,,---,0.00,VWS V14.01,2013-01-30 07:15:00,
2013-01-30 01:17:00,21.0,13.4,28.55,NNW,338,0.0,0.0,72,0.00,,---,0.00,VWS V14.01,2013-01-30 07:17:00,
2013-01-30 01:18:00,21.0,13.7,28.52,North,0,0.0,0.0,73,0.00,,---,0.00,VWS V14.01,2013-01-30 07:18:00,
2013-01-30 01:19:00,21.0,13.7,28.52,NNW,338,0.0,0.0,73,0.00,,---,0.00,VWS V14.01,2013-01-30 07:19:00,
2013-01-30 01:20:00,21.0,13.7,28.52,NNW,338,0.0,0.0,73,0.00,,---,0.00,VWS V14.01,2013-01-30 07:20:00,
2013-01-30 01:21:00,21.0,13.7,28.52,NNW,338,0.0,0.0,73,0.00,,---,0.00,VWS V14.01,2013-01-30 07:21:00,
2013-01-30 01:22:00,21.0,13.7,28.52,NNW,338,0.0,0.0,73,0.00,,---,0.00,VWS V14.01,2013-01-30 07:22:00,
2013-01-30 01:23:00,20.8,13.6,28.52,NNW,338,0.0,0.0,73,0.00,,---,0.00,VWS V14.01,2013-01-30 07:23:00,
2013-01-30 01:24:00,20.8,13.6,28.52,NNW,338,0.0,0.0,73,0.00,,---,0.00,VWS V14.01,2013-01-30 07:24:00,
2013-01-30 01:25:00,20.8,13.6,28.52,NNW,338,0.0,0.0,73,0.00,,---,0.00,VWS V14.01,2013-01-30 07:25:00,
2013-01-30 01:27:00,20.7,13.4,28.52,NNW,338,0.0,0.0,73,0.00,,---,0.00,VWS V14.01,2013-01-30 07:27:00,
2013-01-30 01:28:00,20.7,13.1,28.52,NNW,338,0.0,0.0,72,0.00,,---,0.00,VWS V14.01,2013-01-30 07:28:00,
2013-01-30 01:29:00,20.7,13.1,28.52,NNW,338,0.0,0.0,72,0.00,,---,0.00,VWS V14.01,2013-01-30 07:29:00,
2013-01-30 01:30:00,20.5,12.9,28.52,NW,315,0.0,0.0,72,0.00,,---,0.00,VWS V14.01,2013-01-30 07:30:00,
2013-01-30 01:31:00,20.5,12.9,28.52,NW,315,0.0,0.0,72,0.00,,---,0.00,VWS V14.01,2013-01-30 07:31:00,
2013-01-30 01:32:00,20.5,12.9,28.55,NNW,338,0.0,0.0,72,0.00,,---,0.00,VWS V14.01,2013-01-30 07:32:00,
2013-01-30 01:33:00,20.3,12.4,28.55,NW,315,0.0,0.0,71,0.00,,---,0.00,VWS V14.01,2013-01-30 07:33:00,
2013-01-30 01:34:00,20.3,12.4,28.55,NNW,338,0.0,0.0,71,0.00,,---,0.00,VWS V14.01,2013-01-30 07:34:00,
2013-01-30 01:35:00,20.3,12.4,28.55,North,0,0.0,0.0,71,0.00,,---,0.00,VWS V14.01,2013-01-30 07:35:00,
2013-01-30 01:36:00,20.3,12.4,28.55,NNW,338,0.0,0.0,71,0.00,,---,0.00,VWS V14.01,2013-01-30 07:36:00,
2013-01-30 01:37:00,20.3,12.4,28.55,NNW,338,0.0,0.0,71,0.00,,---,0.00,VWS V14.01,2013-01-30 07:37:00,
2013-01-30 01:38:00,20.3,12.4,28.55,NNW,338,0.0,0.0,71,0.00,,---,0.00,VWS V14.01,2013-01-30 07:38:00,
2013-01-30 01:39:00,20.3,12.4,28.55,NNW,338,0.0,0.0,71,0.00,,---,0.00,VWS V14.01,2013-01-30 07:39:00,
2013-01-30 01:40:00,20.1,12.6,28.55,NNW,338,0.0,0.0,72,0.00,,---,0.00,VWS V14.01,2013-01-30 07:40:00,
2013-01-30 01:41:00,20.1,12.2,28.55,NNW,338,0.0,0.0,71,0.00,,---,0.00,VWS V14.01,2013-01-30 07:41:00,
2013-01-30 01:42:00,20.1,12.2,28.55,NNW,338,0.0,0.0,71,0.00,,---,0.00,VWS V14.01,2013-01-30 07:42:00,
2013-01-30 01:43:00,20.1,12.2,28.55,NNW,338,0.0,0.0,71,0.00,,---,0.00,VWS V14.01,2013-01-30 07:43:00,
2013-01-30 01:44:00,20.1,12.6,28.55,NNW,338,0.0,0.0,72,0.00,,---,0.00,VWS V14.01,2013-01-30 07:44:00,
2013-01-30 01:45:00,20.1,12.6,28.55,NNW,338,0.0,0.0,72,0.00,,---,0.00,VWS V14.01,2013-01-30 07:45:00,
2013-01-30 01:46:00,20.1,12.6,28.55,NNW,338,0.0,0.0,72,0.00,,---,0.00,VWS V14.01,2013-01-30 07:46:00,
2013-01-30 01:47:00,19.9,12.1,28.55,NNW,338,0.0,0.0,71,0.00,,---,0.00,VWS V14.01,2013-01-30 07:47:00,
2013-01-30 01:48:00,19.9,12.1,28.55,NNW,338,0.0,0.0,71,0.00,,---,0.00,VWS V14.01,2013-01-30 07:48:00,
2013-01-30 01:49:00,19.8,11.6,28.55,NNW,338,0.0,0.0,70,0.00,,---,0.00,VWS V14.01,2013-01-30 07:49:00,
2013-01-30 01:50:00,19.8,11.2,28.55,North,0,0.0,0.0,69,0.00,,---,0.00,VWS V14.01,2013-01-30 07:50:00,
2013-01-30 01:51:00,19.8,11.2,28.55,NW,315,0.0,0.0,69,0.00,,---,0.00,VWS V14.01,2013-01-30 07:51:00,
2013-01-30 01:52:00,19.6,11.1,28.55,NNW,338,0.0,0.0,69,0.00,,---,0.00,VWS V14.01,2013-01-30 07:52:00,
2013-01-30 01:53:00,19.6,11.1,28.55,NNW,338,0.0,0.0,69,0.00,,---,0.00,VWS V14.01,2013-01-30 07:53:00,
2013-01-30 01:54:00,19.6,11.1,28.55,NNW,338,0.0,0.0,69,0.00,,---,0.00,VWS V14.01,2013-01-30 07:54:00,
2013-01-30 01:55:00,19.6,11.4,28.55,NNW,338,0.0,0.0,70,0.00,,---,0.00,VWS V14.01,2013-01-30 07:55:00,
2013-01-30 01:56:00,19.6,11.4,28.55,NNW,338,0.0,0.0,70,0.00,,---,0.00,VWS V14.01,2013-01-30 07:56:00,
2013-01-30 01:57:00,19.4,11.6,28.55,NNW,338,0.0,0.0,71,0.00,,---,0.00,VWS V14.01,2013-01-30 07:57:00,
2013-01-30 01:58:00,19.4,11.6,28.55,NNW,338,0.0,0.0,71,0.00,,---,0.00,VWS V14.01,2013-01-30 07:58:00,
2013-01-30 01:59:00,19.4,11.6,28.55,NNW,338,0.0,0.0,71,0.00,,---,0.00,VWS V14.01,2013-01-30 07:59:00,
2013-01-30 02:00:00,19.4,11.6,28.55,NNE,22,0.0,0.0,71,0.00,,---,0.00,VWS V14.01,2013-01-30 08:00:00,
2013-01-30 02:01:00,19.4,11.9,28.55,NNW,338,0.0,0.0,72,0.00,,---,0.00,VWS V14.01,2013-01-30 08:01:00,
2013-01-30 02:02:00,19.4,11.9,28.55,NNW,338,0.0,0.0,72,0.00,,---,0.00,VWS V14.01,2013-01-30 08:02:00,
2013-01-30 02:03:00,19.4,11.9,28.55,NNW,338,0.0,0.0,72,0.00,,---,0.00,VWS V14.01,2013-01-30 08:03:00,
2013-01-30 02:04:00,19.4,11.9,28.55,NNW,338,0.0,0.0,72,0.00,,---,0.00,VWS V14.01,2013-01-30 08:04:00,
2013-01-30 02:05:00,19.4,11.9,28.55,NNW,338,0.0,0.0,72,0.00,,---,0.00,VWS V14.01,2013-01-30 08:05:00,
2013-01-30 02:06:00,19.4,11.9,28.55,NNW,338,0.0,0.0,72,0.00,,---,0.00,VWS V14.01,2013-01-30 08:06:00,
2013-01-30 02:07:00,19.2,11.7,28.55,NNW,338,0.0,0.0,72,0.00,,---,0.00,VWS V14.01,2013-01-30 08:07:00,
2013-01-30 02:08:00,19.2,11.7,28.55,NNW,338,0.0,0.0,72,0.00,,---,0.00,VWS V14.01,2013-01-30 08:08:00,
2013-01-30 02:09:00,19.0,11.5,28.55,NNW,338,0.0,0.0,72,0.00,,---,0.00,VWS V14.01,2013-01-30 08:09:00,
2013-01-30 02:10:00,19.0,11.5,28.55,NNW,338,0.0,0.0,72,0.00,,---,0.00,VWS V14.01,2013-01-30 08:10:00,
2013-01-30 02:11:00,19.0,11.5,28.55,NNW,338,0.0,0.0,72,0.00,,---,0.00,VWS V14.01,2013-01-30 08:11:00,
2013-01-30 02:12:00,18.9,11.3,28.55,NNW,338,0.0,0.0,72,0.00,,---,0.00,VWS V14.01,2013-01-30 08:12:00,
2013-01-30 02:13:00,18.9,11.3,28.55,NNW,338,0.0,0.0,72,0.00,,---,0.00,VWS V14.01,2013-01-30 08:13:00,
2013-01-30 02:14:00,18.7,11.2,28.55,NNW,338,0.0,0.0,72,0.00,,---,0.00,VWS V14.01,2013-01-30 08:14:00,
2013-01-30 02:15:00,18.7,11.2,28.55,NNW,338,0.0,0.0,72,0.00,,---,0.00,VWS V14.01,2013-01-30 08:15:00,
2013-01-30 02:16:00,18.7,11.2,28.55,NNW,338,0.0,0.0,72,0.00,,---,0.00,VWS V14.01,2013-01-30 08:16:00,
2013-01-30 02:17:00,18.7,11.2,28.55,North,0,0.0,0.0,72,0.00,,---,0.00,VWS V14.01,2013-01-30 08:17:00,
2013-01-30 02:18:00,18.5,11.0,28.52,NNW,338,0.0,0.0,72,0.00,,---,0.00,VWS V14.01,2013-01-30 08:18:00,
2013-01-30 02:19:00,18.5,11.0,28.52,NNW,338,0.0,0.0,72,0.00,,---,0.00,VWS V14.01,2013-01-30 08:19:00,
2013-01-30 02:20:00,18.3,10.8,28.52,NNW,338,0.0,0.0,72,0.00,,---,0.00,VWS V14.01,2013-01-30 08:20:00,
2013-01-30 02:21:00,18.3,10.5,28.52,NNW,338,0.0,0.0,71,0.00,,---,0.00,VWS V14.01,2013-01-30 08:21:00,
2013-01-30 02:22:00,18.3,10.5,28.52,NNW,338,0.0,0.0,71,0.00,,---,0.00,VWS V14.01,2013-01-30 08:22:00,
2013-01-30 02:23:00,18.3,10.8,28.52,NNW,338,0.0,0.0,72,0.00,,---,0.00,VWS V14.01,2013-01-30 08:23:00,
2013-01-30 02:24:00,18.1,10.6,28.52,NNW,338,0.0,0.0,72,0.00,,---,0.00,VWS V14.01,2013-01-30 08:24:00,
2013-01-30 02:25:00,18.1,10.6,28.52,NW,315,0.0,0.0,72,0.00,,---,0.00,VWS V14.01,2013-01-30 08:25:00,
2013-01-30 02:26:00,18.1,10.6,28.52,NNW,338,0.0,0.0,72,0.00,,---,0.00,VWS V14.01,2013-01-30 08:26:00,
2013-01-30 02:27:00,18.1,10.6,28.52,NNW,338,0.0,0.0,72,0.00,,---,0.00,VWS V14.01,2013-01-30 08:27:00,
2013-01-30 02:28:00,18.1,10.6,28.52,NNW,338,0.0,0.0,72,0.00,,---,0.00,VWS V14.01,2013-01-30 08:28:00,
2013-01-30 02:29:00,18.1,10.6,28.52,North,0,0.0,0.0,72,0.00,,---,0.00,VWS V14.01,2013-01-30 08:29:00,
2013-01-30 02:30:00,18.0,10.5,28.52,NNW,338,0.0,0.0,72,0.00,,---,0.00,VWS V14.01,2013-01-30 08:30:00,
2013-01-30 02:31:00,18.0,10.8,28.52,NNW,338,0.0,0.0,73,0.00,,---,0.00,VWS V14.01,2013-01-30 08:31:00,
2013-01-30 02:32:00,18.0,10.8,28.52,NW,315,0.0,0.0,73,0.00,,---,0.00,VWS V14.01,2013-01-30 08:32:00,
2013-01-30 02:33:00,18.0,10.8,28.52,NNW,338,0.0,0.0,73,0.00,,---,0.00,VWS V14.01,2013-01-30 08:33:00,
2013-01-30 02:34:00,17.8,10.3,28.52,NNW,338,0.0,0.0,72,0.00,,---,0.00,VWS V14.01,2013-01-30 08:34:00,
2013-01-30 02:35:00,17.8,10.3,28.52,NNW,338,0.0,0.0,72,0.00,,---,0.00,VWS V14.01,2013-01-30 08:35:00,
2013-01-30 02:36:00,17.6,10.1,28.52,NNW,338,0.0,0.0,72,0.00,,---,0.00,VWS V14.01,2013-01-30 08:36:00,
2013-01-30 02:37:00,17.6,9.8,28.52,NW,315,0.0,0.0,71,0.00,,---,0.00,VWS V14.01,2013-01-30 08:37:00,
2013-01-30 02:38:00,17.6,9.8,28.52,NNW,338,0.0,0.0,71,0.00,,---,0.00,VWS V14.01,2013-01-30 08:38:00,
2013-01-30 02:39:00,17.6,9.8,28.52,NNW,338,0.0,0.0,71,0.00,,---,0.00,VWS V14.01,2013-01-30 08:39:00,
2013-01-30 02:40:00,17.4,9.9,28.52,NNW,338,0.0,0.0,72,0.00,,---,0.00,VWS V14.01,2013-01-30 08:40:00,
2013-01-30 02:41:00,17.4,9.9,28.52,NNW,338,0.0,0.0,72,0.00,,---,0.00,VWS V14.01,2013-01-30 08:41:00,
2013-01-30 02:42:00,17.2,9.8,28.52,NNW,338,0.0,0.0,72,0.00,,---,0.00,VWS V14.01,2013-01-30 08:42:00,
2013-01-30 02:43:00,17.2,9.8,28.52,NNW,338,0.0,0.0,72,0.00,,---,0.00,VWS V14.01,2013-01-30 08:43:00,
2013-01-30 02:44:00,17.2,9.8,28.52,NNW,338,0.0,0.0,72,0.00,,---,0.00,VWS V14.01,2013-01-30 08:44:00,
2013-01-30 02:45:00,17.2,10.1,28.52,NNW,338,0.0,0.0,73,0.00,,---,0.00,VWS V14.01,2013-01-30 08:45:00,
2013-01-30 02:46:00,17.1,9.9,28.52,NNW,338,0.0,0.0,73,0.00,,---,0.00,VWS V14.01,2013-01-30 08:46:00,
2013-01-30 02:48:00,17.1,9.9,28.55,NNW,338,0.0,0.0,73,0.00,,---,0.00,VWS V14.01,2013-01-30 08:48:00,
2013-01-30 02:49:00,16.9,9.4,28.55,NNW,338,0.0,0.0,72,0.00,,---,0.00,VWS V14.01,2013-01-30 08:49:00,
2013-01-30 02:50:00,16.9,9.1,28.55,NNW,338,0.0,0.0,71,0.00,,---,0.00,VWS V14.01,2013-01-30 08:50:00,
2013-01-30 02:51:00,16.9,9.1,28.55,NNW,338,0.0,0.0,71,0.00,,---,0.00,VWS V14.01,2013-01-30 08:51:00,
2013-01-30 02:52:00,16.7,8.9,28.55,NW,315,0.0,0.0,71,0.00,,---,0.00,VWS V14.01,2013-01-30 08:52:00,
2013-01-30 02:53:00,16.7,8.9,28.55,NNW,338,0.0,0.0,71,0.00,,---,0.00,VWS V14.01,2013-01-30 08:53:00,
2013-01-30 02:54:00,16.7,8.9,28.55,NNW,338,0.0,0.0,71,0.00,,---,0.00,VWS V14.01,2013-01-30 08:54:00,
2013-01-30 02:55:00,16.7,8.9,28.55,NW,315,0.0,0.0,71,0.00,,---,0.00,VWS V14.01,2013-01-30 08:55:00,
2013-01-30 02:56:00,16.7,8.9,28.55,NNW,338,0.0,0.0,71,0.00,,---,0.00,VWS V14.01,2013-01-30 08:56:00,
2013-01-30 02:57:00,16.7,8.9,28.55,NNW,338,0.0,0.0,71,0.00,,---,0.00,VWS V14.01,2013-01-30 08:57:00,
2013-01-30 02:58:00,16.5,8.8,28.55,North,0,0.0,0.0,71,0.00,,---,0.00,VWS V14.01,2013-01-30 08:58:00,
2013-01-30 02:59:00,16.5,9.1,28.55,NNW,338,0.0,0.0,72,0.00,,---,0.00,VWS V14.01,2013-01-30 08:59:00,
2013-01-30 03:00:00,16.5,9.1,28.55,North,0,0.0,0.0,72,0.00,,---,0.00,VWS V14.01,2013-01-30 09:00:00,
2013-01-30 03:01:00,16.5,9.1,28.55,NNW,338,0.0,0.0,72,0.00,,---,0.00,VWS V14.01,2013-01-30 09:01:00,
2013-01-30 03:02:00,16.5,9.1,28.55,North,0,0.0,0.0,72,0.00,,---,0.00,VWS V14.01,2013-01-30 09:02:00,
2013-01-30 03:03:00,16.5,9.1,28.55,North,0,0.0,0.0,72,0.00,,---,0.00,VWS V14.01,2013-01-30 09:03:00,
2013-01-30 03:04:00,16.3,8.9,28.55,WNW,292,0.0,0.0,72,0.00,,---,0.00,VWS V14.01,2013-01-30 09:04:00,
2013-01-30 03:05:00,16.3,8.6,28.55,NNW,338,0.0,0.0,71,0.00,,---,0.00,VWS V14.01,2013-01-30 09:05:00,
2013-01-30 03:06:00,16.2,8.4,28.55,NW,315,0.0,0.0,71,0.00,,---,0.00,VWS V14.01,2013-01-30 09:06:00,
2013-01-30 03:07:00,16.2,8.4,28.55,NNW,338,0.0,0.0,71,0.00,,---,0.00,VWS V14.01,2013-01-30 09:07:00,
2013-01-30 03:08:00,16.2,8.4,28.55,NNW,338,0.0,0.0,71,0.00,,---,0.00,VWS V14.01,2013-01-30 09:08:00,
2013-01-30 03:09:00,16.2,8.4,28.55,NNW,338,0.0,0.0,71,0.00,,---,0.00,VWS V14.01,2013-01-30 09:09:00,
2013-01-30 03:10:00,16.2,8.4,28.55,NNW,338,0.0,0.0,71,0.00,,---,0.00,VWS V14.01,2013-01-30 09:10:00,
2013-01-30 03:11:00,16.0,8.2,28.55,NNW,338,0.0,0.0,71,0.00,,---,0.00,VWS V14.01,2013-01-30 09:11:00,
2013-01-30 03:12:00,16.0,8.2,28.55,NNW,338,0.0,0.0,71,0.00,,---,0.00,VWS V14.01,2013-01-30 09:12:00,
2013-01-30 03:13:00,16.0,8.2,28.55,North,0,0.0,0.0,71,0.00,,---,0.00,VWS V14.01,2013-01-30 09:13:00,
2013-01-30 03:14:00,16.0,7.9,28.55,NNW,338,0.0,0.0,70,0.00,,---,0.00,VWS V14.01,2013-01-30 09:14:00,
2013-01-30 03:15:00,16.0,7.9,28.55,NNW,338,0.0,0.0,70,0.00,,---,0.00,VWS V14.01,2013-01-30 09:15:00,
2013-01-30 03:16:00,16.0,7.9,28.55,NNW,338,0.0,0.0,70,0.00,,---,0.00,VWS V14.01,2013-01-30 09:16:00,
2013-01-30 03:17:00,16.0,7.9,28.55,NNW,338,0.0,0.0,70,0.00,,---,0.00,VWS V14.01,2013-01-30 09:17:00,
2013-01-30 03:18:00,16.0,7.9,28.55,NNW,338,0.0,0.0,70,0.00,,---,0.00,VWS V14.01,2013-01-30 09:18:00,
2013-01-30 03:19:00,16.0,8.2,28.55,NNW,338,0.0,0.0,71,0.00,,---,0.00,VWS V14.01,2013-01-30 09:19:00,
2013-01-30 03:20:00,16.0,8.2,28.55,NNW,338,0.0,0.0,71,0.00,,---,0.00,VWS V14.01,2013-01-30 09:20:00,
2013-01-30 03:21:00,16.0,8.2,28.55,NNW,338,0.0,0.0,71,0.00,,---,0.00,VWS V14.01,2013-01-30 09:21:00,
2013-01-30 03:22:00,16.0,8.2,28.55,NNW,338,0.0,0.0,71,0.00,,---,0.00,VWS V14.01,2013-01-30 09:22:00,
2013-01-30 03:23:00,16.0,8.6,28.55,NNW,338,0.0,0.0,72,0.00,,---,0.00,VWS V14.01,2013-01-30 09:23:00,
2013-01-30 03:24:00,16.0,8.6,28.55,NNW,338,0.0,0.0,72,0.00,,---,0.00,VWS V14.01,2013-01-30 09:24:00,
2013-01-30 03:25:00,16.0,8.6,28.55,NNW,338,0.0,0.0,72,0.00,,---,0.00,VWS V14.01,2013-01-30 09:25:00,
2013-01-30 03:26:00,15.8,8.1,28.55,NNW,338,0.0,0.0,71,0.00,,---,0.00,VWS V14.01,2013-01-30 09:26:00,
2013-01-30 03:27:00,15.8,8.1,28.55,NNW,338,0.0,0.0,71,0.00,,---,0.00,VWS V14.01,2013-01-30 09:27:00,
2013-01-30 03:28:00,15.8,8.1,28.55,NNW,338,0.0,0.0,71,0.00,,---,0.00,VWS V14.01,2013-01-30 09:28:00,
2013-01-30 03:29:00,15.8,8.1,28.55,NNW,338,0.0,0.0,71,0.00,,---,0.00,VWS V14.01,2013-01-30 09:29:00,
2013-01-30 03:30:00,15.8,7.8,28.55,NNW,338,0.0,0.0,70,0.00,,---,0.00,VWS V14.01,2013-01-30 09:30:00,
2013-01-30 03:32:00,15.8,8.1,28.55,NNW,338,0.0,0.0,71,0.00,,---,0.00,VWS V14.01,2013-01-30 09:32:00,
2013-01-30 03:34:00,15.6,7.6,28.55,NNW,338,0.0,0.0,70,0.00,,---,0.00,VWS V14.01,2013-01-30 09:34:00,
2013-01-30 03:35:00,15.4,7.7,28.55,NNW,338,0.0,0.0,71,0.00,,---,0.00,VWS V14.01,2013-01-30 09:35:00,
2013-01-30 03:36:00,15.4,7.7,28.55,NNW,338,0.0,0.0,71,0.00,,---,0.00,VWS V14.01,2013-01-30 09:36:00,
2013-01-30 03:37:00,15.4,7.4,28.55,NNW,338,0.0,0.0,70,0.00,,---,0.00,VWS V14.01,2013-01-30 09:37:00,
2013-01-30 03:38:00,15.4,7.4,28.55,NNW,338,0.0,0.0,70,0.00,,---,0.00,VWS V14.01,2013-01-30 09:38:00,
2013-01-30 03:39:00,15.4,7.4,28.55,NNW,338,0.0,0.0,70,0.00,,---,0.00,VWS V14.01,2013-01-30 09:39:00,
2013-01-30 03:40:00,15.3,6.9,28.55,NNW,338,0.0,0.0,69,0.00,,---,0.00,VWS V14.01,2013-01-30 09:40:00,
2013-01-30 03:41:00,15.3,6.9,28.55,NNW,338,0.0,0.0,69,0.00,,---,0.00,VWS V14.01,2013-01-30 09:41:00,
2013-01-30 03:42:00,15.3,7.2,28.55,NNW,338,0.0,0.0,70,0.00,,---,0.00,VWS V14.01,2013-01-30 09:42:00,
2013-01-30 03:43:00,15.3,7.2,28.55,NNW,338,0.0,0.0,70,0.00,,---,0.00,VWS V14.01,2013-01-30 09:43:00,
2013-01-30 03:44:00,15.3,7.2,28.55,NNW,338,0.0,0.0,70,0.00,,---,0.00,VWS V14.01,2013-01-30 09:44:00,
2013-01-30 03:45:00,15.3,7.2,28.55,NNW,338,0.0,0.0,70,0.00,,---,0.00,VWS V14.01,2013-01-30 09:45:00,
2013-01-30 03:46:00,15.3,7.2,28.55,NNW,338,0.0,0.0,70,0.00,,---,0.00,VWS V14.01,2013-01-30 09:46:00,
2013-01-30 03:47:00,15.3,7.2,28.52,NNW,338,0.0,0.0,70,0.00,,---,0.00,VWS V14.01,2013-01-30 09:47:00,
2013-01-30 03:48:00,15.3,7.2,28.52,NNW,338,0.0,0.0,70,0.00,,---,0.00,VWS V14.01,2013-01-30 09:48:00,
2013-01-30 03:49:00,15.3,7.6,28.52,NNW,338,0.0,0.0,71,0.00,,---,0.00,VWS V14.01,2013-01-30 09:49:00,
2013-01-30 03:50:00,15.3,7.6,28.52,WNW,292,0.0,0.0,71,0.00,,---,0.00,VWS V14.01,2013-01-30 09:50:00,
2013-01-30 03:51:00,15.3,7.2,28.52,NNW,338,0.0,0.0,70,0.00,,---,0.00,VWS V14.01,2013-01-30 09:51:00,
2013-01-30 03:52:00,15.3,7.2,28.52,NNW,338,0.0,0.0,70,0.00,,---,0.00,VWS V14.01,2013-01-30 09:52:00,
2013-01-30 03:53:00,15.1,7.1,28.52,NNW,338,0.0,0.0,70,0.00,,---,0.00,VWS V14.01,2013-01-30 09:53:00,
2013-01-30 03:54:00,15.1,7.1,28.52,NNW,338,0.0,0.0,70,0.00,,---,0.00,VWS V14.01,2013-01-30 09:54:00,
2013-01-30 03:55:00,15.1,7.1,28.52,North,0,0.0,0.0,70,0.00,,---,0.00,VWS V14.01,2013-01-30 09:55:00,
2013-01-30 03:56:00,15.1,7.1,28.52,NNW,338,0.0,0.0,70,0.00,,---,0.00,VWS V14.01,2013-01-30 09:56:00,
2013-01-30 03:57:00,15.1,7.4,28.52,NNW,338,0.0,0.0,71,0.00,,---,0.00,VWS V14.01,2013-01-30 09:57:00,
2013-01-30 03:58:00,15.1,7.4,28.52,NNW,338,0.0,0.0,71,0.00,,---,0.00,VWS V14.01,2013-01-30 09:58:00,
2013-01-30 03:59:00,15.1,7.4,28.52,NNW,338,0.0,0.0,71,0.00,,---,0.00,VWS V14.01,2013-01-30 09:59:00,
2013-01-30 04:00:00,15.1,7.4,28.52,NNW,338,0.0,0.0,71,0.00,,---,0.00,VWS V14.01,2013-01-30 10:00:00,
2013-01-30 04:01:00,15.1,7.1,28.52,NNW,338,0.0,0.0,70,0.00,,---,0.00,VWS V14.01,2013-01-30 10:01:00,
2013-01-30 04:02:00,15.1,7.1,28.55,NNW,338,0.0,0.0,70,0.00,,---,0.00,VWS V14.01,2013-01-30 10:02:00,
2013-01-30 04:03:00,15.1,7.1,28.55,NNW,338,0.0,0.0,70,0.00,,---,0.00,VWS V14.01,2013-01-30 10:03:00,
2013-01-30 04:04:00,14.9,6.6,28.55,NNW,338,0.0,0.0,69,0.00,,---,0.00,VWS V14.01,2013-01-30 10:04:00,
2013-01-30 04:05:00,14.9,6.6,28.55,NNW,338,0.0,0.0,69,0.00,,---,0.00,VWS V14.01,2013-01-30 10:05:00,
2013-01-30 04:06:00,14.9,6.6,28.55,NNW,338,0.0,0.0,69,0.00,,---,0.00,VWS V14.01,2013-01-30 10:06:00,
2013-01-30 04:07:00,14.9,6.6,28.55,NNW,338,0.0,0.0,69,0.00,,---,0.00,VWS V14.01,2013-01-30 10:07:00,
2013-01-30 04:08:00,14.9,6.6,28.55,NNW,338,0.0,0.0,69,0.00,,---,0.00,VWS V14.01,2013-01-30 10:08:00,
2013-01-30 04:09:00,14.9,6.6,28.55,NNW,338,0.0,0.0,69,0.00,,---,0.00,VWS V14.01,2013-01-30 10:09:00,
2013-01-30 04:10:00,14.9,6.6,28.55,NNW,338,0.0,0.0,69,0.00,,---,0.00,VWS V14.01,2013-01-30 10:10:00,
2013-01-30 04:11:00,14.7,6.7,28.55,NNW,338,0.0,0.0,70,0.00,,---,0.00,VWS V14.01,2013-01-30 10:11:00,
2013-01-30 04:12:00,14.7,6.7,28.55,NNW,338,0.0,0.0,70,0.00,,---,0.00,VWS V14.01,2013-01-30 10:12:00,
2013-01-30 04:13:00,14.5,6.2,28.55,NNW,338,0.0,0.0,69,0.00,,---,0.00,VWS V14.01,2013-01-30 10:13:00,
2013-01-30 04:14:00,14.5,6.2,28.55,NNW,338,0.0,0.0,69,0.00,,---,0.00,VWS V14.01,2013-01-30 10:14:00,
2013-01-30 04:15:00,14.5,6.2,28.55,NNW,338,0.0,0.0,69,0.00,,---,0.00,VWS V14.01,2013-01-30 10:15:00,
2013-01-30 04:16:00,14.5,5.9,28.55,North,0,0.0,0.0,68,0.00,,---,0.00,VWS V14.01,2013-01-30 10:16:00,
2013-01-30 04:17:00,14.5,5.9,28.55,NW,315,0.0,0.0,68,0.00,,---,0.00,VWS V14.01,2013-01-30 10:17:00,
2013-01-30 04:18:00,14.5,5.9,28.55,NW,315,0.0,0.0,68,0.00,,---,0.00,VWS V14.01,2013-01-30 10:18:00,
2013-01-30 04:19:00,14.4,5.8,28.55,NNW,338,0.0,0.0,68,0.00,,---,0.00,VWS V14.01,2013-01-30 10:19:00,
2013-01-30 04:20:00,14.4,5.8,28.55,NNW,338,0.0,0.0,68,0.00,,---,0.00,VWS V14.01,2013-01-30 10:20:00,
2013-01-30 04:21:00,14.4,5.8,28.55,NNW,338,0.0,0.0,68,0.00,,---,0.00,VWS V14.01,2013-01-30 10:21:00,
2013-01-30 04:22:00,14.4,5.8,28.55,NNW,338,0.0,0.0,68,0.00,,---,0.00,VWS V14.01,2013-01-30 10:22:00,
2013-01-30 04:23:00,14.4,5.8,28.55,NNW,338,0.0,0.0,68,0.00,,---,0.00,VWS V14.01,2013-01-30 10:23:00,
2013-01-30 04:24:00,14.2,5.6,28.55,NNW,338,0.0,0.0,68,0.00,,---,0.00,VWS V14.01,2013-01-30 10:24:00,
2013-01-30 04:25:00,14.2,5.6,28.55,NNW,338,0.0,0.0,68,0.00,,---,0.00,VWS V14.01,2013-01-30 10:25:00,
2013-01-30 04:26:00,14.2,5.6,28.55,NNW,338,0.0,0.0,68,0.00,,---,0.00,VWS V14.01,2013-01-30 10:26:00,
2013-01-30 04:27:00,14.2,5.6,28.55,NNW,338,0.0,0.0,68,0.00,,---,0.00,VWS V14.01,2013-01-30 10:27:00,
2013-01-30 04:28:00,14.2,5.6,28.55,NNW,338,0.0,0.0,68,0.00,,---,0.00,VWS V14.01,2013-01-30 10:28:00,
2013-01-30 04:29:00,14.2,5.6,28.55,NNW,338,0.0,0.0,68,0.00,,---,0.00,VWS V14.01,2013-01-30 10:29:00,
2013-01-30 04:30:00,14.2,5.6,28.55,NNW,338,0.0,0.0,68,0.00,,---,0.00,VWS V14.01,2013-01-30 10:30:00,
2013-01-30 04:31:00,14.2,5.6,28.55,NNW,338,0.0,0.0,68,0.00,,---,0.00,VWS V14.01,2013-01-30 10:31:00,
2013-01-30 04:32:00,14.2,5.6,28.55,NNW,338,0.0,0.0,68,0.00,,---,0.00,VWS V14.01,2013-01-30 10:32:00,
2013-01-30 04:33:00,14.2,5.6,28.55,NNW,338,0.0,0.0,68,0.00,,---,0.00,VWS V14.01,2013-01-30 10:33:00,
2013-01-30 04:34:00,14.2,5.6,28.55,NNW,338,0.0,0.0,68,0.00,,---,0.00,VWS V14.01,2013-01-30 10:34:00,
2013-01-30 04:35:00,14.2,5.6,28.55,NNW,338,0.0,0.0,68,0.00,,---,0.00,VWS V14.01,2013-01-30 10:35:00,
2013-01-30 04:36:00,14.2,5.6,28.55,NNW,338,0.0,0.0,68,0.00,,---,0.00,VWS V14.01,2013-01-30 10:36:00,
2013-01-30 04:37:00,14.2,5.9,28.55,NNW,338,0.0,0.0,69,0.00,,---,0.00,VWS V14.01,2013-01-30 10:37:00,
2013-01-30 04:38:00,14.0,6.0,28.55,NNW,338,0.0,0.0,70,0.00,,---,0.00,VWS V14.01,2013-01-30 10:38:00,
2013-01-30 04:39:00,14.2,6.2,28.55,NNW,338,0.0,0.0,70,0.00,,---,0.00,VWS V14.01,2013-01-30 10:39:00,
2013-01-30 04:40:00,14.2,6.2,28.55,NNW,338,0.0,0.0,70,0.00,,---,0.00,VWS V14.01,2013-01-30 10:40:00,
2013-01-30 04:41:00,14.2,6.2,28.55,NNW,338,0.0,0.0,70,0.00,,---,0.00,VWS V14.01,2013-01-30 10:41:00,
2013-01-30 04:42:00,14.2,6.2,28.55,NNW,338,0.0,0.0,70,0.00,,---,0.00,VWS V14.01,2013-01-30 10:42:00,
2013-01-30 04:43:00,13.8,5.6,28.55,NNW,338,0.0,0.0,69,0.00,,---,0.00,VWS V14.01,2013-01-30 10:43:00,
2013-01-30 04:44:00,13.8,5.6,28.55,NNW,338,0.0,0.0,69,0.00,,---,0.00,VWS V14.01,2013-01-30 10:44:00,
2013-01-30 04:45:00,13.8,5.6,28.55,NNW,338,0.0,0.0,69,0.00,,---,0.00,VWS V14.01,2013-01-30 10:45:00,
2013-01-30 04:46:00,13.8,5.6,28.55,NNW,338,0.0,0.0,69,0.00,,---,0.00,VWS V14.01,2013-01-30 10:46:00,
2013-01-30 04:47:00,13.8,5.6,28.52,NNW,338,0.0,0.0,69,0.00,,---,0.00,VWS V14.01,2013-01-30 10:47:00,
2013-01-30 04:48:00,13.8,5.6,28.52,North,0,0.0,0.0,69,0.00,,---,0.00,VWS V14.01,2013-01-30 10:48:00,
2013-01-30 04:49:00,13.8,5.6,28.52,NNW,338,0.0,0.0,69,0.00,,---,0.00,VWS V14.01,2013-01-30 10:49:00,
2013-01-30 04:50:00,13.8,5.6,28.52,NNW,338,0.0,0.0,69,0.00,,---,0.00,VWS V14.01,2013-01-30 10:50:00,
2013-01-30 04:51:00,13.8,5.6,28.52,NNW,338,0.0,0.0,69,0.00,,---,0.00,VWS V14.01,2013-01-30 10:51:00,
2013-01-30 04:52:00,13.8,5.6,28.52,NNW,338,0.0,0.0,69,0.00,,---,0.00,VWS V14.01,2013-01-30 10:52:00,
2013-01-30 04:53:00,13.8,5.6,28.52,NNW,338,0.0,0.0,69,0.00,,---,0.00,VWS V14.01,2013-01-30 10:53:00,
2013-01-30 04:54:00,13.8,5.6,28.52,WNW,292,0.0,0.0,69,0.00,,---,0.00,VWS V14.01,2013-01-30 10:54:00,
2013-01-30 04:55:00,13.8,5.6,28.52,NNW,338,0.0,0.0,69,0.00,,---,0.00,VWS V14.01,2013-01-30 10:55:00,
2013-01-30 04:56:00,13.8,5.6,28.52,NNW,338,0.0,0.0,69,0.00,,---,0.00,VWS V14.01,2013-01-30 10:56:00,
2013-01-30 04:57:00,13.8,5.6,28.52,NNW,338,0.0,0.0,69,0.00,,---,0.00,VWS V14.01,2013-01-30 10:57:00,
2013-01-30 04:58:00,13.8,5.6,28.52,NW,315,0.0,0.0,69,0.00,,---,0.00,VWS V14.01,2013-01-30 10:58:00,
2013-01-30 04:59:00,13.8,5.6,28.52,NNW,338,0.0,0.0,69,0.00,,---,0.00,VWS V14.01,2013-01-30 10:59:00,
2013-01-30 05:00:00,13.6,5.4,28.52,NNW,338,0.0,0.0,69,0.00,,---,0.00,VWS V14.01,2013-01-30 11:00:00,
2013-01-30 05:01:00,13.6,5.4,28.52,NNW,338,0.0,0.0,69,0.00,,---,0.00,VWS V14.01,2013-01-30 11:01:00,
2013-01-30 05:02:00,13.6,5.4,28.55,NNW,338,0.0,0.0,69,0.00,,---,0.00,VWS V14.01,2013-01-30 11:02:00,
2013-01-30 05:03:00,13.6,5.4,28.55,North,0,0.0,0.0,69,0.00,,---,0.00,VWS V14.01,2013-01-30 11:03:00,
2013-01-30 05:04:00,13.6,5.4,28.55,North,0,0.0,0.0,69,0.00,,---,0.00,VWS V14.01,2013-01-30 11:04:00,
2013-01-30 05:05:00,13.6,5.4,28.55,North,0,0.0,0.0,69,0.00,,---,0.00,VWS V14.01,2013-01-30 11:05:00,
2013-01-30 05:06:00,13.6,5.4,28.55,NNW,338,0.0,0.0,69,0.00,,---,0.00,VWS V14.01,2013-01-30 11:06:00,
2013-01-30 05:07:00,13.6,5.4,28.55,NNW,338,0.0,0.0,69,0.00,,---,0.00,VWS V14.01,2013-01-30 11:07:00,
2013-01-30 05:08:00,13.5,5.2,28.55,NNW,338,0.0,0.0,69,0.00,,---,0.00,VWS V14.01,2013-01-30 11:08:00,
2013-01-30 05:09:00,13.5,5.2,28.55,NNW,338,0.0,0.0,69,0.00,,---,0.00,VWS V14.01,2013-01-30 11:09:00,
2013-01-30 05:10:00,13.5,5.2,28.55,NNW,338,0.0,0.0,69,0.00,,---,0.00,VWS V14.01,2013-01-30 11:10:00,
2013-01-30 05:11:00,13.5,5.2,28.55,NNW,338,0.0,0.0,69,0.00,,---,0.00,VWS V14.01,2013-01-30 11:11:00,
2013-01-30 05:12:00,13.5,5.2,28.55,NNW,338,0.0,0.0,69,0.00,,---,0.00,VWS V14.01,2013-01-30 11:12:00,
2013-01-30 05:13:00,13.5,5.2,28.55,NNW,338,0.0,0.0,69,0.00,,---,0.00,VWS V14.01,2013-01-30 11:13:00,
2013-01-30 05:14:00,13.5,5.2,28.55,NNW,338,0.0,0.0,69,0.00,,---,0.00,VWS V14.01,2013-01-30 11:14:00,
2013-01-30 05:15:00,13.5,5.2,28.55,NNW,338,0.0,0.0,69,0.00,,---,0.00,VWS V14.01,2013-01-30 11:15:00,
2013-01-30 05:16:00,13.5,5.2,28.55,NNW,338,0.0,0.0,69,0.00,,---,0.00,VWS V14.01,2013-01-30 11:16:00,
2013-01-30 05:17:00,13.5,5.2,28.55,NNW,338,0.0,0.0,69,0.00,,---,0.00,VWS V14.01,2013-01-30 11:17:00,
2013-01-30 05:18:00,13.5,5.2,28.55,NNW,338,0.0,0.0,69,0.00,,---,0.00,VWS V14.01,2013-01-30 11:18:00,
2013-01-30 05:19:00,13.5,5.2,28.55,NNW,338,0.0,0.0,69,0.00,,---,0.00,VWS V14.01,2013-01-30 11:19:00,
2013-01-30 05:20:00,13.5,5.2,28.55,NNW,338,0.0,0.0,69,0.00,,---,0.00,VWS V14.01,2013-01-30 11:20:00,
2013-01-30 05:21:00,13.5,5.2,28.55,NNW,338,0.0,0.0,69,0.00,,---,0.00,VWS V14.01,2013-01-30 11:21:00,
2013-01-30 05:22:00,13.5,5.2,28.55,NNW,338,0.0,0.0,69,0.00,,---,0.00,VWS V14.01,2013-01-30 11:22:00,
2013-01-30 05:23:00,13.3,5.0,28.55,NNW,338,0.0,0.0,69,0.00,,---,0.00,VWS V14.01,2013-01-30 11:23:00,
2013-01-30 05:24:00,13.3,5.0,28.55,NNW,338,0.0,0.0,69,0.00,,---,0.00,VWS V14.01,2013-01-30 11:24:00,
2013-01-30 05:25:00,13.3,5.0,28.55,NNW,338,0.0,0.0,69,0.00,,---,0.00,VWS V14.01,2013-01-30 11:25:00,
2013-01-30 05:26:00,13.3,5.0,28.55,NNW,338,0.0,0.0,69,0.00,,---,0.00,VWS V14.01,2013-01-30 11:26:00,
2013-01-30 05:27:00,13.3,5.0,28.55,North,0,0.0,0.0,69,0.00,,---,0.00,VWS V14.01,2013-01-30 11:27:00,
2013-01-30 05:28:00,13.3,5.0,28.55,NW,315,0.0,0.0,69,0.00,,---,0.00,VWS V14.01,2013-01-30 11:28:00,
2013-01-30 05:29:00,13.3,5.0,28.55,NNW,338,0.0,0.0,69,0.00,,---,0.00,VWS V14.01,2013-01-30 11:29:00,
2013-01-30 05:30:00,13.3,5.0,28.55,NNW,338,0.0,0.0,69,0.00,,---,0.00,VWS V14.01,2013-01-30 11:30:00,
2013-01-30 05:31:00,13.3,5.0,28.55,NNW,338,0.0,0.0,69,0.00,,---,0.00,VWS V14.01,2013-01-30 11:31:00,
2013-01-30 05:32:00,13.3,5.0,28.52,North,0,0.0,0.0,69,0.00,,---,0.00,VWS V14.01,2013-01-30 11:32:00,
2013-01-30 05:33:00,13.3,5.0,28.52,NNW,338,0.0,0.0,69,0.00,,---,0.00,VWS V14.01,2013-01-30 11:33:00,
2013-01-30 05:34:00,13.3,5.0,28.52,NNW,338,0.0,0.0,69,0.00,,---,0.00,VWS V14.01,2013-01-30 11:34:00,
2013-01-30 05:35:00,13.3,5.0,28.52,NNW,338,0.0,0.0,69,0.00,,---,0.00,VWS V14.01,2013-01-30 11:35:00,
2013-01-30 05:36:00,13.3,5.0,28.52,NNW,338,0.0,0.0,69,0.00,,---,0.00,VWS V14.01,2013-01-30 11:36:00,
2013-01-30 05:37:00,13.3,5.0,28.52,NNW,338,0.0,0.0,69,0.00,,---,0.00,VWS V14.01,2013-01-30 11:37:00,
2013-01-30 05:38:00,13.3,5.0,28.52,NNW,338,0.0,0.0,69,0.00,,---,0.00,VWS V14.01,2013-01-30 11:38:00,
2013-01-30 05:39:00,13.3,5.0,28.52,NNW,338,0.0,0.0,69,0.00,,---,0.00,VWS V14.01,2013-01-30 11:39:00,
2013-01-30 05:40:00,13.1,4.8,28.52,NNW,338,0.0,0.0,69,0.00,,---,0.00,VWS V14.01,2013-01-30 11:40:00,
2013-01-30 05:41:00,13.1,4.8,28.52,NW,315,0.0,0.0,69,0.00,,---,0.00,VWS V14.01,2013-01-30 11:41:00,
2013-01-30 05:42:00,13.1,4.8,28.52,NNW,338,0.0,0.0,69,0.00,,---,0.00,VWS V14.01,2013-01-30 11:42:00,
2013-01-30 05:43:00,12.9,4.7,28.52,NNW,338,0.0,0.0,69,0.00,,---,0.00,VWS V14.01,2013-01-30 11:43:00,
2013-01-30 05:44:00,12.9,4.7,28.52,North,0,0.0,0.0,69,0.00,,---,0.00,VWS V14.01,2013-01-30 11:44:00,
2013-01-30 05:45:00,12.9,4.7,28.52,North,0,0.0,0.0,69,0.00,,---,0.00,VWS V14.01,2013-01-30 11:45:00,
2013-01-30 05:46:00,12.9,4.7,28.52,NNW,338,0.0,0.0,69,0.00,,---,0.00,VWS V14.01,2013-01-30 11:46:00,
2013-01-30 05:47:00,12.9,4.7,28.52,NW,315,0.0,0.0,69,0.00,,---,0.00,VWS V14.01,2013-01-30 11:47:00,
2013-01-30 05:48:00,12.9,4.7,28.52,North,0,0.0,0.0,69,0.00,,---,0.00,VWS V14.01,2013-01-30 11:48:00,
2013-01-30 05:49:00,12.9,4.7,28.52,NNW,338,0.0,0.0,69,0.00,,---,0.00,VWS V14.01,2013-01-30 11:49:00,
2013-01-30 05:50:00,12.9,4.7,28.52,NNW,338,0.0,0.0,69,0.00,,---,0.00,VWS V14.01,2013-01-30 11:50:00,
2013-01-30 05:51:00,12.7,4.5,28.52,NW,315,0.0,0.0,69,0.00,,---,0.00,VWS V14.01,2013-01-30 11:51:00,
2013-01-30 05:52:00,12.7,4.5,28.52,WNW,292,0.0,0.0,69,0.00,,---,0.00,VWS V14.01,2013-01-30 11:52:00,
2013-01-30 05:53:00,12.7,4.5,28.52,NNW,338,0.0,0.0,69,0.00,,---,0.00,VWS V14.01,2013-01-30 11:53:00,
2013-01-30 05:54:00,12.7,4.5,28.52,NNW,338,0.0,0.0,69,0.00,,---,0.00,VWS V14.01,2013-01-30 11:54:00,
2013-01-30 05:55:00,12.7,4.5,28.52,NNW,338,0.0,0.0,69,0.00,,---,0.00,VWS V14.01,2013-01-30 11:55:00,
2013-01-30 05:56:00,12.7,4.5,28.52,NNW,338,0.0,0.0,69,0.00,,---,0.00,VWS V14.01,2013-01-30 11:56:00,
2013-01-30 05:57:00,12.7,4.5,28.52,NNW,338,0.0,0.0,69,0.00,,---,0.00,VWS V14.01,2013-01-30 11:57:00,
2013-01-30 05:58:00,12.7,4.5,28.52,NNW,338,0.0,0.0,69,0.00,,---,0.00,VWS V14.01,2013-01-30 11:58:00,
2013-01-30 05:59:00,12.7,4.5,28.52,NNW,338,0.0,0.0,69,0.00,,---,0.00,VWS V14.01,2013-01-30 11:59:00,
2013-01-30 06:00:00,12.7,4.5,28.52,NNW,338,0.0,0.0,69,0.00,,---,0.00,VWS V14.01,2013-01-30 12:00:00,
2013-01-30 06:01:00,12.7,4.5,28.52,NNW,338,0.0,0.0,69,0.00,,---,0.00,VWS V14.01,2013-01-30 12:01:00,
2013-01-30 06:02:00,12.7,4.5,28.52,NNW,338,0.0,0.0,69,0.00,,---,0.00,VWS V14.01,2013-01-30 12:02:00,
2013-01-30 06:03:00,12.6,4.3,28.52,NNW,338,0.0,0.0,69,0.00,,---,0.00,VWS V14.01,2013-01-30 12:03:00,
2013-01-30 06:04:00,12.6,4.3,28.52,NNW,338,0.0,0.0,69,0.00,,---,0.00,VWS V14.01,2013-01-30 12:04:00,
2013-01-30 06:05:00,12.6,4.3,28.52,WNW,292,0.0,0.0,69,0.00,,---,0.00,VWS V14.01,2013-01-30 12:05:00,
2013-01-30 06:06:00,12.6,4.3,28.52,NNW,338,0.0,0.0,69,0.00,,---,0.00,VWS V14.01,2013-01-30 12:06:00,
2013-01-30 06:07:00,12.6,4.3,28.52,NNW,338,0.0,0.0,69,0.00,,---,0.00,VWS V14.01,2013-01-30 12:07:00,
2013-01-30 06:08:00,12.6,4.3,28.52,NNW,338,0.0,0.0,69,0.00,,---,0.00,VWS V14.01,2013-01-30 12:08:00,
2013-01-30 06:09:00,12.6,4.3,28.52,WSW,248,0.0,0.0,69,0.00,,---,0.00,VWS V14.01,2013-01-30 12:09:00,
2013-01-30 06:10:00,12.6,4.3,28.52,NNW,338,0.0,0.0,69,0.00,,---,0.00,VWS V14.01,2013-01-30 12:10:00,
2013-01-30 06:11:00,12.6,4.3,28.52,NNW,338,0.0,0.0,69,0.00,,---,0.00,VWS V14.01,2013-01-30 12:11:00,
2013-01-30 06:12:00,12.6,4.3,28.52,NNW,338,0.0,0.0,69,0.00,,---,0.00,VWS V14.01,2013-01-30 12:12:00,
2013-01-30 06:13:00,12.6,4.3,28.52,NNW,338,0.0,0.0,69,0.00,,---,0.00,VWS V14.01,2013-01-30 12:13:00,
2013-01-30 06:14:00,12.4,4.2,28.52,NW,315,0.0,0.0,69,0.00,,---,0.00,VWS V14.01,2013-01-30 12:14:00,
2013-01-30 06:15:00,12.4,4.2,28.52,NNW,338,0.0,0.0,69,0.00,,---,0.00,VWS V14.01,2013-01-30 12:15:00,
2013-01-30 06:16:00,12.4,4.2,28.52,NNW,338,0.0,0.0,69,0.00,,---,0.00,VWS V14.01,2013-01-30 12:16:00,
2013-01-30 06:17:00,12.2,4.0,28.55,NNW,338,0.0,0.0,69,0.00,,---,0.00,VWS V14.01,2013-01-30 12:17:00,
2013-01-30 06:18:00,12.2,4.0,28.55,NNW,338,0.0,0.0,69,0.00,,---,0.00,VWS V14.01,2013-01-30 12:18:00,
2013-01-30 06:19:00,12.2,4.0,28.55,WNW,292,0.0,0.0,69,0.00,,---,0.00,VWS V14.01,2013-01-30 12:19:00,
2013-01-30 06:20:00,12.2,4.0,28.55,WNW,292,0.0,0.0,69,0.00,,---,0.00,VWS V14.01,2013-01-30 12:20:00,
2013-01-30 06:21:00,12.2,4.0,28.55,NNW,338,0.0,0.0,69,0.00,,---,0.00,VWS V14.01,2013-01-30 12:21:00,
2013-01-30 06:22:00,12.2,4.0,28.55,NNW,338,0.0,0.0,69,0.00,,---,0.00,VWS V14.01,2013-01-30 12:22:00,
2013-01-30 06:24:00,12.2,4.0,28.55,NNW,338,0.0,0.0,69,0.00,,---,0.00,VWS V14.01,2013-01-30 12:24:00,
2013-01-30 06:25:00,12.2,4.0,28.55,NNW,338,0.0,0.0,69,0.00,,---,0.00,VWS V14.01,2013-01-30 12:25:00,
2013-01-30 06:26:00,12.2,4.0,28.55,North,0,0.0,0.0,69,0.00,,---,0.00,VWS V14.01,2013-01-30 12:26:00,
2013-01-30 06:27:00,12.2,4.0,28.55,NNW,338,0.0,0.0,69,0.00,,---,0.00,VWS V14.01,2013-01-30 12:27:00,
2013-01-30 06:28:00,12.2,4.0,28.55,NNW,338,0.0,0.0,69,0.00,,---,0.00,VWS V14.01,2013-01-30 12:28:00,
2013-01-30 06:29:00,12.2,4.0,28.55,NNW,338,0.0,0.0,69,0.00,,---,0.00,VWS V14.01,2013-01-30 12:29:00,
2013-01-30 06:30:00,12.2,4.0,28.55,NNW,338,0.0,0.0,69,0.00,,---,0.00,VWS V14.01,2013-01-30 12:30:00,
2013-01-30 06:31:00,12.2,4.0,28.55,WNW,292,0.0,0.0,69,0.00,,---,0.00,VWS V14.01,2013-01-30 12:31:00,
2013-01-30 06:32:00,12.2,4.0,28.52,NNW,338,0.0,0.0,69,0.00,,---,0.00,VWS V14.01,2013-01-30 12:32:00,
2013-01-30 06:33:00,12.2,4.0,28.52,NW,315,0.0,0.0,69,0.00,,---,0.00,VWS V14.01,2013-01-30 12:33:00,
2013-01-30 06:34:00,12.2,4.0,28.52,NW,315,0.0,0.0,69,0.00,,---,0.00,VWS V14.01,2013-01-30 12:34:00,
2013-01-30 06:35:00,12.2,4.0,28.52,NNW,338,0.0,0.0,69,0.00,,---,0.00,VWS V14.01,2013-01-30 12:35:00,
2013-01-30 06:36:00,12.0,3.8,28.52,North,0,0.0,0.0,69,0.00,,---,0.00,VWS V14.01,2013-01-30 12:36:00,
2013-01-30 06:37:00,12.0,3.8,28.52,NNW,338,0.0,0.0,69,0.00,,---,0.00,VWS V14.01,2013-01-30 12:37:00,
2013-01-30 06:38:00,12.0,3.8,28.52,NNW,338,0.0,0.0,69,0.00,,---,0.00,VWS V14.01,2013-01-30 12:38:00,
2013-01-30 06:39:00,12.0,3.8,28.52,NW,315,0.0,0.0,69,0.00,,---,0.00,VWS V14.01,2013-01-30 12:39:00,
2013-01-30 06:40:00,12.0,3.8,28.52,North,0,0.0,0.0,69,0.00,,---,0.00,VWS V14.01,2013-01-30 12:40:00,
2013-01-30 06:41:00,12.0,3.8,28.52,NW,315,0.0,0.0,69,0.00,,---,0.00,VWS V14.01,2013-01-30 12:41:00,
2013-01-30 06:42:00,12.0,3.8,28.52,NW,315,0.0,0.0,69,0.00,,---,0.00,VWS V14.01,2013-01-30 12:42:00,
2013-01-30 06:43:00,12.0,3.8,28.52,North,0,0.0,0.0,69,0.00,,---,0.00,VWS V14.01,2013-01-30 12:43:00,
2013-01-30 06:44:00,12.0,3.8,28.52,NNW,338,0.0,0.0,69,0.00,,---,0.00,VWS V14.01,2013-01-30 12:44:00,
2013-01-30 06:45:00,12.0,3.8,28.52,NNW,338,0.0,0.0,69,0.00,,---,0.00,VWS V14.01,2013-01-30 12:45:00,
2013-01-30 06:46:00,12.0,3.8,28.52,NNW,338,0.0,0.0,69,0.00,,---,0.00,VWS V14.01,2013-01-30 12:46:00,
2013-01-30 06:47:00,12.0,3.8,28.55,NNW,338,0.0,0.0,69,0.00,,---,0.00,VWS V14.01,2013-01-30 12:47:00,
2013-01-30 06:48:00,12.0,3.8,28.55,NNW,338,0.0,0.0,69,0.00,,---,0.00,VWS V14.01,2013-01-30 12:48:00,
2013-01-30 06:49:00,12.0,3.8,28.55,NNW,338,0.0,0.0,69,0.00,,---,0.00,VWS V14.01,2013-01-30 12:49:00,
2013-01-30 06:50:00,12.0,3.8,28.55,NW,315,0.0,0.0,69,0.00,,---,0.00,VWS V14.01,2013-01-30 12:50:00,
2013-01-30 06:51:00,12.0,3.8,28.55,NNW,338,0.0,0.0,69,0.00,,---,0.00,VWS V14.01,2013-01-30 12:51:00,
2013-01-30 06:52:00,12.0,3.8,28.55,NNW,338,0.0,0.0,69,0.00,,---,0.00,VWS V14.01,2013-01-30 12:52:00,
2013-01-30 06:53:00,12.0,3.8,28.55,NNW,338,0.0,0.0,69,0.00,,---,0.00,VWS V14.01,2013-01-30 12:53:00,
2013-01-30 06:54:00,11.8,3.6,28.55,NNW,338,0.0,0.0,69,0.00,,---,0.00,VWS V14.01,2013-01-30 12:54:00,
2013-01-30 06:55:00,11.8,3.6,28.55,WNW,292,0.0,0.0,69,0.00,,---,0.00,VWS V14.01,2013-01-30 12:55:00,
2013-01-30 06:56:00,11.8,3.6,28.55,NNW,338,0.0,0.0,69,0.00,,---,0.00,VWS V14.01,2013-01-30 12:56:00,
2013-01-30 06:57:00,11.8,3.6,28.55,NNW,338,0.0,0.0,69,0.00,,---,0.00,VWS V14.01,2013-01-30 12:57:00,
2013-01-30 06:58:00,11.8,3.6,28.55,NNW,338,0.0,0.0,69,0.00,,---,0.00,VWS V14.01,2013-01-30 12:58:00,
2013-01-30 06:59:00,11.8,3.6,28.55,NNW,338,0.0,0.0,69,0.00,,---,0.00,VWS V14.01,2013-01-30 12:59:00,
2013-01-30 07:00:00,11.8,3.6,28.55,NW,315,0.0,0.0,69,0.00,,---,0.00,VWS V14.01,2013-01-30 13:00:00,
2013-01-30 07:01:00,11.8,3.6,28.55,NNW,338,0.0,0.0,69,0.00,,---,0.00,VWS V14.01,2013-01-30 13:01:00,
2013-01-30 07:02:00,11.8,3.6,28.55,NNW,338,0.0,0.0,69,0.00,,---,0.00,VWS V14.01,2013-01-30 13:02:00,
2013-01-30 07:03:00,11.8,3.6,28.55,NNW,338,0.0,0.0,69,0.00,,---,0.00,VWS V14.01,2013-01-30 13:03:00,
2013-01-30 07:04:00,11.8,3.6,28.55,NNW,338,0.0,0.0,69,0.00,,---,0.00,VWS V14.01,2013-01-30 13:04:00,
2013-01-30 07:05:00,11.8,3.6,28.55,NNW,338,0.0,0.0,69,0.00,,---,0.00,VWS V14.01,2013-01-30 13:05:00,
2013-01-30 07:06:00,11.8,3.6,28.55,NNW,338,0.0,0.0,69,0.00,,---,0.00,VWS V14.01,2013-01-30 13:06:00,
2013-01-30 07:07:00,11.8,3.6,28.55,NNW,338,0.0,0.0,69,0.00,,---,0.00,VWS V14.01,2013-01-30 13:07:00,
2013-01-30 07:08:00,11.8,3.6,28.55,NNW,338,0.0,0.0,69,0.00,,---,0.00,VWS V14.01,2013-01-30 13:08:00,
2013-01-30 07:09:00,11.7,3.5,28.55,NNW,338,0.0,0.0,69,0.00,,---,0.00,VWS V14.01,2013-01-30 13:09:00,
2013-01-30 07:10:00,11.7,3.5,28.55,NNW,338,0.0,0.0,69,0.00,,---,0.00,VWS V14.01,2013-01-30 13:10:00,
2013-01-30 07:11:00,11.7,3.5,28.55,North,0,0.0,0.0,69,0.00,,---,0.00,VWS V14.01,2013-01-30 13:11:00,
2013-01-30 07:12:00,11.7,3.5,28.55,NNW,338,0.0,0.0,69,0.00,,---,0.00,VWS V14.01,2013-01-30 13:12:00,
2013-01-30 07:13:00,11.7,3.5,28.55,NNW,338,0.0,0.0,69,0.00,,---,0.00,VWS V14.01,2013-01-30 13:13:00,
2013-01-30 07:14:00,11.7,3.5,28.55,NNW,338,0.0,0.0,69,0.00,,---,0.00,VWS V14.01,2013-01-30 13:14:00,
2013-01-30 07:15:00,11.7,3.5,28.55,WNW,292,0.0,0.0,69,0.00,,---,0.00,VWS V14.01,2013-01-30 13:15:00,
2013-01-30 07:16:00,11.7,3.5,28.55,NNW,338,0.0,0.0,69,0.00,,---,0.00,VWS V14.01,2013-01-30 13:16:00,
2013-01-30 07:17:00,11.7,3.5,28.52,NNW,338,0.0,0.0,69,0.00,,---,0.00,VWS V14.01,2013-01-30 13:17:00,
2013-01-30 07:18:00,11.5,3.3,28.52,NNW,338,0.0,0.0,69,0.00,,---,0.00,VWS V14.01,2013-01-30 13:18:00,
2013-01-30 07:19:00,11.5,3.3,28.52,North,0,0.0,0.0,69,0.00,,---,0.00,VWS V14.01,2013-01-30 13:19:00,
2013-01-30 07:20:00,11.5,3.3,28.52,NNW,338,0.0,0.0,69,0.00,,---,0.00,VWS V14.01,2013-01-30 13:20:00,
2013-01-30 07:21:00,11.5,3.3,28.52,NNW,338,0.0,0.0,69,0.00,,---,0.00,VWS V14.01,2013-01-30 13:21:00,
2013-01-30 07:22:00,11.3,3.1,28.52,NNW,338,0.0,0.0,69,0.00,,---,0.00,VWS V14.01,2013-01-30 13:22:00,
2013-01-30 07:23:00,11.3,3.1,28.52,NNW,338,0.0,0.0,69,0.00,,---,0.00,VWS V14.01,2013-01-30 13:23:00,
2013-01-30 07:24:00,11.3,3.1,28.52,NNW,338,0.0,0.0,69,0.00,,---,0.00,VWS V14.01,2013-01-30 13:24:00,
2013-01-30 07:25:00,11.3,3.1,28.52,NNW,338,0.0,0.0,69,0.00,,---,0.00,VWS V14.01,2013-01-30 13:25:00,
2013-01-30 07:26:00,11.3,3.1,28.52,NNW,338,0.0,0.0,69,0.00,,---,0.00,VWS V14.01,2013-01-30 13:26:00,
2013-01-30 07:27:00,11.3,3.1,28.52,NNW,338,0.0,0.0,69,0.00,,---,0.00,VWS V14.01,2013-01-30 13:27:00,
2013-01-30 07:28:00,11.3,3.1,28.52,NNW,338,0.0,0.0,69,0.00,,---,0.00,VWS V14.01,2013-01-30 13:28:00,
2013-01-30 07:29:00,11.3,3.1,28.52,NNW,338,0.0,0.0,69,0.00,,---,0.00,VWS V14.01,2013-01-30 13:29:00,
2013-01-30 07:30:00,11.3,3.1,28.52,NNW,338,0.0,0.0,69,0.00,,---,0.00,VWS V14.01,2013-01-30 13:30:00,
2013-01-30 07:31:00,11.3,3.1,28.52,North,0,0.0,0.0,69,0.00,,---,0.00,VWS V14.01,2013-01-30 13:31:00,
2013-01-30 07:32:00,11.3,3.1,28.55,NNW,338,0.0,0.0,69,0.00,,---,0.00,VWS V14.01,2013-01-30 13:32:00,
2013-01-30 07:33:00,11.3,3.1,28.55,NW,315,0.0,0.0,69,0.00,,---,0.00,VWS V14.01,2013-01-30 13:33:00,
2013-01-30 07:34:00,11.3,3.1,28.55,NNW,338,0.0,0.0,69,0.00,,---,0.00,VWS V14.01,2013-01-30 13:34:00,
2013-01-30 07:35:00,11.3,3.1,28.55,NNW,338,0.0,0.0,69,0.00,,---,0.00,VWS V14.01,2013-01-30 13:35:00,
2013-01-30 07:36:00,11.3,3.1,28.55,North,0,10.1,10.1,69,0.00,,---,0.00,VWS V14.01,2013-01-30 13:36:00,
2013-01-30 07:37:00,11.1,3.0,28.55,NNW,338,10.5,17.5,69,0.00,,---,0.00,VWS V14.01,2013-01-30 13:37:00,
2013-01-30 07:38:00,11.1,3.0,28.55,NW,315,10.3,10.5,69,0.00,,---,0.00,VWS V14.01,2013-01-30 13:38:00,
2013-01-30 07:39:00,11.1,3.0,28.55,NNW,338,8.7,10.3,69,0.00,,---,0.00,VWS V14.01,2013-01-30 13:39:00,
2013-01-30 07:40:00,11.1,3.0,28.55,NNW,338,12.3,12.3,69,0.00,,---,0.00,VWS V14.01,2013-01-30 13:40:00,
2013-01-30 07:41:00,11.1,3.0,28.55,NNW,338,16.1,16.1,69,0.00,,---,0.00,VWS V14.01,2013-01-30 13:41:00,
2013-01-30 07:42:00,11.1,3.0,28.55,NNW,338,6.9,16.1,69,0.00,,---,0.00,VWS V14.01,2013-01-30 13:42:00,
2013-01-30 07:43:00,11.1,3.0,28.55,NW,315,8.7,13.0,69,0.00,,---,0.00,VWS V14.01,2013-01-30 13:43:00,
2013-01-30 07:44:00,11.1,3.0,28.55,NNW,338,7.8,10.7,69,0.00,,---,0.00,VWS V14.01,2013-01-30 13:44:00,
2013-01-30 07:45:00,11.1,3.0,28.55,NNW,338,12.5,13.0,69,0.00,,---,0.00,VWS V14.01,2013-01-30 13:45:00,
2013-01-30 07:46:00,10.9,2.8,28.55,NNW,338,15.9,18.6,69,0.00,,---,0.00,VWS V14.01,2013-01-30 13:46:00,
2013-01-30 07:47:00,10.9,2.8,28.55,NNW,338,14.3,15.9,69,0.00,,---,0.00,VWS V14.01,2013-01-30 13:47:00,
2013-01-30 07:48:00,10.9,2.8,28.55,NNW,338,17.5,19.0,69,0.00,,---,0.00,VWS V14.01,2013-01-30 13:48:00,
2013-01-30 07:49:00,10.9,2.8,28.55,NNW,338,10.3,18.8,69,0.00,,---,0.00,VWS V14.01,2013-01-30 13:49:00,
2013-01-30 07:50:00,10.9,2.8,28.55,NNW,338,10.3,10.3,69,0.00,,---,0.00,VWS V14.01,2013-01-30 13:50:00,
2013-01-30 07:51:00,10.9,2.8,28.55,NW,315,14.3,17.2,69,0.00,,---,0.00,VWS V14.01,2013-01-30 13:51:00,
2013-01-30 07:52:00,10.8,2.6,28.55,NNW,338,13.0,14.3,69,0.00,,---,0.00,VWS V14.01,2013-01-30 13:52:00,
2013-01-30 07:53:00,10.8,2.6,28.55,NNW,338,13.2,13.2,69,0.00,,---,0.00,VWS V14.01,2013-01-30 13:53:00,
2013-01-30 07:54:00,10.8,2.6,28.55,NNW,338,14.3,15.4,69,0.00,,---,0.00,VWS V14.01,2013-01-30 13:54:00,
2013-01-30 07:55:00,10.8,2.6,28.55,NNW,338,12.8,14.3,69,0.00,,---,0.00,VWS V14.01,2013-01-30 13:55:00,
2013-01-30 07:56:00,10.8,2.6,28.55,NNW,338,10.7,12.8,69,0.00,,---,0.00,VWS V14.01,2013-01-30 13:56:00,
2013-01-30 07:57:00,10.8,2.6,28.55,NNW,338,15.2,15.2,69,0.00,,---,0.00,VWS V14.01,2013-01-30 13:57:00,
2013-01-30 07:58:00,10.8,2.6,28.55,NNW,338,8.7,15.2,69,0.00,,---,0.00,VWS V14.01,2013-01-30 13:58:00,
2013-01-30 07:59:00,10.8,2.6,28.55,NNW,338,12.3,14.8,69,0.00,,---,0.00,VWS V14.01,2013-01-30 13:59:00,
2013-01-30 08:00:00,10.8,2.6,28.55,NNE,22,12.3,13.2,69,0.00,,---,0.00,VWS V14.01,2013-01-30 14:00:00,
2013-01-30 08:01:00,10.8,2.6,28.55,NNW,338,10.1,13.2,69,0.00,,---,0.00,VWS V14.01,2013-01-30 14:01:00,
2013-01-30 08:02:00,10.8,2.6,28.55,North,0,17.5,17.5,69,0.00,,---,0.00,VWS V14.01,2013-01-30 14:02:00,
2013-01-30 08:03:00,10.8,2.6,28.55,North,0,10.7,17.5,69,0.00,,---,0.00,VWS V14.01,2013-01-30 14:03:00,
2013-01-30 08:04:00,10.8,2.6,28.55,NNW,338,10.1,10.7,69,0.00,,---,0.00,VWS V14.01,2013-01-30 14:04:00,
2013-01-30 08:05:00,10.8,2.6,28.55,NNW,338,12.8,15.4,69,0.00,,---,0.00,VWS V14.01,2013-01-30 14:05:00,
2013-01-30 08:06:00,10.8,2.6,28.55,NNW,338,13.0,15.4,69,0.00,,---,0.00,VWS V14.01,2013-01-30 14:06:00,
2013-01-30 08:07:00,10.9,2.8,28.55,NNW,338,10.5,13.0,69,0.00,,---,0.00,VWS V14.01,2013-01-30 14:07:00,
2013-01-30 08:08:00,10.9,2.8,28.55,NNW,338,7.6,12.8,69,0.00,,---,0.00,VWS V14.01,2013-01-30 14:08:00,
2013-01-30 08:09:00,10.9,2.8,28.55,NNW,338,11.0,11.0,69,0.00,,---,0.00,VWS V14.01,2013-01-30 14:09:00,
2013-01-30 08:10:00,10.9,2.8,28.55,NW,315,8.7,8.7,69,0.00,,---,0.00,VWS V14.01,2013-01-30 14:10:00,
2013-01-30 08:11:00,10.9,2.8,28.55,NNW,338,10.7,10.7,69,0.00,,---,0.00,VWS V14.01,2013-01-30 14:11:00,
2013-01-30 08:12:00,10.9,2.8,28.55,NW,315,5.4,11.0,69,0.00,,---,0.00,VWS V14.01,2013-01-30 14:12:00,
2013-01-30 08:13:00,10.9,2.8,28.55,NNW,338,8.1,10.1,69,0.00,,---,0.00,VWS V14.01,2013-01-30 14:13:00,
2013-01-30 08:14:00,10.9,2.8,28.55,NNW,338,11.0,11.0,69,0.00,,---,0.00,VWS V14.01,2013-01-30 14:14:00,
2013-01-30 08:15:00,10.9,2.8,28.55,NNW,338,7.6,7.8,69,0.00,,---,0.00,VWS V14.01,2013-01-30 14:15:00,
2013-01-30 08:17:00,10.9,2.8,28.55,NNW,338,5.6,7.8,69,0.00,,---,0.00,VWS V14.01,2013-01-30 14:17:00,
2013-01-30 08:18:00,10.9,2.8,28.55,NNW,338,9.6,12.1,69,0.00,,---,0.00,VWS V14.01,2013-01-30 14:18:00,
2013-01-30 08:19:00,10.9,2.8,28.55,NNW,338,5.8,9.6,69,0.00,,---,0.00,VWS V14.01,2013-01-30 14:19:00,
2013-01-30 08:20:00,10.9,2.8,28.55,NNW,338,13.2,13.2,69,0.00,,---,0.00,VWS V14.01,2013-01-30 14:20:00,
2013-01-30 08:21:00,10.9,2.8,28.55,NNW,338,12.5,13.2,69,0.00,,---,0.00,VWS V14.01,2013-01-30 14:21:00,
2013-01-30 08:22:00,10.8,2.6,28.55,NNW,338,10.5,16.6,69,0.00,,---,0.00,VWS V14.01,2013-01-30 14:22:00,
2013-01-30 08:24:00,10.8,2.6,28.55,NNW,338,7.8,10.5,69,0.00,,---,0.00,VWS V14.01,2013-01-30 14:24:00,
2013-01-30 08:25:00,10.9,2.8,28.55,NNW,338,10.5,12.8,69,0.00,,---,0.00,VWS V14.01,2013-01-30 14:25:00,
2013-01-30 08:26:00,10.9,2.8,28.55,NNW,338,12.3,15.2,69,0.00,,---,0.00,VWS V14.01,2013-01-30 14:26:00,
2013-01-30 08:27:00,10.8,2.6,28.55,NNW,338,7.6,12.3,69,0.00,,---,0.00,VWS V14.01,2013-01-30 14:27:00,
2013-01-30 08:28:00,10.9,2.8,28.55,NNW,338,11.0,11.0,69,0.00,,---,0.00,VWS V14.01,2013-01-30 14:28:00,
2013-01-30 08:29:00,10.9,2.8,28.55,NNW,338,7.6,12.3,69,0.00,,---,0.00,VWS V14.01,2013-01-30 14:29:00,
2013-01-30 08:30:00,10.9,2.8,28.55,NW,315,8.1,13.2,69,0.00,,---,0.00,VWS V14.01,2013-01-30 14:30:00,
2013-01-30 08:31:00,10.9,2.8,28.55,NNW,338,6.3,13.2,69,0.00,,---,0.00,VWS V14.01,2013-01-30 14:31:00,
2013-01-30 08:32:00,10.9,2.8,28.55,NW,315,10.1,10.1,69,0.00,,---,0.00,VWS V14.01,2013-01-30 14:32:00,
2013-01-30 08:33:00,10.9,2.8,28.55,NNW,338,6.3,13.2,69,0.00,,---,0.00,VWS V14.01,2013-01-30 14:33:00,
2013-01-30 08:34:00,10.9,2.8,28.55,NNW,338,8.5,8.5,69,0.00,,---,0.00,VWS V14.01,2013-01-30 14:34:00,
2013-01-30 08:35:00,10.9,2.8,28.55,NNW,338,6.3,10.7,69,0.00,,---,0.00,VWS V14.01,2013-01-30 14:35:00,
2013-01-30 08:36:00,10.9,2.8,28.55,NNW,338,6.5,10.7,69,0.00,,---,0.00,VWS V14.01,2013-01-30 14:36:00,
2013-01-30 08:37:00,10.9,2.8,28.55,NW,315,5.4,8.5,69,0.00,,---,0.00,VWS V14.01,2013-01-30 14:37:00,
2013-01-30 08:39:00,10.9,2.8,28.55,NNW,338,6.0,11.0,69,0.00,,---,0.00,VWS V14.01,2013-01-30 14:39:00,
2013-01-30 08:40:00,10.9,2.8,28.55,NNW,338,10.3,10.3,69,0.00,,---,0.00,VWS V14.01,2013-01-30 14:40:00,
2013-01-30 08:41:00,10.9,2.8,28.55,NNW,338,10.3,10.3,69,0.00,,---,0.00,VWS V14.01,2013-01-30 14:41:00,
2013-01-30 08:42:00,10.9,2.8,28.55,NNW,338,13.0,13.0,69,0.00,,---,0.00,VWS V14.01,2013-01-30 14:42:00,
2013-01-30 08:43:00,10.9,2.8,28.55,NNW,338,7.8,13.0,69,0.00,,---,0.00,VWS V14.01,2013-01-30 14:43:00,
2013-01-30 08:44:00,10.9,2.8,28.55,NNW,338,6.3,8.5,69,0.00,,---,0.00,VWS V14.01,2013-01-30 14:44:00,
2013-01-30 08:45:00,10.9,2.8,28.55,NNW,338,10.7,10.7,69,0.00,,---,0.00,VWS V14.01,2013-01-30 14:45:00,
2013-01-30 08:46:00,10.9,2.8,28.55,NNW,338,7.6,10.7,69,0.00,,---,0.00,VWS V14.01,2013-01-30 14:46:00,
2013-01-30 08:47:00,10.9,2.8,28.52,NNW,338,8.7,17.2,69,0.00,,---,0.00,VWS V14.01,2013-01-30 14:47:00,
2013-01-30 08:48:00,10.9,2.8,28.52,NNW,338,10.3,10.7,69,0.00,,---,0.00,VWS V14.01,2013-01-30 14:48:00,
2013-01-30 08:49:00,10.9,2.8,28.52,NNW,338,6.0,11.0,69,0.00,,---,0.00,VWS V14.01,2013-01-30 14:49:00,
2013-01-30 08:50:00,10.9,2.8,28.52,WNW,292,10.3,11.2,69,0.00,,---,0.00,VWS V14.01,2013-01-30 14:50:00,
2013-01-30 08:51:00,10.9,2.8,28.52,NW,315,8.7,11.2,69,0.00,,---,0.00,VWS V14.01,2013-01-30 14:51:00,
2013-01-30 08:52:00,11.1,3.0,28.52,NNW,338,8.7,13.0,69,0.00,,---,0.00,VWS V14.01,2013-01-30 14:52:00,
2013-01-30 08:53:00,10.9,2.8,28.52,NW,315,9.8,13.2,69,0.00,,---,0.00,VWS V14.01,2013-01-30 14:53:00,
2013-01-30 08:54:00,10.9,2.8,28.52,NNW,338,7.2,10.7,69,0.00,,---,0.00,VWS V14.01,2013-01-30 14:54:00,
2013-01-30 08:55:00,11.1,3.0,28.52,NNW,338,11.0,12.1,69,0.00,,---,0.00,VWS V14.01,2013-01-30 14:55:00,
2013-01-30 08:56:00,11.1,3.0,28.52,NW,315,8.5,12.8,69,0.00,,---,0.00,VWS V14.01,2013-01-30 14:56:00,
2013-01-30 08:57:00,10.9,2.8,28.52,NNW,338,10.1,10.1,69,0.00,,---,0.00,VWS V14.01,2013-01-30 14:57:00,
2013-01-30 08:58:00,11.1,3.0,28.52,NNW,338,7.6,10.1,69,0.00,,---,0.00,VWS V14.01,2013-01-30 14:58:00,
2013-01-30 08:59:00,11.1,3.0,28.52,NNW,338,8.1,10.3,69,0.00,,---,0.00,VWS V14.01,2013-01-30 14:59:00,
2013-01-30 09:00:00,11.1,3.0,28.52,NNW,338,15.2,15.4,69,0.00,,---,0.00,VWS V14.01,2013-01-30 15:00:00,
2013-01-30 09:01:00,11.1,3.0,28.52,WNW,292,8.7,15.4,69,0.00,,---,0.00,VWS V14.01,2013-01-30 15:01:00,
2013-01-30 09:02:00,11.1,3.0,28.52,North,0,9.6,9.6,69,0.00,,---,0.00,VWS V14.01,2013-01-30 15:02:00,
2013-01-30 09:03:00,11.1,3.0,28.55,NNW,338,9.8,10.7,69,0.00,,---,0.00,VWS V14.01,2013-01-30 15:03:00,
2013-01-30 09:04:00,10.9,2.8,28.55,NNW,338,8.5,10.7,69,0.00,,---,0.00,VWS V14.01,2013-01-30 15:04:00,
2013-01-30 09:05:00,11.1,3.0,28.55,NW,315,7.4,7.6,69,0.00,,---,0.00,VWS V14.01,2013-01-30 15:05:00,
2013-01-30 09:06:00,11.1,3.0,28.55,NW,315,7.4,7.6,69,0.00,,---,0.00,VWS V14.01,2013-01-30 15:06:00,
2013-01-30 09:07:00,11.1,3.0,28.55,NNW,338,12.1,12.1,69,0.00,,---,0.00,VWS V14.01,2013-01-30 15:07:00,
2013-01-30 09:08:00,11.1,3.0,28.55,NNW,338,7.6,12.1,69,0.00,,---,0.00,VWS V14.01,2013-01-30 15:08:00,
2013-01-30 09:09:00,11.1,3.0,28.55,NNW,338,12.5,12.5,69,0.00,,---,0.00,VWS V14.01,2013-01-30 15:09:00,
2013-01-30 09:10:00,11.1,3.0,28.55,NNW,338,13.0,16.6,69,0.00,,---,0.00,VWS V14.01,2013-01-30 15:10:00,
2013-01-30 09:11:00,11.1,3.0,28.55,NW,315,7.2,16.6,69,0.00,,---,0.00,VWS V14.01,2013-01-30 15:11:00,
2013-01-30 09:12:00,11.1,3.0,28.55,North,0,8.5,10.5,69,0.00,,---,0.00,VWS V14.01,2013-01-30 15:12:00,
2013-01-30 09:13:00,11.1,3.0,28.55,NNW,338,8.7,10.1,69,0.00,,---,0.00,VWS V14.01,2013-01-30 15:13:00,
2013-01-30 09:14:00,10.9,2.8,28.55,NNW,338,9.8,12.5,69,0.00,,---,0.00,VWS V14.01,2013-01-30 15:14:00,
2013-01-30 09:15:00,10.9,2.8,28.55,NNW,338,7.8,9.8,69,0.00,,---,0.00,VWS V14.01,2013-01-30 15:15:00,
2013-01-30 09:16:00,11.1,3.0,28.55,NNW,338,15.2,15.4,69,0.00,,---,0.00,VWS V14.01,2013-01-30 15:16:00,
2013-01-30 09:18:00,10.9,2.8,28.55,NW,315,10.3,15.2,69,0.00,,---,0.00,VWS V14.01,2013-01-30 15:18:00,
2013-01-30 09:19:00,10.9,2.8,28.55,NNW,338,10.7,11.2,69,0.00,,---,0.00,VWS V14.01,2013-01-30 15:19:00,
2013-01-30 09:20:00,10.9,2.8,28.55,NNW,338,13.0,13.0,69,0.00,,---,0.00,VWS V14.01,2013-01-30 15:20:00,
2013-01-30 09:21:00,10.9,2.8,28.55,North,0,12.3,13.0,69,0.00,,---,0.00,VWS V14.01,2013-01-30 15:21:00,
2013-01-30 09:22:00,10.9,2.8,28.55,NNW,338,13.0,13.0,69,0.00,,---,0.00,VWS V14.01,2013-01-30 15:22:00,
2013-01-30 09:23:00,10.9,2.8,28.55,NNW,338,9.8,13.2,69,0.00,,---,0.00,VWS V14.01,2013-01-30 15:23:00,
2013-01-30 09:24:00,10.9,2.8,28.55,NNW,338,8.7,9.8,69,0.00,,---,0.00,VWS V14.01,2013-01-30 15:24:00,
2013-01-30 09:25:00,10.9,2.8,28.55,NNW,338,12.8,14.8,69,0.00,,---,0.00,VWS V14.01,2013-01-30 15:25:00,
2013-01-30 09:26:00,10.9,2.8,28.55,NNW,338,8.7,14.8,69,0.00,,---,0.00,VWS V14.01,2013-01-30 15:26:00,
2013-01-30 09:27:00,11.1,3.0,28.55,NNW,338,9.6,10.3,69,0.00,,---,0.00,VWS V14.01,2013-01-30 15:27:00,
2013-01-30 09:28:00,11.1,3.0,28.55,NNW,338,7.6,10.3,69,0.00,,---,0.00,VWS V14.01,2013-01-30 15:28:00,
2013-01-30 09:29:00,11.1,3.0,28.55,NW,315,10.1,10.1,69,0.00,,---,0.00,VWS V14.01,2013-01-30 15:29:00,
2013-01-30 09:30:00,10.9,2.8,28.55,NNW,338,6.3,12.5,69,0.00,,---,0.00,VWS V14.01,2013-01-30 15:30:00,
2013-01-30 09:31:00,11.1,3.0,28.55,NNW,338,8.5,12.5,69,0.00,,---,0.00,VWS V14.01,2013-01-30 15:31:00,
2013-01-30 09:32:00,11.1,3.0,28.55,NNW,338,10.7,12.5,69,0.00,,---,0.00,VWS V14.01,2013-01-30 15:32:00,
2013-01-30 09:33:00,11.1,3.0,28.55,North,0,8.7,12.3,69,0.00,,---,0.00,VWS V14.01,2013-01-30 15:33:00,
2013-01-30 09:34:00,11.1,3.0,28.55,NW,315,9.2,13.2,69,0.00,,---,0.00,VWS V14.01,2013-01-30 15:34:00,
2013-01-30 09:35:00,11.1,3.0,28.55,NNW,338,8.7,17.7,69,0.00,,---,0.00,VWS V14.01,2013-01-30 15:35:00,
2013-01-30 09:36:00,11.1,3.0,28.55,NNW,338,14.3,14.3,69,0.00,,---,0.00,VWS V14.01,2013-01-30 15:36:00,
2013-01-30 09:37:00,11.1,3.0,28.55,NNW,338,9.0,10.5,69,0.00,,---,0.00,VWS V14.01,2013-01-30 15:37:00,
2013-01-30 09:38:00,11.1,3.0,28.55,NNW,338,7.8,11.0,69,0.00,,---,0.00,VWS V14.01,2013-01-30 15:38:00,
2013-01-30 09:39:00,11.1,3.0,28.55,NW,315,9.4,12.8,69,0.00,,---,0.00,VWS V14.01,2013-01-30 15:39:00,
2013-01-30 09:40:00,11.1,3.0,28.55,North,0,12.5,12.5,69,0.00,,---,0.00,VWS V14.01,2013-01-30 15:40:00,
2013-01-30 09:41:00,11.1,3.0,28.55,NNW,338,7.8,12.5,69,0.00,,---,0.00,VWS V14.01,2013-01-30 15:41:00,
2013-01-30 09:42:00,11.3,3.1,28.55,NNW,338,7.6,8.7,69,0.00,,---,0.00,VWS V14.01,2013-01-30 15:42:00,
2013-01-30 09:43:00,11.3,3.1,28.55,NNW,338,10.1,11.9,69,0.00,,---,0.00,VWS V14.01,2013-01-30 15:43:00,
2013-01-30 09:44:00,11.3,3.1,28.55,NNW,338,10.5,10.5,69,0.00,,---,0.00,VWS V14.01,2013-01-30 15:44:00,
2013-01-30 09:45:00,11.3,3.1,28.55,WNW,292,6.5,11.0,69,0.00,,---,0.00,VWS V14.01,2013-01-30 15:45:00,
2013-01-30 09:46:00,11.3,3.1,28.55,NNW,338,14.1,14.1,69,0.00,,---,0.00,VWS V14.01,2013-01-30 15:46:00,
2013-01-30 09:47:00,11.3,3.1,28.55,NNW,338,8.7,12.8,69,0.00,,---,0.00,VWS V14.01,2013-01-30 15:47:00,
2013-01-30 09:48:00,11.3,3.1,28.55,NNW,338,8.1,12.5,69,0.00,,---,0.00,VWS V14.01,2013-01-30 15:48:00,
2013-01-30 09:49:00,11.3,3.1,28.55,NNW,338,6.7,8.1,69,0.00,,---,0.00,VWS V14.01,2013-01-30 15:49:00,
2013-01-30 09:50:00,11.3,3.1,28.55,WNW,292,10.5,10.5,69,0.00,,---,0.00,VWS V14.01,2013-01-30 15:50:00,
2013-01-30 09:51:00,11.5,3.3,28.55,NNW,338,8.7,12.5,69,0.00,,---,0.00,VWS V14.01,2013-01-30 15:51:00,
2013-01-30 09:52:00,11.7,3.5,28.55,NW,315,12.5,12.5,69,0.00,,---,0.00,VWS V14.01,2013-01-30 15:52:00,
2013-01-30 09:53:00,11.7,3.5,28.55,North,0,10.7,12.5,69,0.00,,---,0.00,VWS V14.01,2013-01-30 15:53:00,
2013-01-30 09:54:00,11.7,3.5,28.55,NNW,338,10.3,10.7,69,0.00,,---,0.00,VWS V14.01,2013-01-30 15:54:00,
2013-01-30 09:55:00,11.7,3.5,28.55,North,0,13.2,13.2,69,0.00,,---,0.00,VWS V14.01,2013-01-30 15:55:00,
2013-01-30 09:56:00,11.7,3.5,28.55,NNW,338,12.1,13.2,69,0.00,,---,0.00,VWS V14.01,2013-01-30 15:56:00,
2013-01-30 09:57:00,11.7,3.5,28.55,NNW,338,10.7,13.2,69,0.00,,---,0.00,VWS V14.01,2013-01-30 15:57:00,
2013-01-30 09:58:00,11.7,3.5,28.55,NNW,338,7.4,10.7,69,0.00,,---,0.00,VWS V14.01,2013-01-30 15:58:00,
2013-01-30 09:59:00,11.7,3.5,28.55,NNW,338,9.8,10.7,69,0.00,,---,0.00,VWS V14.01,2013-01-30 15:59:00,
2013-01-30 10:00:00,11.7,3.5,28.55,NW,315,8.1,10.1,69,0.00,,---,0.00,VWS V14.01,2013-01-30 16:00:00,
2013-01-30 10:01:00,11.7,3.5,28.55,NW,315,5.4,10.3,69,0.00,,---,0.00,VWS V14.01,2013-01-30 16:01:00,
2013-01-30 10:02:00,11.8,3.6,28.55,NNW,338,7.8,8.5,69,0.00,,---,0.00,VWS V14.01,2013-01-30 16:02:00,
2013-01-30 10:03:00,11.8,3.6,28.55,NNW,338,8.1,12.3,69,0.00,,---,0.00,VWS V14.01,2013-01-30 16:03:00,
2013-01-30 10:04:00,11.8,3.6,28.55,NW,315,10.5,10.5,69,0.00,,---,0.00,VWS V14.01,2013-01-30 16:04:00,
2013-01-30 10:05:00,11.8,3.6,28.55,NNW,338,12.5,12.5,69,0.00,,---,0.00,VWS V14.01,2013-01-30 16:05:00,
2013-01-30 10:06:00,11.8,3.6,28.55,WNW,292,7.8,12.5,69,0.00,,---,0.00,VWS V14.01,2013-01-30 16:06:00,
2013-01-30 10:07:00,11.8,3.6,28.55,NNW,338,9.8,12.8,69,0.00,,---,0.00,VWS V14.01,2013-01-30 16:07:00,
2013-01-30 10:08:00,11.8,3.6,28.55,NNW,338,11.9,11.9,69,0.00,,---,0.00,VWS V14.01,2013-01-30 16:08:00,
2013-01-30 10:09:00,12.0,3.8,28.55,NNW,338,7.4,11.9,69,0.00,,---,0.00,VWS V14.01,2013-01-30 16:09:00,
2013-01-30 10:10:00,12.0,3.8,28.55,NNW,338,8.5,8.5,69,0.00,,---,0.00,VWS V14.01,2013-01-30 16:10:00,
2013-01-30 10:11:00,12.0,3.8,28.55,NNW,338,8.1,10.3,69,0.00,,---,0.00,VWS V14.01,2013-01-30 16:11:00,
2013-01-30 10:12:00,12.0,3.8,28.55,NNW,338,10.7,10.7,69,0.00,,---,0.00,VWS V14.01,2013-01-30 16:12:00,
2013-01-30 10:13:00,12.0,3.8,28.55,NNW,338,10.7,10.7,69,0.00,,---,0.00,VWS V14.01,2013-01-30 16:13:00,
2013-01-30 10:14:00,12.0,3.8,28.55,NNW,338,5.6,12.8,69,0.00,,---,0.00,VWS V14.01,2013-01-30 16:14:00,
2013-01-30 10:15:00,12.0,3.8,28.55,NNW,338,7.8,12.8,69,0.00,,---,0.00,VWS V14.01,2013-01-30 16:15:00,
2013-01-30 10:16:00,12.2,4.0,28.55,NNW,338,7.8,7.8,69,0.00,,---,0.00,VWS V14.01,2013-01-30 16:16:00,
2013-01-30 10:17:00,12.2,4.0,28.55,NNW,338,6.0,7.8,69,0.00,,---,0.00,VWS V14.01,2013-01-30 16:17:00,
2013-01-30 10:18:00,12.2,4.0,28.55,NW,315,12.3,12.8,69,0.00,,---,0.00,VWS V14.01,2013-01-30 16:18:00,
2013-01-30 10:19:00,12.2,4.0,28.55,WNW,292,8.5,12.3,69,0.00,,---,0.00,VWS V14.01,2013-01-30 16:19:00,
2013-01-30 10:20:00,12.2,4.0,28.55,NW,315,13.2,13.2,69,0.00,,---,0.00,VWS V14.01,2013-01-30 16:20:00,
2013-01-30 10:21:00,12.2,4.0,28.55,NW,315,7.6,13.2,69,0.00,,---,0.00,VWS V14.01,2013-01-30 16:21:00,
2013-01-30 10:22:00,12.2,4.0,28.55,NW,315,12.5,16.1,69,0.00,,---,0.00,VWS V14.01,2013-01-30 16:22:00,
2013-01-30 10:23:00,12.2,4.0,28.55,NW,315,12.8,12.8,69,0.00,,---,0.00,VWS V14.01,2013-01-30 16:23:00,
2013-01-30 10:24:00,12.2,4.0,28.55,NNW,338,12.3,14.1,69,0.00,,---,0.00,VWS V14.01,2013-01-30 16:24:00,
2013-01-30 10:25:00,12.2,4.0,28.55,NNW,338,7.8,12.5,69,0.00,,---,0.00,VWS V14.01,2013-01-30 16:25:00,
2013-01-30 10:26:00,12.2,4.0,28.55,NNW,338,6.3,9.8,69,0.00,,---,0.00,VWS V14.01,2013-01-30 16:26:00,
2013-01-30 10:27:00,12.2,4.0,28.55,NNW,338,8.7,15.9,69,0.00,,---,0.00,VWS V14.01,2013-01-30 16:27:00,
2013-01-30 10:28:00,12.2,4.0,28.55,NNW,338,7.8,12.3,69,0.00,,---,0.00,VWS V14.01,2013-01-30 16:28:00,
2013-01-30 10:29:00,12.2,4.0,28.55,NNW,338,6.9,8.1,69,0.00,,---,0.00,VWS V14.01,2013-01-30 16:29:00,
2013-01-30 10:30:00,12.2,4.0,28.55,NW,315,6.0,11.0,69,0.00,,---,0.00,VWS V14.01,2013-01-30 16:30:00,
2013-01-30 10:31:00,12.2,4.0,28.55,NW,315,7.8,11.2,69,0.00,,---,0.00,VWS V14.01,2013-01-30 16:31:00,
2013-01-30 10:32:00,12.2,4.0,28.55,NNW,338,9.8,9.8,69,0.00,,---,0.00,VWS V14.01,2013-01-30 16:32:00,
2013-01-30 10:33:00,12.4,4.2,28.55,NW,315,13.0,13.0,69,0.00,,---,0.00,VWS V14.01,2013-01-30 16:33:00,
2013-01-30 10:34:00,12.4,4.2,28.55,NNW,338,12.8,13.0,69,0.00,,---,0.00,VWS V14.01,2013-01-30 16:34:00,
2013-01-30 10:35:00,12.4,4.2,28.55,NNW,338,12.1,12.8,69,0.00,,---,0.00,VWS V14.01,2013-01-30 16:35:00,
2013-01-30 10:36:00,12.6,4.3,28.55,NW,315,6.0,12.1,69,0.00,,---,0.00,VWS V14.01,2013-01-30 16:36:00,
2013-01-30 10:37:00,12.6,4.3,28.55,NNW,338,13.0,13.0,69,0.00,,---,0.00,VWS V14.01,2013-01-30 16:37:00,
2013-01-30 10:38:00,12.6,4.3,28.55,NNW,338,8.7,13.2,69,0.00,,---,0.00,VWS V14.01,2013-01-30 16:38:00,
2013-01-30 10:39:00,12.6,4.3,28.55,NNW,338,6.5,14.5,69,0.00,,---,0.00,VWS V14.01,2013-01-30 16:39:00,
2013-01-30 10:40:00,12.6,4.3,28.55,NNW,338,6.0,10.1,69,0.00,,---,0.00,VWS V14.01,2013-01-30 16:40:00,
2013-01-30 10:41:00,12.6,4.3,28.55,NNW,338,5.6,8.5,69,0.00,,---,0.00,VWS V14.01,2013-01-30 16:41:00,
2013-01-30 10:42:00,12.7,4.5,28.55,NNW,338,7.8,10.3,69,0.00,,---,0.00,VWS V14.01,2013-01-30 16:42:00,
2013-01-30 10:43:00,12.6,4.3,28.55,NNW,338,8.7,8.7,69,0.00,,---,0.00,VWS V14.01,2013-01-30 16:43:00,
2013-01-30 10:44:00,12.6,4.3,28.55,NNW,338,10.3,13.6,69,0.00,,---,0.00,VWS V14.01,2013-01-30 16:44:00,
2013-01-30 10:45:00,12.6,4.3,28.55,NW,315,7.8,10.3,69,0.00,,---,0.00,VWS V14.01,2013-01-30 16:45:00,
2013-01-30 10:46:00,12.6,4.3,28.55,NW,315,10.3,10.3,69,0.00,,---,0.00,VWS V14.01,2013-01-30 16:46:00,
2013-01-30 10:47:00,12.7,4.5,28.55,NNE,22,10.7,10.7,69,0.00,,---,0.00,VWS V14.01,2013-01-30 16:47:00,
2013-01-30 10:48:00,12.7,4.5,28.55,NW,315,6.5,10.7,69,0.00,,---,0.00,VWS V14.01,2013-01-30 16:48:00,
2013-01-30 10:49:00,12.7,4.5,28.55,WNW,292,6.3,8.5,69,0.00,,---,0.00,VWS V14.01,2013-01-30 16:49:00,
2013-01-30 10:50:00,12.7,4.5,28.55,NNW,338,14.8,14.8,69,0.00,,---,0.00,VWS V14.01,2013-01-30 16:50:00,
2013-01-30 10:51:00,12.7,4.5,28.55,NNW,338,7.8,14.8,69,0.00,,---,0.00,VWS V14.01,2013-01-30 16:51:00,
2013-01-30 10:52:00,12.7,4.5,28.55,NNW,338,10.5,10.5,69,0.00,,---,0.00,VWS V14.01,2013-01-30 16:52:00,
2013-01-30 10:53:00,12.7,4.5,28.55,NNW,338,13.0,13.0,69,0.00,,---,0.00,VWS V14.01,2013-01-30 16:53:00,
2013-01-30 10:54:00,12.7,4.5,28.55,NNW,338,10.3,13.0,69,0.00,,---,0.00,VWS V14.01,2013-01-30 16:54:00,
2013-01-30 10:55:00,12.7,4.5,28.55,NNW,338,8.1,10.3,69,0.00,,---,0.00,VWS V14.01,2013-01-30 16:55:00,
2013-01-30 10:56:00,12.7,4.5,28.55,NNW,338,6.5,8.1,69,0.00,,---,0.00,VWS V14.01,2013-01-30 16:56:00,
2013-01-30 10:57:00,12.7,4.5,28.55,NNW,338,7.4,11.2,69,0.00,,---,0.00,VWS V14.01,2013-01-30 16:57:00,
2013-01-30 10:59:00,12.9,4.7,28.55,North,0,14.5,14.5,69,0.00,,---,0.00,VWS V14.01,2013-01-30 16:59:00,
2013-01-30 11:00:00,12.9,4.7,28.55,NW,315,10.1,14.5,69,0.00,,---,0.00,VWS V14.01,2013-01-30 17:00:00,
2013-01-30 11:01:00,13.1,4.8,28.55,NNW,338,11.0,11.0,69,0.00,,---,0.00,VWS V14.01,2013-01-30 17:01:00,
2013-01-30 11:02:00,13.1,4.8,28.55,NNW,338,6.3,11.0,69,0.00,,---,0.00,VWS V14.01,2013-01-30 17:02:00,
2013-01-30 11:03:00,13.1,4.8,28.55,WNW,292,14.8,14.8,69,0.00,,---,0.00,VWS V14.01,2013-01-30 17:03:00,
2013-01-30 11:04:00,13.1,4.8,28.55,NNW,338,10.1,14.8,69,0.00,,---,0.00,VWS V14.01,2013-01-30 17:04:00,
2013-01-30 11:05:00,13.1,4.8,28.55,NNW,338,10.1,10.3,69,0.00,,---,0.00,VWS V14.01,2013-01-30 17:05:00,
2013-01-30 11:06:00,13.1,4.8,28.55,NNW,338,10.3,10.3,69,0.00,,---,0.00,VWS V14.01,2013-01-30 17:06:00,
2013-01-30 11:08:00,13.3,5.0,28.55,NNW,338,10.1,12.8,69,0.00,,---,0.00,VWS V14.01,2013-01-30 17:08:00,
2013-01-30 11:09:00,13.3,5.0,28.55,NNW,338,12.8,13.0,69,0.00,,---,0.00,VWS V14.01,2013-01-30 17:09:00,
2013-01-30 11:10:00,13.1,4.8,28.55,NNW,338,11.9,15.9,69,0.00,,---,0.00,VWS V14.01,2013-01-30 17:10:00,
2013-01-30 11:11:00,13.1,4.8,28.55,NW,315,7.6,11.9,69,0.00,,---,0.00,VWS V14.01,2013-01-30 17:11:00,
2013-01-30 11:12:00,13.1,4.8,28.55,WNW,292,8.5,8.5,69,0.00,,---,0.00,VWS V14.01,2013-01-30 17:12:00,
2013-01-30 11:13:00,13.5,5.2,28.55,NNW,338,6.3,13.2,69,0.00,,---,0.00,VWS V14.01,2013-01-30 17:13:00,
2013-01-30 11:14:00,13.5,5.2,28.55,NNW,338,13.2,13.6,69,0.00,,---,0.00,VWS V14.01,2013-01-30 17:14:00,
2013-01-30 11:15:00,13.5,5.2,28.55,NNW,338,7.8,13.2,69,0.00,,---,0.00,VWS V14.01,2013-01-30 17:15:00,
2013-01-30 11:16:00,13.6,5.4,28.55,NNW,338,6.5,7.6,69,0.00,,---,0.00,VWS V14.01,2013-01-30 17:16:00,
2013-01-30 11:17:00,13.6,5.4,28.55,NNW,338,7.2,12.8,69,0.00,,---,0.00,VWS V14.01,2013-01-30 17:17:00,
2013-01-30 11:18:00,13.6,5.4,28.55,NNW,338,5.8,8.5,69,0.00,,---,0.00,VWS V14.01,2013-01-30 17:18:00,
2013-01-30 11:19:00,13.8,5.6,28.55,NNW,338,8.5,8.5,69,0.00,,---,0.00,VWS V14.01,2013-01-30 17:19:00,
2013-01-30 11:20:00,13.8,5.6,28.55,North,0,10.7,10.7,69,0.00,,---,0.00,VWS V14.01,2013-01-30 17:20:00,
2013-01-30 11:21:00,13.8,5.6,28.55,NNW,338,13.4,13.4,69,0.00,,---,0.00,VWS V14.01,2013-01-30 17:21:00,
2013-01-30 11:22:00,13.8,5.6,28.55,NNW,338,13.2,13.4,69,0.00,,---,0.00,VWS V14.01,2013-01-30 17:22:00,
2013-01-30 11:23:00,13.6,5.4,28.55,NNW,338,15.4,15.4,69,0.00,,---,0.00,VWS V14.01,2013-01-30 17:23:00,
2013-01-30 11:24:00,13.5,5.2,28.55,NNW,338,14.3,15.4,69,0.00,,---,0.00,VWS V14.01,2013-01-30 17:24:00,
2013-01-30 11:25:00,13.5,5.2,28.55,NNW,338,8.5,14.5,69,0.00,,---,0.00,VWS V14.01,2013-01-30 17:25:00,
2013-01-30 11:26:00,13.5,5.2,28.55,NNW,338,8.7,8.7,69,0.00,,---,0.00,VWS V14.01,2013-01-30 17:26:00,
2013-01-30 11:27:00,13.5,5.2,28.55,NW,315,7.4,10.3,69,0.00,,---,0.00,VWS V14.01,2013-01-30 17:27:00,
2013-01-30 11:28:00,13.5,5.2,28.55,NW,315,9.8,9.8,69,0.00,,---,0.00,VWS V14.01,2013-01-30 17:28:00,
2013-01-30 11:29:00,13.5,5.2,28.55,NW,315,8.1,11.0,69,0.00,,---,0.00,VWS V14.01,2013-01-30 17:29:00,
2013-01-30 11:30:00,13.6,5.4,28.55,NNW,338,8.1,13.2,69,0.00,,---,0.00,VWS V14.01,2013-01-30 17:30:00,
2013-01-30 11:31:00,13.6,5.4,28.55,NNW,338,10.1,13.0,69,0.00,,---,0.00,VWS V14.01,2013-01-30 17:31:00,
2013-01-30 11:32:00,13.6,5.4,28.55,NNW,338,9.8,14.3,69,0.00,,---,0.00,VWS V14.01,2013-01-30 17:32:00,
2013-01-30 11:33:00,13.6,5.4,28.55,NNW,338,10.5,10.5,69,0.00,,---,0.00,VWS V14.01,2013-01-30 17:33:00,
2013-01-30 11:34:00,13.6,5.4,28.55,NNE,22,10.7,13.2,69,0.00,,---,0.00,VWS V14.01,2013-01-30 17:34:00,
2013-01-30 11:35:00,13.6,5.4,28.55,NW,315,15.4,15.4,69,0.00,,---,0.00,VWS V14.01,2013-01-30 17:35:00,
2013-01-30 11:36:00,13.6,5.4,28.55,WNW,292,19.0,19.0,69,0.00,,---,0.00,VWS V14.01,2013-01-30 17:36:00,
2013-01-30 11:37:00,13.6,5.4,28.55,WNW,292,19.0,19.0,69,0.00,,---,0.00,VWS V14.01,2013-01-30 17:37:00,
2013-01-30 11:38:00,13.6,5.4,28.55,WNW,292,19.0,19.0,69,0.00,,---,0.00,VWS V14.01,2013-01-30 17:38:00,
2013-01-30 11:39:00,13.5,5.2,28.55,NW,315,12.5,19.0,69,0.00,,---,0.00,VWS V14.01,2013-01-30 17:39:00,
2013-01-30 11:40:00,13.5,5.2,28.55,NNW,338,8.1,15.4,69,0.00,,---,0.00,VWS V14.01,2013-01-30 17:40:00,
2013-01-30 11:41:00,13.5,5.2,28.55,NW,315,10.3,11.9,69,0.00,,---,0.00,VWS V14.01,2013-01-30 17:41:00,
2013-01-30 11:42:00,13.5,5.2,28.55,North,0,14.8,14.8,69,0.00,,---,0.00,VWS V14.01,2013-01-30 17:42:00,
2013-01-30 11:43:00,13.5,5.2,28.55,NW,315,11.0,14.8,69,0.00,,---,0.00,VWS V14.01,2013-01-30 17:43:00,
2013-01-30 11:44:00,13.6,5.4,28.55,NNW,338,9.8,12.1,69,0.00,,---,0.00,VWS V14.01,2013-01-30 17:44:00,
2013-01-30 11:45:00,13.5,5.2,28.55,NNW,338,7.8,13.0,69,0.00,,---,0.00,VWS V14.01,2013-01-30 17:45:00,
2013-01-30 11:46:00,13.5,5.2,28.52,NNW,338,9.4,9.4,69,0.00,,---,0.00,VWS V14.01,2013-01-30 17:46:00,
2013-01-30 11:47:00,13.6,5.4,28.52,NNW,338,11.9,11.9,69,0.00,,---,0.00,VWS V14.01,2013-01-30 17:47:00,
2013-01-30 11:48:00,13.6,5.4,28.52,North,0,15.2,15.2,69,0.00,,---,0.00,VWS V14.01,2013-01-30 17:48:00,
2013-01-30 11:49:00,13.6,5.4,28.52,WNW,292,13.0,15.2,69,0.00,,---,0.00,VWS V14.01,2013-01-30 17:49:00,
2013-01-30 11:50:00,13.6,5.4,28.52,NNW,338,9.8,13.0,69,0.00,,---,0.00,VWS V14.01,2013-01-30 17:50:00,
2013-01-30 11:51:00,13.6,5.4,28.52,WNW,292,9.8,13.2,69,0.00,,---,0.00,VWS V14.01,2013-01-30 17:51:00,
2013-01-30 11:52:00,13.6,5.4,28.52,NNW,338,8.7,13.2,69,0.00,,---,0.00,VWS V14.01,2013-01-30 17:52:00,
2013-01-30 11:53:00,13.6,5.4,28.52,WNW,292,8.1,9.6,69,0.00,,---,0.00,VWS V14.01,2013-01-30 17:53:00,
2013-01-30 11:54:00,13.6,5.4,28.52,NNW,338,11.4,11.4,69,0.00,,---,0.00,VWS V14.01,2013-01-30 17:54:00,
2013-01-30 11:55:00,13.6,5.4,28.52,NNW,338,10.5,12.8,69,0.00,,---,0.00,VWS V14.01,2013-01-30 17:55:00,
2013-01-30 11:56:00,13.8,5.6,28.52,NNW,338,8.5,8.7,69,0.00,,---,0.00,VWS V14.01,2013-01-30 17:56:00,
2013-01-30 11:57:00,14.0,3.0,28.52,NNW,338,10.1,11.0,61,0.00,,---,0.00,VWS V14.01,2013-01-30 17:57:00,
2013-01-30 11:58:00,14.0,3.0,28.52,NNW,338,8.5,12.5,61,0.00,,---,0.00,VWS V14.01,2013-01-30 17:58:00,
2013-01-30 11:59:00,14.0,2.7,28.52,NNW,338,17.7,19.2,60,0.00,,---,0.00,VWS V14.01,2013-01-30 17:59:00,
2013-01-30 12:00:00,14.0,2.7,28.52,NNW,338,6.5,19.0,60,0.00,,---,0.00,VWS V14.01,2013-01-30 18:00:00,
2013-01-30 12:01:00,14.0,2.3,28.55,NW,315,13.9,13.9,59,0.00,,---,0.00,VWS V14.01,2013-01-30 18:01:00,
2013-01-30 12:02:00,13.8,2.2,28.55,WNW,292,13.2,13.9,59,0.00,,---,0.00,VWS V14.01,2013-01-30 18:02:00,
2013-01-30 12:03:00,13.8,2.2,28.55,NW,315,9.0,13.2,59,0.00,,---,0.00,VWS V14.01,2013-01-30 18:03:00,
2013-01-30 12:04:00,13.8,2.2,28.55,NW,315,8.5,13.0,59,0.00,,---,0.00,VWS V14.01,2013-01-30 18:04:00,
2013-01-30 12:05:00,13.8,2.5,28.55,NNE,22,13.6,14.8,60,0.00,,---,0.00,VWS V14.01,2013-01-30 18:05:00,
2013-01-30 12:06:00,13.8,2.5,28.55,North,0,10.3,10.7,60,0.00,,---,0.00,VWS V14.01,2013-01-30 18:06:00,
2013-01-30 12:07:00,13.8,2.5,28.55,WNW,292,12.1,12.1,60,0.00,,---,0.00,VWS V14.01,2013-01-30 18:07:00,
2013-01-30 12:08:00,13.8,2.5,28.55,NNW,338,10.5,12.1,60,0.00,,---,0.00,VWS V14.01,2013-01-30 18:08:00,
2013-01-30 12:09:00,13.8,2.5,28.55,NNW,338,13.0,20.4,60,0.00,,---,0.00,VWS V14.01,2013-01-30 18:09:00,
2013-01-30 12:10:00,13.8,2.5,28.55,NNW,338,13.0,13.0,60,0.00,,---,0.00,VWS V14.01,2013-01-30 18:10:00,
2013-01-30 12:11:00,13.8,2.5,28.55,NW,315,9.8,13.2,60,0.00,,---,0.00,VWS V14.01,2013-01-30 18:11:00,
2013-01-30 12:12:00,13.8,2.5,28.55,North,0,13.0,13.2,60,0.00,,---,0.00,VWS V14.01,2013-01-30 18:12:00,
2013-01-30 12:13:00,13.8,2.5,28.55,NNW,338,11.0,16.1,60,0.00,,---,0.00,VWS V14.01,2013-01-30 18:13:00,
2013-01-30 12:14:00,13.8,2.5,28.55,NNW,338,10.7,11.4,60,0.00,,---,0.00,VWS V14.01,2013-01-30 18:14:00,
2013-01-30 12:15:00,14.0,2.7,28.55,NNE,22,12.5,14.3,60,0.00,,---,0.00,VWS V14.01,2013-01-30 18:15:00,
2013-01-30 12:16:00,14.2,2.5,28.55,WNW,292,13.2,19.2,59,0.00,,---,0.00,VWS V14.01,2013-01-30 18:16:00,
2013-01-30 12:17:00,14.2,2.5,28.55,NNW,338,11.0,19.2,59,0.00,,---,0.00,VWS V14.01,2013-01-30 18:17:00,
2013-01-30 12:18:00,14.2,2.1,28.55,NNW,338,14.1,14.1,58,0.00,,---,0.00,VWS V14.01,2013-01-30 18:18:00,
2013-01-30 12:19:00,14.0,2.3,28.55,NNW,338,9.4,15.9,59,0.00,,---,0.00,VWS V14.01,2013-01-30 18:19:00,
2013-01-30 12:20:00,14.0,2.3,28.55,NW,315,7.6,13.0,59,0.00,,---,0.00,VWS V14.01,2013-01-30 18:20:00,
2013-01-30 12:21:00,14.0,2.3,28.55,NNW,338,12.1,13.9,59,0.00,,---,0.00,VWS V14.01,2013-01-30 18:21:00,
2013-01-30 12:22:00,14.0,2.0,28.55,NNW,338,6.5,12.1,58,0.00,,---,0.00,VWS V14.01,2013-01-30 18:22:00,
2013-01-30 12:23:00,14.2,2.1,28.55,North,0,10.5,13.0,58,0.00,,---,0.00,VWS V14.01,2013-01-30 18:23:00,
2013-01-30 12:24:00,14.2,2.5,28.55,NNW,338,12.1,12.1,59,0.00,,---,0.00,VWS V14.01,2013-01-30 18:24:00,
2013-01-30 12:25:00,14.4,2.7,28.55,NNW,338,12.3,12.3,59,0.00,,---,0.00,VWS V14.01,2013-01-30 18:25:00,
2013-01-30 12:26:00,14.4,2.7,28.55,NW,315,8.1,12.5,59,0.00,,---,0.00,VWS V14.01,2013-01-30 18:26:00,
2013-01-30 12:27:00,14.4,2.7,28.55,NW,315,8.7,8.7,59,0.00,,---,0.00,VWS V14.01,2013-01-30 18:27:00,
2013-01-30 12:28:00,14.5,2.5,28.55,NW,315,8.1,15.2,58,0.00,,---,0.00,VWS V14.01,2013-01-30 18:28:00,
2013-01-30 12:29:00,14.5,2.8,28.55,NNW,338,10.7,10.7,59,0.00,,---,0.00,VWS V14.01,2013-01-30 18:29:00,
2013-01-30 12:30:00,14.7,3.0,28.55,NW,315,14.3,16.6,59,0.00,,---,0.00,VWS V14.01,2013-01-30 18:30:00,
2013-01-30 12:31:00,14.9,3.2,28.55,NNW,338,15.2,15.2,59,0.00,,---,0.00,VWS V14.01,2013-01-30 18:31:00,
2013-01-30 12:32:00,14.9,3.2,28.55,WNW,292,12.3,15.2,59,0.00,,---,0.00,VWS V14.01,2013-01-30 18:32:00,
2013-01-30 12:33:00,14.9,3.2,28.55,NW,315,6.3,14.5,59,0.00,,---,0.00,VWS V14.01,2013-01-30 18:33:00,
2013-01-30 12:34:00,14.9,3.2,28.55,NNW,338,6.3,6.3,59,0.00,,---,0.00,VWS V14.01,2013-01-30 18:34:00,
2013-01-30 12:35:00,14.9,3.2,28.55,NW,315,12.5,12.5,59,0.00,,---,0.00,VWS V14.01,2013-01-30 18:35:00,
2013-01-30 12:36:00,14.9,3.2,28.55,NW,315,10.5,14.8,59,0.00,,---,0.00,VWS V14.01,2013-01-30 18:36:00,
2013-01-30 12:37:00,14.9,3.2,28.55,NNW,338,14.8,17.2,59,0.00,,---,0.00,VWS V14.01,2013-01-30 18:37:00,
2013-01-30 12:38:00,14.9,3.2,28.55,WNW,292,7.8,9.8,59,0.00,,---,0.00,VWS V14.01,2013-01-30 18:38:00,
2013-01-30 12:39:00,14.9,3.2,28.55,NNW,338,5.6,7.8,59,0.00,,---,0.00,VWS V14.01,2013-01-30 18:39:00,
2013-01-30 12:40:00,15.1,3.7,28.55,NW,315,16.6,16.6,60,0.00,,---,0.00,VWS V14.01,2013-01-30 18:40:00,
2013-01-30 12:41:00,15.1,3.7,28.55,NW,315,12.1,16.6,60,0.00,,---,0.00,VWS V14.01,2013-01-30 18:41:00,
2013-01-30 12:42:00,15.3,3.9,28.55,WNW,292,17.0,17.0,60,0.00,,---,0.00,VWS V14.01,2013-01-30 18:42:00,
2013-01-30 12:43:00,15.3,3.5,28.55,NNW,338,10.7,17.0,59,0.00,,---,0.00,VWS V14.01,2013-01-30 18:43:00,
2013-01-30 12:44:00,15.1,3.3,28.55,NNW,338,10.1,11.2,59,0.00,,---,0.00,VWS V14.01,2013-01-30 18:44:00,
2013-01-30 12:46:00,15.1,3.3,28.55,NNW,338,7.8,10.1,59,0.00,,---,0.00,VWS V14.01,2013-01-30 18:46:00,
2013-01-30 12:47:00,15.1,3.3,28.55,NNW,338,10.7,10.7,59,0.00,,---,0.00,VWS V14.01,2013-01-30 18:47:00,
2013-01-30 12:48:00,15.3,3.5,28.55,NW,315,11.0,11.0,59,0.00,,---,0.00,VWS V14.01,2013-01-30 18:48:00,
2013-01-30 12:49:00,15.3,3.5,28.55,NW,315,12.8,14.8,59,0.00,,---,0.00,VWS V14.01,2013-01-30 18:49:00,
2013-01-30 12:50:00,15.3,3.5,28.55,NNW,338,10.5,13.0,59,0.00,,---,0.00,VWS V14.01,2013-01-30 18:50:00,
2013-01-30 12:51:00,15.3,3.5,28.55,NNW,338,9.8,11.0,59,0.00,,---,0.00,VWS V14.01,2013-01-30 18:51:00,
2013-01-30 12:52:00,15.3,3.5,28.55,NW,315,20.8,20.8,59,0.00,,---,0.00,VWS V14.01,2013-01-30 18:52:00,
2013-01-30 12:53:00,15.3,3.2,28.55,WNW,292,18.6,18.6,58,0.00,,---,0.00,VWS V14.01,2013-01-30 18:53:00,
2013-01-30 12:54:00,15.1,3.3,28.55,NNW,338,8.5,18.6,59,0.00,,---,0.00,VWS V14.01,2013-01-30 18:54:00,
2013-01-30 12:55:00,15.1,3.3,28.55,NW,315,15.2,15.2,59,0.00,,---,0.00,VWS V14.01,2013-01-30 18:55:00,
2013-01-30 12:56:00,15.1,3.3,28.55,NW,315,15.2,15.2,59,0.00,,---,0.00,VWS V14.01,2013-01-30 18:56:00,
2013-01-30 12:57:00,15.1,3.7,28.55,WNW,292,13.2,15.2,60,0.00,,---,0.00,VWS V14.01,2013-01-30 18:57:00,
2013-01-30 12:58:00,15.1,3.7,28.55,WNW,292,13.2,13.2,60,0.00,,---,0.00,VWS V14.01,2013-01-30 18:58:00,
2013-01-30 12:59:00,15.1,3.3,28.55,NNW,338,10.7,16.1,59,0.00,,---,0.00,VWS V14.01,2013-01-30 18:59:00,
2013-01-30 13:00:00,15.1,3.3,28.55,NW,315,10.1,10.7,59,0.00,,---,0.00,VWS V14.01,2013-01-30 19:00:00,
2013-01-30 13:01:00,15.1,3.3,28.55,WNW,292,8.1,11.0,59,0.00,,---,0.00,VWS V14.01,2013-01-30 19:01:00,
2013-01-30 13:02:00,15.1,3.7,28.55,WSW,248,14.8,14.8,60,0.00,,---,0.00,VWS V14.01,2013-01-30 19:02:00,
2013-01-30 13:03:00,15.1,3.7,28.55,NW,315,14.8,14.8,60,0.00,,---,0.00,VWS V14.01,2013-01-30 19:03:00,
2013-01-30 13:04:00,14.9,3.5,28.55,West,270,15.2,15.2,60,0.00,,---,0.00,VWS V14.01,2013-01-30 19:04:00,
2013-01-30 13:05:00,14.9,3.5,28.55,WNW,292,16.1,16.1,60,0.00,,---,0.00,VWS V14.01,2013-01-30 19:05:00,
2013-01-30 13:06:00,14.9,3.5,28.55,NNW,338,12.1,16.1,60,0.00,,---,0.00,VWS V14.01,2013-01-30 19:06:00,
2013-01-30 13:07:00,14.7,3.4,28.55,WNW,292,16.8,16.8,60,0.00,,---,0.00,VWS V14.01,2013-01-30 19:07:00,
2013-01-30 13:08:00,14.5,3.2,28.55,NNW,338,15.2,16.8,60,0.00,,---,0.00,VWS V14.01,2013-01-30 19:08:00,
2013-01-30 13:09:00,14.5,3.5,28.55,NNW,338,13.0,15.2,61,0.00,,---,0.00,VWS V14.01,2013-01-30 19:09:00,
2013-01-30 13:10:00,14.5,3.5,28.55,NNW,338,12.8,14.3,61,0.00,,---,0.00,VWS V14.01,2013-01-30 19:10:00,
2013-01-30 13:11:00,14.4,3.4,28.55,WNW,292,17.2,17.7,61,0.00,,---,0.00,VWS V14.01,2013-01-30 19:11:00,
2013-01-30 13:12:00,14.2,3.2,28.55,NNW,338,14.1,17.7,61,0.00,,---,0.00,VWS V14.01,2013-01-30 19:12:00,
2013-01-30 13:13:00,14.2,3.2,28.55,WNW,292,11.9,14.1,61,0.00,,---,0.00,VWS V14.01,2013-01-30 19:13:00,
2013-01-30 13:14:00,14.2,3.2,28.55,NNW,338,10.3,19.5,61,0.00,,---,0.00,VWS V14.01,2013-01-30 19:14:00,
2013-01-30 13:15:00,14.2,3.2,28.55,WNW,292,14.8,14.8,61,0.00,,---,0.00,VWS V14.01,2013-01-30 19:15:00,
2013-01-30 13:16:00,14.2,3.2,28.55,NW,315,8.7,14.8,61,0.00,,---,0.00,VWS V14.01,2013-01-30 19:16:00,
2013-01-30 13:17:00,14.2,3.2,28.55,WNW,292,10.7,14.8,61,0.00,,---,0.00,VWS V14.01,2013-01-30 19:17:00,
2013-01-30 13:18:00,13.8,3.2,28.55,WNW,292,14.8,20.4,62,0.00,,---,0.00,VWS V14.01,2013-01-30 19:18:00,
2013-01-30 13:19:00,13.8,3.2,28.55,NW,315,19.9,23.3,62,0.00,,---,0.00,VWS V14.01,2013-01-30 19:19:00,
2013-01-30 13:20:00,13.6,3.0,28.55,NW,315,14.8,19.9,62,0.00,,---,0.00,VWS V14.01,2013-01-30 19:20:00,
2013-01-30 13:21:00,13.6,3.0,28.55,NW,315,16.6,16.6,62,0.00,,---,0.00,VWS V14.01,2013-01-30 19:21:00,
2013-01-30 13:22:00,13.6,3.0,28.55,WNW,292,16.1,17.2,62,0.00,,---,0.00,VWS V14.01,2013-01-30 19:22:00,
2013-01-30 13:23:00,13.5,2.9,28.55,NNW,338,12.8,19.7,62,0.00,,---,0.00,VWS V14.01,2013-01-30 19:23:00,
2013-01-30 13:24:00,13.5,2.9,28.55,NW,315,19.2,20.6,62,0.00,,---,0.00,VWS V14.01,2013-01-30 19:24:00,
2013-01-30 13:25:00,13.5,2.9,28.55,NW,315,13.0,19.2,62,0.00,,---,0.00,VWS V14.01,2013-01-30 19:25:00,
2013-01-30 13:26:00,13.5,2.9,28.55,NW,315,13.0,19.2,62,0.00,,---,0.00,VWS V14.01,2013-01-30 19:26:00,
2013-01-30 13:27:00,13.5,2.9,28.55,WNW,292,10.7,17.0,62,0.00,,---,0.00,VWS V14.01,2013-01-30 19:27:00,
2013-01-30 13:28:00,13.3,2.7,28.55,WSW,248,19.9,20.4,62,0.00,,---,0.00,VWS V14.01,2013-01-30 19:28:00,
2013-01-30 13:29:00,13.3,2.7,28.55,NNW,338,15.4,22.8,62,0.00,,---,0.00,VWS V14.01,2013-01-30 19:29:00,
2013-01-30 13:30:00,13.3,2.7,28.55,NNW,338,15.4,17.5,62,0.00,,---,0.00,VWS V14.01,2013-01-30 19:30:00,
2013-01-30 13:31:00,13.3,2.7,28.55,WNW,292,17.2,20.6,62,0.00,,---,0.00,VWS V14.01,2013-01-30 19:31:00,
2013-01-30 13:32:00,13.3,2.7,28.55,NW,315,21.9,22.4,62,0.00,,---,0.00,VWS V14.01,2013-01-30 19:32:00,
2013-01-30 13:33:00,12.9,2.4,28.55,NNW,338,17.0,23.0,62,0.00,,---,0.00,VWS V14.01,2013-01-30 19:33:00,
2013-01-30 13:34:00,12.9,2.4,28.55,NW,315,10.5,22.2,62,0.00,,---,0.00,VWS V14.01,2013-01-30 19:34:00,
2013-01-30 13:35:00,12.9,2.4,28.55,NNW,338,19.0,19.0,62,0.00,,---,0.00,VWS V14.01,2013-01-30 19:35:00,
2013-01-30 13:36:00,12.9,2.4,28.55,WNW,292,15.7,19.0,62,0.00,,---,0.00,VWS V14.01,2013-01-30 19:36:00,
2013-01-30 13:37:00,12.9,2.4,28.55,WNW,292,13.6,15.7,62,0.00,,---,0.00,VWS V14.01,2013-01-30 19:37:00,
2013-01-30 13:38:00,12.9,2.4,28.55,NW,315,16.6,20.1,62,0.00,,---,0.00,VWS V14.01,2013-01-30 19:38:00,
2013-01-30 13:39:00,12.9,2.4,28.55,NW,315,16.6,16.6,62,0.00,,---,0.00,VWS V14.01,2013-01-30 19:39:00,
2013-01-30 13:40:00,12.9,2.4,28.55,WNW,292,13.9,16.6,62,0.00,,---,0.00,VWS V14.01,2013-01-30 19:40:00,
2013-01-30 13:41:00,12.7,2.2,28.55,WNW,292,13.2,19.9,62,0.00,,---,0.00,VWS V14.01,2013-01-30 19:41:00,
2013-01-30 13:42:00,12.7,2.2,28.55,NW,315,15.4,17.5,62,0.00,,---,0.00,VWS V14.01,2013-01-30 19:42:00,
2013-01-30 13:43:00,12.7,2.2,28.55,NW,315,26.6,26.6,62,0.00,,---,0.00,VWS V14.01,2013-01-30 19:43:00,
2013-01-30 13:44:00,12.7,2.2,28.55,WNW,292,20.8,26.6,62,0.00,,---,0.00,VWS V14.01,2013-01-30 19:44:00,
2013-01-30 13:45:00,12.7,2.2,28.55,NNW,338,15.4,20.8,62,0.00,,---,0.00,VWS V14.01,2013-01-30 19:45:00,
2013-01-30 13:46:00,12.7,2.2,28.55,WNW,292,17.7,22.4,62,0.00,,---,0.00,VWS V14.01,2013-01-30 19:46:00,
2013-01-30 13:47:00,12.7,2.2,28.52,NW,315,19.2,22.6,62,0.00,,---,0.00,VWS V14.01,2013-01-30 19:47:00,
2013-01-30 13:48:00,12.7,2.2,28.52,WNW,292,19.2,20.4,62,0.00,,---,0.00,VWS V14.01,2013-01-30 19:48:00,
2013-01-30 13:49:00,12.7,2.2,28.52,NNW,338,16.1,21.9,62,0.00,,---,0.00,VWS V14.01,2013-01-30 19:49:00,
2013-01-30 13:50:00,12.7,2.2,28.52,NNW,338,8.7,16.1,62,0.00,,---,0.00,VWS V14.01,2013-01-30 19:50:00,
2013-01-30 13:51:00,12.7,2.2,28.52,NNW,338,8.7,8.7,62,0.00,,---,0.00,VWS V14.01,2013-01-30 19:51:00,
2013-01-30 13:52:00,12.9,2.4,28.52,NNW,338,11.9,11.9,62,0.00,,---,0.00,VWS V14.01,2013-01-30 19:52:00,
2013-01-30 13:53:00,12.9,2.4,28.52,NNW,338,11.0,11.0,62,0.00,,---,0.00,VWS V14.01,2013-01-30 19:53:00,
2013-01-30 13:54:00,12.7,2.2,28.52,NW,315,15.2,15.2,62,0.00,,---,0.00,VWS V14.01,2013-01-30 19:54:00,
2013-01-30 13:55:00,12.7,2.2,28.52,NW,315,12.8,17.0,62,0.00,,---,0.00,VWS V14.01,2013-01-30 19:55:00,
2013-01-30 13:56:00,12.9,2.4,28.52,NNW,338,18.1,18.1,62,0.00,,---,0.00,VWS V14.01,2013-01-30 19:56:00,
2013-01-30 13:57:00,12.9,2.4,28.52,NW,315,19.5,21.0,62,0.00,,---,0.00,VWS V14.01,2013-01-30 19:57:00,
2013-01-30 13:58:00,12.9,2.4,28.52,NW,315,11.0,19.5,62,0.00,,---,0.00,VWS V14.01,2013-01-30 19:58:00,
2013-01-30 13:59:00,12.9,2.4,28.52,NNW,338,7.8,11.0,62,0.00,,---,0.00,VWS V14.01,2013-01-30 19:59:00,
2013-01-30 14:00:00,13.1,2.5,28.52,NNW,338,13.4,17.7,62,0.00,,---,0.00,VWS V14.01,2013-01-30 20:00:00,
2013-01-30 14:01:00,12.9,2.4,28.52,NNW,338,15.2,20.4,62,0.00,,---,0.00,VWS V14.01,2013-01-30 20:01:00,
2013-01-30 14:02:00,12.9,2.4,28.52,NW,315,10.3,10.3,62,0.00,,---,0.00,VWS V14.01,2013-01-30 20:02:00,
2013-01-30 14:03:00,12.9,2.4,28.52,North,0,14.1,15.4,62,0.00,,---,0.00,VWS V14.01,2013-01-30 20:03:00,
2013-01-30 14:04:00,12.9,2.4,28.52,NNW,338,13.2,20.6,62,0.00,,---,0.00,VWS V14.01,2013-01-30 20:04:00,
2013-01-30 14:05:00,12.7,2.2,28.52,NW,315,22.6,22.6,62,0.00,,---,0.00,VWS V14.01,2013-01-30 20:05:00,
2013-01-30 14:06:00,12.7,2.2,28.52,NW,315,12.5,22.6,62,0.00,,---,0.00,VWS V14.01,2013-01-30 20:06:00,
2013-01-30 14:07:00,12.4,1.9,28.52,NNW,338,17.7,17.7,62,0.00,,---,0.00,VWS V14.01,2013-01-30 20:07:00,
2013-01-30 14:08:00,12.2,1.7,28.52,NNW,338,13.0,17.7,62,0.00,,---,0.00,VWS V14.01,2013-01-30 20:08:00,
2013-01-30 14:09:00,12.4,1.9,28.52,NNW,338,9.0,13.0,62,0.00,,---,0.00,VWS V14.01,2013-01-30 20:09:00,
2013-01-30 14:10:00,12.4,1.9,28.52,NNW,338,17.7,17.7,62,0.00,,---,0.00,VWS V14.01,2013-01-30 20:10:00,
2013-01-30 14:11:00,12.2,1.7,28.52,North,0,11.9,17.9,62,0.00,,---,0.00,VWS V14.01,2013-01-30 20:11:00,
2013-01-30 14:12:00,12.2,1.7,28.52,WNW,292,12.5,21.9,62,0.00,,---,0.00,VWS V14.01,2013-01-30 20:12:00,
2013-01-30 14:13:00,12.4,1.9,28.52,NNW,338,11.0,15.4,62,0.00,,---,0.00,VWS V14.01,2013-01-30 20:13:00,
2013-01-30 14:14:00,12.2,1.7,28.52,NNW,338,13.6,13.6,62,0.00,,---,0.00,VWS V14.01,2013-01-30 20:14:00,
2013-01-30 14:15:00,12.2,1.7,28.52,NNW,338,13.6,13.6,62,0.00,,---,0.00,VWS V14.01,2013-01-30 20:15:00,
2013-01-30 14:16:00,12.6,2.0,28.52,North,0,18.6,18.6,62,0.00,,---,0.00,VWS V14.01,2013-01-30 20:16:00,
2013-01-30 14:17:00,12.6,2.0,28.52,NW,315,12.3,12.3,62,0.00,,---,0.00,VWS V14.01,2013-01-30 20:17:00,
2013-01-30 14:18:00,12.6,2.0,28.52,NNW,338,14.8,16.8,62,0.00,,---,0.00,VWS V14.01,2013-01-30 20:18:00,
2013-01-30 14:19:00,12.6,2.0,28.52,NNW,338,10.5,15.7,62,0.00,,---,0.00,VWS V14.01,2013-01-30 20:19:00,
2013-01-30 14:20:00,12.6,2.0,28.52,NNW,338,16.6,22.2,62,0.00,,---,0.00,VWS V14.01,2013-01-30 20:20:00,
2013-01-30 14:21:00,12.6,2.0,28.52,NW,315,13.2,16.6,62,0.00,,---,0.00,VWS V14.01,2013-01-30 20:21:00,
2013-01-30 14:22:00,12.6,2.0,28.52,NNW,338,12.3,13.4,62,0.00,,---,0.00,VWS V14.01,2013-01-30 20:22:00,
2013-01-30 14:23:00,12.6,2.0,28.52,NNW,338,11.2,16.6,62,0.00,,---,0.00,VWS V14.01,2013-01-30 20:23:00,
2013-01-30 14:24:00,12.6,2.0,28.52,NW,315,7.8,11.2,62,0.00,,---,0.00,VWS V14.01,2013-01-30 20:24:00,
2013-01-30 14:25:00,12.7,2.2,28.52,NNW,338,10.5,16.8,62,0.00,,---,0.00,VWS V14.01,2013-01-30 20:25:00,
2013-01-30 14:26:00,12.7,2.2,28.52,NW,315,13.0,15.2,62,0.00,,---,0.00,VWS V14.01,2013-01-30 20:26:00,
2013-01-30 14:27:00,12.7,2.2,28.52,NW,315,19.2,19.2,62,0.00,,---,0.00,VWS V14.01,2013-01-30 20:27:00,
2013-01-30 14:28:00,12.6,2.0,28.52,NW,315,17.0,19.2,62,0.00,,---,0.00,VWS V14.01,2013-01-30 20:28:00,
2013-01-30 14:29:00,12.6,2.0,28.52,NNW,338,17.7,17.7,62,0.00,,---,0.00,VWS V14.01,2013-01-30 20:29:00,
2013-01-30 14:30:00,12.6,2.0,28.52,NW,315,17.9,18.1,62,0.00,,---,0.00,VWS V14.01,2013-01-30 20:30:00,
2013-01-30 14:31:00,12.4,1.9,28.52,NW,315,10.5,22.6,62,0.00,,---,0.00,VWS V14.01,2013-01-30 20:31:00,
2013-01-30 14:32:00,12.2,1.7,28.52,WNW,292,12.1,22.6,62,0.00,,---,0.00,VWS V14.01,2013-01-30 20:32:00,
2013-01-30 14:33:00,12.2,1.7,28.52,NW,315,17.7,17.7,62,0.00,,---,0.00,VWS V14.01,2013-01-30 20:33:00,
2013-01-30 14:34:00,12.4,1.9,28.52,NNW,338,13.0,17.7,62,0.00,,---,0.00,VWS V14.01,2013-01-30 20:34:00,
2013-01-30 14:35:00,12.4,1.9,28.52,WNW,292,14.5,15.4,62,0.00,,---,0.00,VWS V14.01,2013-01-30 20:35:00,
2013-01-30 14:36:00,12.4,1.9,28.52,WNW,292,10.1,14.5,62,0.00,,---,0.00,VWS V14.01,2013-01-30 20:36:00,
2013-01-30 14:37:00,12.2,1.7,28.52,NNW,338,10.5,10.5,62,0.00,,---,0.00,VWS V14.01,2013-01-30 20:37:00,
2013-01-30 14:38:00,12.4,1.9,28.52,NW,315,13.6,17.5,62,0.00,,---,0.00,VWS V14.01,2013-01-30 20:38:00,
2013-01-30 14:39:00,12.4,1.9,28.52,NNW,338,10.5,15.4,62,0.00,,---,0.00,VWS V14.01,2013-01-30 20:39:00,
2013-01-30 14:40:00,12.4,1.9,28.52,NNW,338,13.0,13.0,62,0.00,,---,0.00,VWS V14.01,2013-01-30 20:40:00,
2013-01-30 14:41:00,12.4,1.9,28.52,NNW,338,10.3,15.4,62,0.00,,---,0.00,VWS V14.01,2013-01-30 20:41:00,
2013-01-30 14:42:00,12.4,1.9,28.52,NNW,338,7.6,8.1,62,0.00,,---,0.00,VWS V14.01,2013-01-30 20:42:00,
2013-01-30 14:43:00,12.6,2.0,28.52,NNW,338,15.4,15.4,62,0.00,,---,0.00,VWS V14.01,2013-01-30 20:43:00,
2013-01-30 14:44:00,12.4,1.9,28.52,WNW,292,10.5,15.4,62,0.00,,---,0.00,VWS V14.01,2013-01-30 20:44:00,
2013-01-30 14:45:00,12.4,1.9,28.52,NW,315,10.5,10.5,62,0.00,,---,0.00,VWS V14.01,2013-01-30 20:45:00,
2013-01-30 14:46:00,12.4,1.9,28.52,WNW,292,17.7,17.7,62,0.00,,---,0.00,VWS V14.01,2013-01-30 20:46:00,
2013-01-30 14:47:00,12.4,1.9,28.52,NW,315,22.4,22.4,62,0.00,,---,0.00,VWS V14.01,2013-01-30 20:47:00,
2013-01-30 14:48:00,12.4,1.9,28.52,NNW,338,25.5,25.5,62,0.00,,---,0.00,VWS V14.01,2013-01-30 20:48:00,
2013-01-30 14:49:00,12.0,1.5,28.52,NNW,338,17.0,25.5,62,0.00,,---,0.00,VWS V14.01,2013-01-30 20:49:00,
2013-01-30 14:50:00,12.0,1.5,28.52,NNE,22,17.9,21.5,62,0.00,,---,0.00,VWS V14.01,2013-01-30 20:50:00,
2013-01-30 14:51:00,12.0,1.5,28.52,NNW,338,17.7,20.4,62,0.00,,---,0.00,VWS V14.01,2013-01-30 20:51:00,
2013-01-30 14:52:00,12.0,1.5,28.52,NNW,338,17.5,18.1,62,0.00,,---,0.00,VWS V14.01,2013-01-30 20:52:00,
2013-01-30 14:53:00,12.0,1.5,28.52,WNW,292,25.1,25.1,62,0.00,,---,0.00,VWS V14.01,2013-01-30 20:53:00,
2013-01-30 14:54:00,12.0,1.5,28.52,NNW,338,19.0,25.1,62,0.00,,---,0.00,VWS V14.01,2013-01-30 20:54:00,
2013-01-30 14:55:00,12.0,1.5,28.52,NNW,338,14.8,21.3,62,0.00,,---,0.00,VWS V14.01,2013-01-30 20:55:00,
2013-01-30 14:56:00,12.0,1.5,28.52,NNW,338,14.8,14.8,62,0.00,,---,0.00,VWS V14.01,2013-01-30 20:56:00,
2013-01-30 14:57:00,11.8,1.3,28.52,NNW,338,10.7,17.0,62,0.00,,---,0.00,VWS V14.01,2013-01-30 20:57:00,
2013-01-30 14:58:00,11.8,1.3,28.52,NNW,338,10.3,17.0,62,0.00,,---,0.00,VWS V14.01,2013-01-30 20:58:00,
2013-01-30 14:59:00,11.8,1.3,28.52,WNW,292,11.2,14.3,62,0.00,,---,0.00,VWS V14.01,2013-01-30 20:59:00,
2013-01-30 15:00:00,11.8,1.3,28.52,NW,315,9.0,17.5,62,0.00,,---,0.00,VWS V14.01,2013-01-30 21:00:00,
2013-01-30 15:01:00,11.8,1.3,28.52,NNW,338,8.5,10.7,62,0.00,,---,0.00,VWS V14.01,2013-01-30 21:01:00,
2013-01-30 15:02:00,11.8,1.3,28.55,NNW,338,12.3,12.3,62,0.00,,---,0.00,VWS V14.01,2013-01-30 21:02:00,
2013-01-30 15:03:00,11.8,1.3,28.55,NW,315,15.4,15.4,62,0.00,,---,0.00,VWS V14.01,2013-01-30 21:03:00,
2013-01-30 15:04:00,11.7,1.2,28.55,NW,315,10.3,15.4,62,0.00,,---,0.00,VWS V14.01,2013-01-30 21:04:00,
2013-01-30 15:05:00,11.7,1.2,28.55,WNW,292,16.8,17.5,62,0.00,,---,0.00,VWS V14.01,2013-01-30 21:05:00,
2013-01-30 15:06:00,11.7,1.2,28.55,WNW,292,16.8,16.8,62,0.00,,---,0.00,VWS V14.01,2013-01-30 21:06:00,
2013-01-30 15:07:00,11.8,1.3,28.55,NNW,338,13.0,13.2,62,0.00,,---,0.00,VWS V14.01,2013-01-30 21:07:00,
2013-01-30 15:08:00,11.8,1.3,28.55,WNW,292,11.0,13.2,62,0.00,,---,0.00,VWS V14.01,2013-01-30 21:08:00,
2013-01-30 15:09:00,11.8,1.3,28.55,NW,315,10.3,11.0,62,0.00,,---,0.00,VWS V14.01,2013-01-30 21:09:00,
2013-01-30 15:10:00,11.8,1.3,28.55,NNW,338,9.8,13.0,62,0.00,,---,0.00,VWS V14.01,2013-01-30 21:10:00,
2013-01-30 15:11:00,11.8,1.3,28.55,NNW,338,17.2,22.6,62,0.00,,---,0.00,VWS V14.01,2013-01-30 21:11:00,
2013-01-30 15:12:00,11.7,1.2,28.55,NNW,338,13.2,13.2,62,0.00,,---,0.00,VWS V14.01,2013-01-30 21:12:00,
2013-01-30 15:13:00,11.7,1.2,28.55,NW,315,17.0,19.5,62,0.00,,---,0.00,VWS V14.01,2013-01-30 21:13:00,
2013-01-30 15:14:00,11.7,1.2,28.55,North,0,10.5,19.7,62,0.00,,---,0.00,VWS V14.01,2013-01-30 21:14:00,
2013-01-30 15:15:00,11.7,1.2,28.55,NW,315,15.4,15.4,62,0.00,,---,0.00,VWS V14.01,2013-01-30 21:15:00,
2013-01-30 15:16:00,11.7,1.2,28.55,NW,315,14.5,15.4,62,0.00,,---,0.00,VWS V14.01,2013-01-30 21:16:00,
2013-01-30 15:17:00,11.7,1.2,28.55,NNW,338,12.5,12.5,62,0.00,,---,0.00,VWS V14.01,2013-01-30 21:17:00,
2013-01-30 15:18:00,11.7,1.2,28.55,West,270,13.4,17.0,62,0.00,,---,0.00,VWS V14.01,2013-01-30 21:18:00,
2013-01-30 15:19:00,11.7,1.2,28.55,NNW,338,13.6,14.8,62,0.00,,---,0.00,VWS V14.01,2013-01-30 21:19:00,
2013-01-30 15:20:00,11.5,1.0,28.55,NW,315,15.4,22.4,62,0.00,,---,0.00,VWS V14.01,2013-01-30 21:20:00,
2013-01-30 15:21:00,11.5,1.0,28.55,NNW,338,11.0,18.6,62,0.00,,---,0.00,VWS V14.01,2013-01-30 21:21:00,
2013-01-30 15:22:00,11.5,1.0,28.55,NW,315,22.4,22.4,62,0.00,,---,0.00,VWS V14.01,2013-01-30 21:22:00,
2013-01-30 15:23:00,11.5,1.0,28.55,NW,315,25.5,25.5,62,0.00,,---,0.00,VWS V14.01,2013-01-30 21:23:00,
2013-01-30 15:24:00,11.3,0.8,28.55,WNW,292,22.6,25.5,62,0.00,,---,0.00,VWS V14.01,2013-01-30 21:24:00,
2013-01-30 15:25:00,11.3,0.8,28.55,NNW,338,17.7,22.6,62,0.00,,---,0.00,VWS V14.01,2013-01-30 21:25:00,
2013-01-30 15:26:00,11.3,0.8,28.55,WNW,292,17.9,17.9,62,0.00,,---,0.00,VWS V14.01,2013-01-30 21:26:00,
2013-01-30 15:27:00,11.3,0.8,28.55,NNW,338,10.7,14.3,62,0.00,,---,0.00,VWS V14.01,2013-01-30 21:27:00,
2013-01-30 15:28:00,11.3,0.8,28.55,NNW,338,14.5,14.8,62,0.00,,---,0.00,VWS V14.01,2013-01-30 21:28:00,
2013-01-30 15:29:00,11.3,0.8,28.55,NNW,338,11.2,14.5,62,0.00,,---,0.00,VWS V14.01,2013-01-30 21:29:00,
2013-01-30 15:30:00,11.3,0.8,28.55,NW,315,10.3,13.9,62,0.00,,---,0.00,VWS V14.01,2013-01-30 21:30:00,
2013-01-30 15:31:00,11.3,0.8,28.55,NNW,338,10.3,14.5,62,0.00,,---,0.00,VWS V14.01,2013-01-30 21:31:00,
2013-01-30 15:32:00,11.3,0.8,28.55,NW,315,8.7,13.2,62,0.00,,---,0.00,VWS V14.01,2013-01-30 21:32:00,
2013-01-30 15:33:00,11.3,0.8,28.55,NNW,338,8.5,13.2,62,0.00,,---,0.00,VWS V14.01,2013-01-30 21:33:00,
2013-01-30 15:34:00,11.3,0.8,28.55,NW,315,15.7,16.8,62,0.00,,---,0.00,VWS V14.01,2013-01-30 21:34:00,
2013-01-30 15:35:00,11.3,0.8,28.55,NNW,338,16.8,19.9,62,0.00,,---,0.00,VWS V14.01,2013-01-30 21:35:00,
2013-01-30 15:36:00,11.3,0.8,28.55,WNW,292,13.2,16.8,62,0.00,,---,0.00,VWS V14.01,2013-01-30 21:36:00,
2013-01-30 15:37:00,11.3,0.8,28.55,NW,315,21.0,21.0,62,0.00,,---,0.00,VWS V14.01,2013-01-30 21:37:00,
2013-01-30 15:38:00,11.3,0.8,28.55,NW,315,17.9,17.9,62,0.00,,---,0.00,VWS V14.01,2013-01-30 21:38:00,
2013-01-30 15:39:00,11.3,0.8,28.55,WNW,292,17.5,17.9,62,0.00,,---,0.00,VWS V14.01,2013-01-30 21:39:00,
2013-01-30 15:40:00,11.3,0.8,28.55,NNW,338,21.3,23.0,62,0.00,,---,0.00,VWS V14.01,2013-01-30 21:40:00,
2013-01-30 15:41:00,11.1,0.7,28.55,NNW,338,15.2,21.3,62,0.00,,---,0.00,VWS V14.01,2013-01-30 21:41:00,
2013-01-30 15:42:00,11.1,0.7,28.55,NW,315,13.9,15.2,62,0.00,,---,0.00,VWS V14.01,2013-01-30 21:42:00,
2013-01-30 15:43:00,11.1,0.7,28.55,WNW,292,19.7,19.7,62,0.00,,---,0.00,VWS V14.01,2013-01-30 21:43:00,
2013-01-30 15:44:00,11.1,0.7,28.55,North,0,13.2,19.7,62,0.00,,---,0.00,VWS V14.01,2013-01-30 21:44:00,
2013-01-30 15:45:00,11.1,0.7,28.55,NW,315,19.9,25.1,62,0.00,,---,0.00,VWS V14.01,2013-01-30 21:45:00,
2013-01-30 15:46:00,11.1,0.7,28.55,NNW,338,22.8,24.2,62,0.00,,---,0.00,VWS V14.01,2013-01-30 21:46:00,
2013-01-30 15:47:00,11.1,0.7,28.55,WNW,292,14.8,14.8,62,0.00,,---,0.00,VWS V14.01,2013-01-30 21:47:00,
2013-01-30 15:48:00,11.1,0.7,28.55,NNW,338,12.5,23.0,62,0.00,,---,0.00,VWS V14.01,2013-01-30 21:48:00,
2013-01-30 15:49:00,11.1,0.7,28.55,NNW,338,13.9,19.9,62,0.00,,---,0.00,VWS V14.01,2013-01-30 21:49:00,
2013-01-30 15:50:00,10.9,0.5,28.55,WNW,292,15.9,15.9,62,0.00,,---,0.00,VWS V14.01,2013-01-30 21:50:00,
2013-01-30 15:51:00,10.9,0.5,28.55,NW,315,13.2,19.5,62,0.00,,---,0.00,VWS V14.01,2013-01-30 21:51:00,
2013-01-30 15:52:00,10.9,0.5,28.55,WNW,292,12.3,13.2,62,0.00,,---,0.00,VWS V14.01,2013-01-30 21:52:00,
2013-01-30 15:53:00,10.9,0.5,28.55,NNW,338,19.9,19.9,62,0.00,,---,0.00,VWS V14.01,2013-01-30 21:53:00,
2013-01-30 15:54:00,10.8,0.3,28.55,NNW,338,23.9,25.7,62,0.00,,---,0.00,VWS V14.01,2013-01-30 21:54:00,
2013-01-30 15:55:00,10.8,0.3,28.55,NNW,338,23.5,26.6,62,0.00,,---,0.00,VWS V14.01,2013-01-30 21:55:00,
2013-01-30 15:57:00,10.8,0.3,28.55,NNW,338,23.7,23.7,62,0.00,,---,0.00,VWS V14.01,2013-01-30 21:57:00,
2013-01-30 15:58:00,10.8,0.3,28.55,NNW,338,11.9,23.7,62,0.00,,---,0.00,VWS V14.01,2013-01-30 21:58:00,
2013-01-30 15:59:00,10.8,0.3,28.55,WNW,292,16.8,16.8,62,0.00,,---,0.00,VWS V14.01,2013-01-30 21:59:00,
2013-01-30 16:00:00,10.8,0.3,28.55,NNW,338,17.9,20.4,62,0.00,,---,0.00,VWS V14.01,2013-01-30 22:00:00,
2013-01-30 16:01:00,10.8,0.3,28.55,WNW,292,17.9,23.0,62,0.00,,---,0.00,VWS V14.01,2013-01-30 22:01:00,
2013-01-30 16:02:00,10.8,0.3,28.55,NW,315,24.6,24.6,62,0.00,,---,0.00,VWS V14.01,2013-01-30 22:02:00,
2013-01-30 16:03:00,10.8,0.3,28.55,NW,315,17.0,24.6,62,0.00,,---,0.00,VWS V14.01,2013-01-30 22:03:00,
2013-01-30 16:04:00,10.8,0.3,28.55,WSW,248,18.6,18.6,62,0.00,,---,0.00,VWS V14.01,2013-01-30 22:04:00,
2013-01-30 16:05:00,10.8,0.3,28.55,NNW,338,19.2,23.5,62,0.00,,---,0.00,VWS V14.01,2013-01-30 22:05:00,
2013-01-30 16:06:00,10.6,0.2,28.55,NNW,338,15.7,23.0,62,0.00,,---,0.00,VWS V14.01,2013-01-30 22:06:00,
2013-01-30 16:07:00,10.6,0.2,28.55,NW,315,13.2,23.5,62,0.00,,---,0.00,VWS V14.01,2013-01-30 22:07:00,
2013-01-30 16:08:00,10.4,0.0,28.55,NNW,338,17.5,24.4,62,0.00,,---,0.00,VWS V14.01,2013-01-30 22:08:00,
2013-01-30 16:09:00,10.4,0.0,28.55,NNW,338,14.1,17.5,62,0.00,,---,0.00,VWS V14.01,2013-01-30 22:09:00,
2013-01-30 16:11:00,10.4,0.0,28.55,NNW,338,14.1,14.1,62,0.00,,---,0.00,VWS V14.01,2013-01-30 22:11:00,
2013-01-30 16:12:00,10.4,0.0,28.55,NNW,338,15.2,26.6,62,0.00,,---,0.00,VWS V14.01,2013-01-30 22:12:00,
2013-01-30 16:13:00,10.4,0.0,28.55,NNW,338,15.4,26.6,62,0.00,,---,0.00,VWS V14.01,2013-01-30 22:13:00,
2013-01-30 16:14:00,10.4,0.0,28.55,NNW,338,20.1,25.7,62,0.00,,---,0.00,VWS V14.01,2013-01-30 22:14:00,
2013-01-30 16:15:00,10.4,0.0,28.55,NNW,338,15.2,27.3,62,0.00,,---,0.00,VWS V14.01,2013-01-30 22:15:00,
2013-01-30 16:16:00,10.4,0.0,28.55,WNW,292,23.3,23.5,62,0.00,,---,0.00,VWS V14.01,2013-01-30 22:16:00,
2013-01-30 16:17:00,10.4,0.0,28.55,NW,315,20.8,20.8,62,0.00,,---,0.00,VWS V14.01,2013-01-30 22:17:00,
2013-01-30 16:18:00,10.4,0.0,28.55,NW,315,20.8,20.8,62,0.00,,---,0.00,VWS V14.01,2013-01-30 22:18:00,
2013-01-30 16:19:00,10.4,0.0,28.55,NW,315,17.0,20.8,62,0.00,,---,0.00,VWS V14.01,2013-01-30 22:19:00,
2013-01-30 16:20:00,10.2,-0.2,28.55,WNW,292,13.0,19.0,62,0.00,,---,0.00,VWS V14.01,2013-01-30 22:20:00,
2013-01-30 16:21:00,10.4,0.0,28.55,NNW,338,17.5,19.9,62,0.00,,---,0.00,VWS V14.01,2013-01-30 22:21:00,
2013-01-30 16:22:00,10.2,-0.2,28.55,WNW,292,10.5,10.5,62,0.00,,---,0.00,VWS V14.01,2013-01-30 22:22:00,
2013-01-30 16:23:00,10.2,-0.2,28.55,NW,315,12.3,17.7,62,0.00,,---,0.00,VWS V14.01,2013-01-30 22:23:00,
2013-01-30 16:24:00,10.2,-0.2,28.55,NNW,338,15.4,19.5,62,0.00,,---,0.00,VWS V14.01,2013-01-30 22:24:00,
2013-01-30 16:25:00,10.2,-0.2,28.55,NNW,338,14.5,15.4,62,0.00,,---,0.00,VWS V14.01,2013-01-30 22:25:00,
2013-01-30 16:26:00,10.2,-0.2,28.55,NNW,338,19.9,19.9,62,0.00,,---,0.00,VWS V14.01,2013-01-30 22:26:00,
2013-01-30 16:27:00,10.2,-0.2,28.55,NNW,338,24.4,24.4,62,0.00,,---,0.00,VWS V14.01,2013-01-30 22:27:00,
2013-01-30 16:28:00,10.2,-0.2,28.55,NNW,338,19.2,24.4,62,0.00,,---,0.00,VWS V14.01,2013-01-30 22:28:00,
2013-01-30 16:29:00,10.2,-0.2,28.55,NNW,338,19.2,21.5,62,0.00,,---,0.00,VWS V14.01,2013-01-30 22:29:00,
2013-01-30 16:30:00,10.0,-0.4,28.55,NNW,338,13.0,23.3,62,0.00,,---,0.00,VWS V14.01,2013-01-30 22:30:00,
2013-01-30 16:31:00,10.0,-0.4,28.55,NNW,338,12.5,13.0,62,0.00,,---,0.00,VWS V14.01,2013-01-30 22:31:00,
2013-01-30 16:32:00,10.0,-0.4,28.52,WNW,292,17.2,23.7,62,0.00,,---,0.00,VWS V14.01,2013-01-30 22:32:00,
2013-01-30 16:33:00,10.0,-0.4,28.52,NW,315,15.9,23.7,62,0.00,,---,0.00,VWS V14.01,2013-01-30 22:33:00,
2013-01-30 16:34:00,10.0,-0.4,28.52,NNW,338,14.8,17.2,62,0.00,,---,0.00,VWS V14.01,2013-01-30 22:34:00,
2013-01-30 16:35:00,10.0,-0.4,28.52,NNW,338,17.7,18.6,62,0.00,,---,0.00,VWS V14.01,2013-01-30 22:35:00,
2013-01-30 16:36:00,10.0,-0.4,28.52,NNW,338,20.1,20.1,62,0.00,,---,0.00,VWS V14.01,2013-01-30 22:36:00,
2013-01-30 16:37:00,10.0,-0.4,28.52,NW,315,17.7,20.1,62,0.00,,---,0.00,VWS V14.01,2013-01-30 22:37:00,
2013-01-30 16:38:00,10.0,-0.4,28.52,NNW,338,10.5,17.7,62,0.00,,---,0.00,VWS V14.01,2013-01-30 22:38:00,
2013-01-30 16:39:00,10.0,-0.4,28.52,NNW,338,10.7,14.3,62,0.00,,---,0.00,VWS V14.01,2013-01-30 22:39:00,
2013-01-30 16:40:00,10.0,-0.4,28.52,NW,315,9.6,14.8,62,0.00,,---,0.00,VWS V14.01,2013-01-30 22:40:00,
2013-01-30 16:41:00,10.0,-0.4,28.52,NNW,338,13.2,13.2,62,0.00,,---,0.00,VWS V14.01,2013-01-30 22:41:00,
2013-01-30 16:42:00,10.0,-0.4,28.52,NNW,338,14.8,14.8,62,0.00,,---,0.00,VWS V14.01,2013-01-30 22:42:00,
2013-01-30 16:43:00,10.0,-0.4,28.52,NNW,338,14.8,14.8,62,0.00,,---,0.00,VWS V14.01,2013-01-30 22:43:00,
2013-01-30 16:44:00,9.9,-0.5,28.52,NW,315,14.3,14.8,62,0.00,,---,0.00,VWS V14.01,2013-01-30 22:44:00,
2013-01-30 16:45:00,9.7,-0.7,28.52,NW,315,8.5,14.3,62,0.00,,---,0.00,VWS V14.01,2013-01-30 22:45:00,
2013-01-30 16:46:00,9.7,-0.7,28.52,NW,315,17.0,17.0,62,0.00,,---,0.00,VWS V14.01,2013-01-30 22:46:00,
2013-01-30 16:47:00,9.7,-0.7,28.55,NNW,338,17.7,17.7,62,0.00,,---,0.00,VWS V14.01,2013-01-30 22:47:00,
2013-01-30 16:48:00,9.7,-0.7,28.55,NW,315,10.7,17.7,62,0.00,,---,0.00,VWS V14.01,2013-01-30 22:48:00,
2013-01-30 16:49:00,9.7,-0.7,28.55,WNW,292,10.5,10.7,62,0.00,,---,0.00,VWS V14.01,2013-01-30 22:49:00,
2013-01-30 16:50:00,9.5,-0.9,28.55,WNW,292,17.5,17.5,62,0.00,,---,0.00,VWS V14.01,2013-01-30 22:50:00,
2013-01-30 16:51:00,9.5,-0.9,28.55,NW,315,13.4,22.4,62,0.00,,---,0.00,VWS V14.01,2013-01-30 22:51:00,
2013-01-30 16:52:00,9.3,-1.0,28.55,NW,315,13.0,22.6,62,0.00,,---,0.00,VWS V14.01,2013-01-30 22:52:00,
2013-01-30 16:53:00,9.1,-1.2,28.55,NNE,22,10.5,22.6,62,0.00,,---,0.00,VWS V14.01,2013-01-30 22:53:00,
2013-01-30 16:54:00,9.1,-1.2,28.55,NW,315,17.7,17.7,62,0.00,,---,0.00,VWS V14.01,2013-01-30 22:54:00,
2013-01-30 16:55:00,9.1,-1.2,28.55,NNW,338,19.5,19.7,62,0.00,,---,0.00,VWS V14.01,2013-01-30 22:55:00,
2013-01-30 16:56:00,9.1,-1.2,28.55,NW,315,14.8,19.5,62,0.00,,---,0.00,VWS V14.01,2013-01-30 22:56:00,
2013-01-30 16:57:00,9.0,-1.4,28.55,NW,315,23.3,23.3,62,0.00,,---,0.00,VWS V14.01,2013-01-30 22:57:00,
2013-01-30 16:58:00,9.0,-1.4,28.55,NNW,338,21.0,23.3,62,0.00,,---,0.00,VWS V14.01,2013-01-30 22:58:00,
2013-01-30 16:59:00,8.8,-1.6,28.55,WNW,292,12.5,21.0,62,0.00,,---,0.00,VWS V14.01,2013-01-30 22:59:00,
2013-01-30 17:00:00,8.8,-1.6,28.55,NW,315,17.7,19.2,62,0.00,,---,0.00,VWS V14.01,2013-01-30 23:00:00,
2013-01-30 17:01:00,8.8,-1.6,28.55,WNW,292,15.2,19.2,62,0.00,,---,0.00,VWS V14.01,2013-01-30 23:01:00,
2013-01-30 17:02:00,8.8,-1.6,28.55,NW,315,19.5,19.5,62,0.00,,---,0.00,VWS V14.01,2013-01-30 23:02:00,
2013-01-30 17:03:00,8.8,-1.6,28.55,WNW,292,20.6,20.6,62,0.00,,---,0.00,VWS V14.01,2013-01-30 23:03:00,
2013-01-30 17:04:00,8.8,-1.6,28.55,NNW,338,15.2,23.3,62,0.00,,---,0.00,VWS V14.01,2013-01-30 23:04:00,
2013-01-30 17:05:00,8.8,-1.6,28.55,NW,315,23.5,23.5,62,0.00,,---,0.00,VWS V14.01,2013-01-30 23:05:00,
2013-01-30 17:06:00,8.6,-1.7,28.55,NNW,338,7.4,23.5,62,0.00,,---,0.00,VWS V14.01,2013-01-30 23:06:00,
2013-01-30 17:07:00,8.6,-1.7,28.55,NW,315,8.1,15.2,62,0.00,,---,0.00,VWS V14.01,2013-01-30 23:07:00,
2013-01-30 17:09:00,8.6,-1.7,28.55,WNW,292,18.6,18.6,62,0.00,,---,0.00,VWS V14.01,2013-01-30 23:09:00,
2013-01-30 17:10:00,8.6,-1.7,28.55,NW,315,19.9,22.6,62,0.00,,---,0.00,VWS V14.01,2013-01-30 23:10:00,
2013-01-30 17:11:00,8.6,-1.7,28.55,NNW,338,11.4,19.9,62,0.00,,---,0.00,VWS V14.01,2013-01-30 23:11:00,
2013-01-30 17:12:00,8.6,-1.7,28.55,NW,315,18.6,19.7,62,0.00,,---,0.00,VWS V14.01,2013-01-30 23:12:00,
2013-01-30 17:13:00,8.6,-1.7,28.55,NNE,22,17.5,19.7,62,0.00,,---,0.00,VWS V14.01,2013-01-30 23:13:00,
2013-01-30 17:14:00,8.6,-1.7,28.55,NNW,338,15.2,17.5,62,0.00,,---,0.00,VWS V14.01,2013-01-30 23:14:00,
2013-01-30 17:15:00,8.4,-1.9,28.55,NNW,338,18.8,22.2,62,0.00,,---,0.00,VWS V14.01,2013-01-30 23:15:00,
2013-01-30 17:16:00,8.4,-1.9,28.55,NW,315,17.5,18.8,62,0.00,,---,0.00,VWS V14.01,2013-01-30 23:16:00,
2013-01-30 17:17:00,8.4,-1.9,28.55,NNW,338,11.4,12.8,62,0.00,,---,0.00,VWS V14.01,2013-01-30 23:17:00,
2013-01-30 17:18:00,8.4,-1.9,28.55,WNW,292,14.1,14.1,62,0.00,,---,0.00,VWS V14.01,2013-01-30 23:18:00,
2013-01-30 17:19:00,8.4,-1.9,28.55,NNW,338,15.2,20.1,62,0.00,,---,0.00,VWS V14.01,2013-01-30 23:19:00,
2013-01-30 17:20:00,8.4,-1.9,28.55,NNW,338,18.6,18.6,62,0.00,,---,0.00,VWS V14.01,2013-01-30 23:20:00,
2013-01-30 17:21:00,8.4,-1.9,28.55,NNW,338,18.8,18.8,62,0.00,,---,0.00,VWS V14.01,2013-01-30 23:21:00,
2013-01-30 17:22:00,8.2,-2.1,28.55,NW,315,18.1,18.1,62,0.00,,---,0.00,VWS V14.01,2013-01-30 23:22:00,
2013-01-30 17:23:00,8.2,-2.1,28.55,NW,315,15.4,18.1,62,0.00,,---,0.00,VWS V14.01,2013-01-30 23:23:00,
2013-01-30 17:24:00,8.2,-2.1,28.55,NNW,338,10.3,17.7,62,0.00,,---,0.00,VWS V14.01,2013-01-30 23:24:00,
2013-01-30 17:25:00,8.2,-2.1,28.55,NNW,338,12.8,15.2,62,0.00,,---,0.00,VWS V14.01,2013-01-30 23:25:00,
2013-01-30 17:26:00,8.2,-2.1,28.55,NNW,338,12.8,12.8,62,0.00,,---,0.00,VWS V14.01,2013-01-30 23:26:00,
2013-01-30 17:27:00,8.2,-2.1,28.55,NNW,338,23.0,23.0,62,0.00,,---,0.00,VWS V14.01,2013-01-30 23:27:00,
2013-01-30 17:28:00,8.2,-2.1,28.55,NW,315,21.5,23.0,62,0.00,,---,0.00,VWS V14.01,2013-01-30 23:28:00,
2013-01-30 17:29:00,8.2,-2.1,28.55,NW,315,16.8,22.4,62,0.00,,---,0.00,VWS V14.01,2013-01-30 23:29:00,
2013-01-30 17:30:00,8.2,-2.1,28.55,North,0,26.4,26.4,62,0.00,,---,0.00,VWS V14.01,2013-01-30 23:30:00,
2013-01-30 17:31:00,8.1,-2.2,28.55,NNW,338,24.6,26.4,62,0.00,,---,0.00,VWS V14.01,2013-01-30 23:31:00,
2013-01-30 17:32:00,8.1,-2.2,28.55,NNW,338,14.8,15.4,62,0.00,,---,0.00,VWS V14.01,2013-01-30 23:32:00,
2013-01-30 17:33:00,8.1,-2.2,28.55,NW,315,23.3,23.3,62,0.00,,---,0.00,VWS V14.01,2013-01-30 23:33:00,
2013-01-30 17:34:00,8.1,-2.2,28.55,NW,315,11.0,23.3,62,0.00,,---,0.00,VWS V14.01,2013-01-30 23:34:00,
2013-01-30 17:35:00,8.1,-2.2,28.55,NNW,338,10.7,17.2,62,0.00,,---,0.00,VWS V14.01,2013-01-30 23:35:00,
2013-01-30 17:36:00,8.1,-2.2,28.55,NW,315,12.1,13.0,62,0.00,,---,0.00,VWS V14.01,2013-01-30 23:36:00,
2013-01-30 17:37:00,8.1,-2.2,28.55,NW,315,18.6,18.6,62,0.00,,---,0.00,VWS V14.01,2013-01-30 23:37:00,
2013-01-30 17:38:00,8.1,-2.2,28.55,NW,315,17.2,18.6,62,0.00,,---,0.00,VWS V14.01,2013-01-30 23:38:00,
2013-01-30 17:39:00,8.1,-2.2,28.55,NW,315,13.9,20.6,62,0.00,,---,0.00,VWS V14.01,2013-01-30 23:39:00,
2013-01-30 17:40:00,8.1,-2.2,28.55,NW,315,13.4,13.9,62,0.00,,---,0.00,VWS V14.01,2013-01-30 23:40:00,
2013-01-30 17:41:00,7.9,-2.4,28.55,NW,315,16.8,16.8,62,0.00,,---,0.00,VWS V14.01,2013-01-30 23:41:00,
2013-01-30 17:42:00,7.9,-2.4,28.55,NW,315,8.7,16.8,62,0.00,,---,0.00,VWS V14.01,2013-01-30 23:42:00,
2013-01-30 17:43:00,7.9,-2.4,28.55,NNW,338,17.2,17.2,62,0.00,,---,0.00,VWS V14.01,2013-01-30 23:43:00,
2013-01-30 17:44:00,7.9,-2.4,28.55,NW,315,12.3,17.7,62,0.00,,---,0.00,VWS V14.01,2013-01-30 23:44:00,
2013-01-30 17:45:00,7.9,-2.4,28.55,NNW,338,22.8,22.8,62,0.00,,---,0.00,VWS V14.01,2013-01-30 23:45:00,
2013-01-30 17:46:00,7.9,-2.4,28.55,NNW,338,22.2,22.8,62,0.00,,---,0.00,VWS V14.01,2013-01-30 23:46:00,
2013-01-30 17:47:00,7.9,-2.4,28.55,NNW,338,16.8,22.6,62,0.00,,---,0.00,VWS V14.01,2013-01-30 23:47:00,
2013-01-30 17:48:00,7.9,-2.4,28.55,NNW,338,11.9,16.8,62,0.00,,---,0.00,VWS V14.01,2013-01-30 23:48:00,
2013-01-30 17:49:00,7.9,-2.4,28.55,NNW,338,18.1,18.1,62,0.00,,---,0.00,VWS V14.01,2013-01-30 23:49:00,
2013-01-30 17:50:00,7.9,-2.4,28.55,WNW,292,16.1,18.1,62,0.00,,---,0.00,VWS V14.01,2013-01-30 23:50:00,
2013-01-30 17:51:00,7.9,-2.4,28.55,NW,315,12.5,17.2,62,0.00,,---,0.00,VWS V14.01,2013-01-30 23:51:00,
2013-01-30 17:53:00,7.9,-2.4,28.55,NNW,338,13.0,17.5,62,0.00,,---,0.00,VWS V14.01,2013-01-30 23:53:00,
2013-01-30 17:54:00,7.7,-2.6,28.55,NW,315,16.3,18.1,62,0.00,,---,0.00,VWS V14.01,2013-01-30 23:54:00,
2013-01-30 17:55:00,7.7,-2.6,28.55,WNW,292,16.1,17.5,62,0.00,,---,0.00,VWS V14.01,2013-01-30 23:55:00,
2013-01-30 17:56:00,7.7,-2.6,28.55,NNW,338,12.5,19.0,62,0.00,,---,0.00,VWS V14.01,2013-01-30 23:56:00,
2013-01-30 17:57:00,7.7,-2.6,28.55,NW,315,9.8,19.5,62,0.00,,---,0.00,VWS V14.01,2013-01-30 23:57:00,
2013-01-30 17:58:00,7.7,-2.6,28.55,NW,315,10.3,13.2,62,0.00,,---,0.00,VWS V14.01,2013-01-30 23:58:00,
2013-01-30 17:59:00,7.7,-2.6,28.55,NW,315,19.7,19.7,62,0.00,,---,0.00,VWS V14.01,2013-01-30 23:59:00,
2013-01-30 18:00:00,7.7,-2.6,28.55,NNW,338,13.4,19.7,62,0.00,,---,0.00,VWS V14.01,2013-01-31 00:00:00,
2013-01-30 18:01:00,7.7,-2.6,28.55,NW,315,14.5,18.1,62,0.00,,---,0.00,VWS V14.01,2013-01-31 00:01:00,
2013-01-30 18:02:00,7.7,-2.6,28.55,NNW,338,9.8,14.5,62,0.00,,---,0.00,VWS V14.01,2013-01-31 00:02:00,
2013-01-30 18:03:00,7.7,-2.6,28.55,NNW,338,17.7,17.7,62,0.00,,---,0.00,VWS V14.01,2013-01-31 00:03:00,
2013-01-30 18:04:00,7.7,-2.6,28.55,NNW,338,16.8,17.7,62,0.00,,---,0.00,VWS V14.01,2013-01-31 00:04:00,
2013-01-30 18:05:00,7.7,-2.6,28.55,NW,315,19.7,21.9,62,0.00,,---,0.00,VWS V14.01,2013-01-31 00:05:00,
2013-01-30 18:06:00,7.5,-2.8,28.55,NNW,338,10.5,19.9,62,0.00,,---,0.00,VWS V14.01,2013-01-31 00:06:00,
2013-01-30 18:07:00,7.5,-2.8,28.55,NW,315,10.3,19.7,62,0.00,,---,0.00,VWS V14.01,2013-01-31 00:07:00,
2013-01-30 18:08:00,7.5,-2.8,28.55,NNW,338,7.8,10.3,62,0.00,,---,0.00,VWS V14.01,2013-01-31 00:08:00,
2013-01-30 18:09:00,7.5,-2.8,28.55,NNW,338,12.1,12.1,62,0.00,,---,0.00,VWS V14.01,2013-01-31 00:09:00,
2013-01-30 18:10:00,7.5,-2.8,28.55,NW,315,13.2,13.2,62,0.00,,---,0.00,VWS V14.01,2013-01-31 00:10:00,
2013-01-30 18:11:00,7.5,-2.8,28.55,WNW,292,15.2,15.2,62,0.00,,---,0.00,VWS V14.01,2013-01-31 00:11:00,
2013-01-30 18:12:00,7.5,-2.8,28.55,NW,315,12.8,19.9,62,0.00,,---,0.00,VWS V14.01,2013-01-31 00:12:00,
2013-01-30 18:13:00,7.5,-2.8,28.55,NW,315,12.8,13.0,62,0.00,,---,0.00,VWS V14.01,2013-01-31 00:13:00,
2013-01-30 18:14:00,7.5,-2.8,28.55,NW,315,10.1,13.2,62,0.00,,---,0.00,VWS V14.01,2013-01-31 00:14:00,
2013-01-30 18:15:00,7.3,-2.9,28.55,NNW,338,8.7,14.5,62,0.00,,---,0.00,VWS V14.01,2013-01-31 00:15:00,
2013-01-30 18:16:00,7.3,-2.9,28.55,NW,315,12.5,15.4,62,0.00,,---,0.00,VWS V14.01,2013-01-31 00:16:00,
2013-01-30 18:17:00,7.3,-2.9,28.55,WNW,292,17.5,17.5,62,0.00,,---,0.00,VWS V14.01,2013-01-31 00:17:00,
2013-01-30 18:18:00,7.3,-2.9,28.55,NW,315,11.0,17.5,62,0.00,,---,0.00,VWS V14.01,2013-01-31 00:18:00,
2013-01-30 18:19:00,7.2,-3.1,28.55,NNW,338,13.6,13.6,62,0.00,,---,0.00,VWS V14.01,2013-01-31 00:19:00,
2013-01-30 18:20:00,7.2,-3.1,28.55,WNW,292,14.3,17.5,62,0.00,,---,0.00,VWS V14.01,2013-01-31 00:20:00,
2013-01-30 18:21:00,7.2,-3.1,28.55,NNW,338,12.1,15.2,62,0.00,,---,0.00,VWS V14.01,2013-01-31 00:21:00,
2013-01-30 18:22:00,7.0,-3.3,28.55,WNW,292,10.3,13.0,62,0.00,,---,0.00,VWS V14.01,2013-01-31 00:22:00,
2013-01-30 18:23:00,7.0,-3.3,28.55,NW,315,17.9,17.9,62,0.00,,---,0.00,VWS V14.01,2013-01-31 00:23:00,
2013-01-30 18:24:00,7.0,-3.3,28.55,NW,315,17.9,17.9,62,0.00,,---,0.00,VWS V14.01,2013-01-31 00:24:00,
2013-01-30 18:25:00,7.0,-3.3,28.55,NNW,338,13.0,17.9,62,0.00,,---,0.00,VWS V14.01,2013-01-31 00:25:00,
2013-01-30 18:26:00,7.0,-3.3,28.55,NW,315,16.8,16.8,62,0.00,,---,0.00,VWS V14.01,2013-01-31 00:26:00,
2013-01-30 18:27:00,6.8,-3.5,28.55,NNW,338,19.2,19.2,62,0.00,,---,0.00,VWS V14.01,2013-01-31 00:27:00,
2013-01-30 18:28:00,6.8,-3.5,28.55,NNW,338,17.5,22.2,62,0.00,,---,0.00,VWS V14.01,2013-01-31 00:28:00,
2013-01-30 18:29:00,6.8,-3.5,28.55,WSW,248,12.1,17.5,62,0.00,,---,0.00,VWS V14.01,2013-01-31 00:29:00,
2013-01-30 18:30:00,6.8,-3.5,28.55,WNW,292,15.9,15.9,62,0.00,,---,0.00,VWS V14.01,2013-01-31 00:30:00,
2013-01-30 18:31:00,6.8,-3.5,28.55,WNW,292,13.2,15.9,62,0.00,,---,0.00,VWS V14.01,2013-01-31 00:31:00,
2013-01-30 18:32:00,6.8,-3.5,28.55,NNW,338,13.9,13.9,62,0.00,,---,0.00,VWS V14.01,2013-01-31 00:32:00,
2013-01-30 18:33:00,6.8,-3.5,28.55,North,0,16.8,16.8,62,0.00,,---,0.00,VWS V14.01,2013-01-31 00:33:00,
2013-01-30 18:34:00,6.8,-3.5,28.55,NNW,338,16.3,16.3,62,0.00,,---,0.00,VWS V14.01,2013-01-31 00:34:00,
2013-01-30 18:35:00,6.8,-3.5,28.55,WNW,292,15.2,16.6,62,0.00,,---,0.00,VWS V14.01,2013-01-31 00:35:00,
2013-01-30 18:36:00,6.8,-3.5,28.55,NW,315,17.7,19.2,62,0.00,,---,0.00,VWS V14.01,2013-01-31 00:36:00,
2013-01-30 18:37:00,6.8,-3.5,28.55,NW,315,14.1,17.7,62,0.00,,---,0.00,VWS V14.01,2013-01-31 00:37:00,
2013-01-30 18:38:00,6.6,-3.6,28.55,West,270,12.5,14.1,62,0.00,,---,0.00,VWS V14.01,2013-01-31 00:38:00,
2013-01-30 18:39:00,6.6,-3.6,28.55,NNW,338,13.2,17.2,62,0.00,,---,0.00,VWS V14.01,2013-01-31 00:39:00,
2013-01-30 18:40:00,6.6,-3.6,28.55,NW,315,19.7,19.7,62,0.00,,---,0.00,VWS V14.01,2013-01-31 00:40:00,
2013-01-30 18:41:00,6.6,-3.6,28.55,NW,315,17.2,19.7,62,0.00,,---,0.00,VWS V14.01,2013-01-31 00:41:00,
2013-01-30 18:42:00,6.6,-3.6,28.55,WNW,292,17.7,17.7,62,0.00,,---,0.00,VWS V14.01,2013-01-31 00:42:00,
2013-01-30 18:43:00,6.6,-3.6,28.55,WNW,292,13.4,17.7,62,0.00,,---,0.00,VWS V14.01,2013-01-31 00:43:00,
2013-01-30 18:44:00,6.6,-3.6,28.55,WNW,292,17.2,17.2,62,0.00,,---,0.00,VWS V14.01,2013-01-31 00:44:00,
2013-01-30 18:45:00,6.4,-3.8,28.55,NNW,338,14.8,17.2,62,0.00,,---,0.00,VWS V14.01,2013-01-31 00:45:00,
2013-01-30 18:46:00,6.4,-3.8,28.55,NW,315,10.7,14.8,62,0.00,,---,0.00,VWS V14.01,2013-01-31 00:46:00,
2013-01-30 18:47:00,6.4,-3.8,28.58,NW,315,15.4,15.4,62,0.00,,---,0.00,VWS V14.01,2013-01-31 00:47:00,
2013-01-30 18:48:00,6.4,-3.8,28.58,NW,315,11.9,15.4,62,0.00,,---,0.00,VWS V14.01,2013-01-31 00:48:00,
2013-01-30 18:49:00,6.4,-3.8,28.58,NNW,338,16.3,16.3,62,0.00,,---,0.00,VWS V14.01,2013-01-31 00:49:00,
2013-01-30 18:50:00,6.4,-3.8,28.58,NNW,338,10.3,16.3,62,0.00,,---,0.00,VWS V14.01,2013-01-31 00:50:00,
2013-01-30 18:51:00,6.4,-3.8,28.58,NW,315,12.8,12.8,62,0.00,,---,0.00,VWS V14.01,2013-01-31 00:51:00,
2013-01-30 18:52:00,6.4,-3.8,28.58,NW,315,9.8,12.8,62,0.00,,---,0.00,VWS V14.01,2013-01-31 00:52:00,
2013-01-30 18:53:00,6.3,-4.0,28.58,NW,315,17.5,17.7,62,0.00,,---,0.00,VWS V14.01,2013-01-31 00:53:00,
2013-01-30 18:54:00,6.3,-4.0,28.58,WNW,292,10.7,19.9,62,0.00,,---,0.00,VWS V14.01,2013-01-31 00:54:00,
2013-01-30 18:55:00,6.3,-4.0,28.58,NNW,338,17.2,17.2,62,0.00,,---,0.00,VWS V14.01,2013-01-31 00:55:00,
2013-01-30 18:56:00,6.3,-4.0,28.58,NW,315,16.6,17.2,62,0.00,,---,0.00,VWS V14.01,2013-01-31 00:56:00,
2013-01-30 18:57:00,6.3,-4.0,28.58,NNW,338,11.0,17.7,62,0.00,,---,0.00,VWS V14.01,2013-01-31 00:57:00,
2013-01-30 18:58:00,6.1,-4.1,28.58,WNW,292,10.7,15.2,62,0.00,,---,0.00,VWS V14.01,2013-01-31 00:58:00,
2013-01-30 18:59:00,6.1,-4.1,28.58,WNW,292,13.0,13.0,62,0.00,,---,0.00,VWS V14.01,2013-01-31 00:59:00,
2013-01-30 19:00:00,6.1,-4.1,28.58,NW,315,15.4,15.4,62,0.00,,---,0.00,VWS V14.01,2013-01-31 01:00:00,
2013-01-30 19:01:00,6.1,-4.1,28.58,NNW,338,15.2,17.2,62,0.00,,---,0.00,VWS V14.01,2013-01-31 01:01:00,
2013-01-30 19:02:00,6.1,-4.1,28.58,NW,315,8.7,17.5,62,0.00,,---,0.00,VWS V14.01,2013-01-31 01:02:00,
2013-01-30 19:03:00,6.1,-4.1,28.58,NW,315,12.1,19.5,62,0.00,,---,0.00,VWS V14.01,2013-01-31 01:03:00,
2013-01-30 19:04:00,6.1,-4.1,28.58,NW,315,14.1,14.1,62,0.00,,---,0.00,VWS V14.01,2013-01-31 01:04:00,
2013-01-30 19:05:00,6.1,-4.1,28.58,NW,315,14.1,15.2,62,0.00,,---,0.00,VWS V14.01,2013-01-31 01:05:00,
2013-01-30 19:06:00,6.1,-4.1,28.58,North,0,6.3,14.1,62,0.00,,---,0.00,VWS V14.01,2013-01-31 01:06:00,
2013-01-30 19:07:00,6.1,-4.1,28.58,NNW,338,10.1,10.3,62,0.00,,---,0.00,VWS V14.01,2013-01-31 01:07:00,
2013-01-30 19:08:00,6.1,-4.1,28.58,NW,315,15.4,21.9,62,0.00,,---,0.00,VWS V14.01,2013-01-31 01:08:00,
2013-01-30 19:09:00,6.1,-4.1,28.58,NW,315,15.2,15.4,62,0.00,,---,0.00,VWS V14.01,2013-01-31 01:09:00,
2013-01-30 19:10:00,6.1,-4.1,28.58,WNW,292,12.8,17.0,62,0.00,,---,0.00,VWS V14.01,2013-01-31 01:10:00,
2013-01-30 19:11:00,6.1,-4.1,28.58,NW,315,11.0,14.1,62,0.00,,---,0.00,VWS V14.01,2013-01-31 01:11:00,
2013-01-30 19:12:00,6.1,-4.1,28.58,NW,315,13.0,13.0,62,0.00,,---,0.00,VWS V14.01,2013-01-31 01:12:00,
2013-01-30 19:13:00,6.1,-4.1,28.58,NW,315,9.6,13.9,62,0.00,,---,0.00,VWS V14.01,2013-01-31 01:13:00,
2013-01-30 19:14:00,6.1,-4.1,28.58,WNW,292,13.2,13.2,62,0.00,,---,0.00,VWS V14.01,2013-01-31 01:14:00,
2013-01-30 19:15:00,6.1,-4.1,28.58,NNW,338,7.2,14.8,62,0.00,,---,0.00,VWS V14.01,2013-01-31 01:15:00,
2013-01-30 19:16:00,6.1,-4.1,28.58,WNW,292,9.8,12.8,62,0.00,,---,0.00,VWS V14.01,2013-01-31 01:16:00,
2013-01-30 19:17:00,6.1,-4.1,28.58,NW,315,10.7,10.7,62,0.00,,---,0.00,VWS V14.01,2013-01-31 01:17:00,
2013-01-30 19:18:00,6.1,-4.1,28.58,NW,315,17.7,17.7,62,0.00,,---,0.00,VWS V14.01,2013-01-31 01:18:00,
2013-01-30 19:19:00,6.1,-4.1,28.58,NNE,22,10.5,17.7,62,0.00,,---,0.00,VWS V14.01,2013-01-31 01:19:00,
2013-01-30 19:20:00,6.1,-4.1,28.58,WNW,292,13.0,14.8,62,0.00,,---,0.00,VWS V14.01,2013-01-31 01:20:00,
2013-01-30 19:21:00,6.1,-4.1,28.58,NW,315,16.1,16.1,62,0.00,,---,0.00,VWS V14.01,2013-01-31 01:21:00,
2013-01-30 19:22:00,6.1,-4.1,28.58,NW,315,10.7,16.1,62,0.00,,---,0.00,VWS V14.01,2013-01-31 01:22:00,
2013-01-30 19:23:00,6.1,-4.1,28.58,WNW,292,17.2,17.2,62,0.00,,---,0.00,VWS V14.01,2013-01-31 01:23:00,
2013-01-30 19:24:00,6.1,-4.1,28.58,WNW,292,13.0,17.2,62,0.00,,---,0.00,VWS V14.01,2013-01-31 01:24:00,
2013-01-30 19:26:00,6.1,-4.1,28.58,WNW,292,15.4,15.4,62,0.00,,---,0.00,VWS V14.01,2013-01-31 01:26:00,
2013-01-30 19:27:00,6.1,-4.1,28.58,NW,315,8.7,17.5,62,0.00,,---,0.00,VWS V14.01,2013-01-31 01:27:00,
2013-01-30 19:28:00,6.1,-4.1,28.58,WNW,292,5.8,5.8,62,0.00,,---,0.00,VWS V14.01,2013-01-31 01:28:00,
2013-01-30 19:29:00,6.1,-4.1,28.58,NNW,338,11.0,15.7,62,0.00,,---,0.00,VWS V14.01,2013-01-31 01:29:00,
2013-01-30 19:30:00,5.9,-4.3,28.58,WNW,292,17.0,17.0,62,0.00,,---,0.00,VWS V14.01,2013-01-31 01:30:00,
2013-01-30 19:31:00,5.9,-4.3,28.58,WNW,292,17.0,17.0,62,0.00,,---,0.00,VWS V14.01,2013-01-31 01:31:00,
2013-01-30 19:32:00,5.9,-4.3,28.58,NW,315,17.0,17.0,62,0.00,,---,0.00,VWS V14.01,2013-01-31 01:32:00,
2013-01-30 19:33:00,5.9,-4.3,28.58,NW,315,16.3,17.2,62,0.00,,---,0.00,VWS V14.01,2013-01-31 01:33:00,
2013-01-30 19:34:00,5.9,-4.3,28.58,NW,315,17.7,17.7,62,0.00,,---,0.00,VWS V14.01,2013-01-31 01:34:00,
2013-01-30 19:35:00,5.9,-4.3,28.58,NW,315,15.4,17.7,62,0.00,,---,0.00,VWS V14.01,2013-01-31 01:35:00,
2013-01-30 19:36:00,5.9,-4.3,28.58,NNW,338,11.0,15.4,62,0.00,,---,0.00,VWS V14.01,2013-01-31 01:36:00,
2013-01-30 19:37:00,5.9,-4.3,28.58,NW,315,14.5,14.5,62,0.00,,---,0.00,VWS V14.01,2013-01-31 01:37:00,
2013-01-30 19:38:00,5.9,-4.3,28.58,WNW,292,13.4,14.5,62,0.00,,---,0.00,VWS V14.01,2013-01-31 01:38:00,
2013-01-30 19:39:00,5.9,-4.3,28.58,NW,315,17.7,19.7,62,0.00,,---,0.00,VWS V14.01,2013-01-31 01:39:00,
2013-01-30 19:40:00,5.9,-4.3,28.58,NW,315,16.1,17.7,62,0.00,,---,0.00,VWS V14.01,2013-01-31 01:40:00,
2013-01-30 19:41:00,5.9,-4.3,28.58,North,0,14.5,18.1,62,0.00,,---,0.00,VWS V14.01,2013-01-31 01:41:00,
2013-01-30 19:42:00,5.9,-4.3,28.58,NNW,338,17.0,17.7,62,0.00,,---,0.00,VWS V14.01,2013-01-31 01:42:00,
2013-01-30 19:43:00,5.9,-4.3,28.58,WNW,292,16.6,19.9,62,0.00,,---,0.00,VWS V14.01,2013-01-31 01:43:00,
2013-01-30 19:44:00,5.9,-4.3,28.58,NW,315,17.5,19.9,62,0.00,,---,0.00,VWS V14.01,2013-01-31 01:44:00,
2013-01-30 19:45:00,5.9,-4.3,28.58,NW,315,17.5,17.5,62,0.00,,---,0.00,VWS V14.01,2013-01-31 01:45:00,
2013-01-30 19:46:00,5.9,-4.3,28.58,WNW,292,15.2,17.5,62,0.00,,---,0.00,VWS V14.01,2013-01-31 01:46:00,
2013-01-30 19:47:00,5.9,-4.3,28.58,WNW,292,7.8,21.5,62,0.00,,---,0.00,VWS V14.01,2013-01-31 01:47:00,
2013-01-30 19:48:00,5.9,-4.3,28.58,NW,315,16.8,20.8,62,0.00,,---,0.00,VWS V14.01,2013-01-31 01:48:00,
2013-01-30 19:49:00,5.9,-4.3,28.58,NW,315,17.0,17.0,62,0.00,,---,0.00,VWS V14.01,2013-01-31 01:49:00,
2013-01-30 19:50:00,5.9,-4.3,28.58,NNW,338,19.7,19.7,62,0.00,,---,0.00,VWS V14.01,2013-01-31 01:50:00,
2013-01-30 19:51:00,5.9,-4.3,28.58,NW,315,17.5,19.7,62,0.00,,---,0.00,VWS V14.01,2013-01-31 01:51:00,
2013-01-30 19:52:00,5.9,-4.3,28.58,NNW,338,14.8,17.5,62,0.00,,---,0.00,VWS V14.01,2013-01-31 01:52:00,
2013-01-30 19:53:00,5.9,-4.3,28.58,WNW,292,13.0,13.0,62,0.00,,---,0.00,VWS V14.01,2013-01-31 01:53:00,
2013-01-30 19:54:00,5.9,-4.3,28.58,NW,315,16.3,16.3,62,0.00,,---,0.00,VWS V14.01,2013-01-31 01:54:00,
2013-01-30 19:55:00,5.9,-4.3,28.58,NNW,338,12.8,17.2,62,0.00,,---,0.00,VWS V14.01,2013-01-31 01:55:00,
2013-01-30 19:56:00,5.9,-4.3,28.58,WNW,292,17.2,19.5,62,0.00,,---,0.00,VWS V14.01,2013-01-31 01:56:00,
2013-01-30 19:57:00,5.9,-4.3,28.58,West,270,10.3,17.2,62,0.00,,---,0.00,VWS V14.01,2013-01-31 01:57:00,
2013-01-30 19:58:00,5.9,-4.3,28.58,WNW,292,12.8,12.8,62,0.00,,---,0.00,VWS V14.01,2013-01-31 01:58:00,
2013-01-30 19:59:00,5.9,-4.3,28.58,WNW,292,11.4,12.8,62,0.00,,---,0.00,VWS V14.01,2013-01-31 01:59:00,
2013-01-30 20:00:00,5.9,-4.3,28.58,West,270,10.1,13.2,62,0.00,,---,0.00,VWS V14.01,2013-01-31 02:00:00,
2013-01-30 20:01:00,5.7,-4.5,28.58,WNW,292,17.5,17.5,62,0.00,,---,0.00,VWS V14.01,2013-01-31 02:01:00,
2013-01-30 20:02:00,5.7,-4.5,28.58,NNW,338,17.2,17.5,62,0.00,,---,0.00,VWS V14.01,2013-01-31 02:02:00,
2013-01-30 20:03:00,5.7,-4.5,28.58,NW,315,20.4,20.4,62,0.00,,---,0.00,VWS V14.01,2013-01-31 02:03:00,
2013-01-30 20:04:00,5.5,-4.6,28.58,NW,315,22.6,22.6,62,0.00,,---,0.00,VWS V14.01,2013-01-31 02:04:00,
2013-01-30 20:05:00,5.5,-4.6,28.58,WNW,292,17.0,22.6,62,0.00,,---,0.00,VWS V14.01,2013-01-31 02:05:00,
2013-01-30 20:06:00,5.5,-4.6,28.58,WNW,292,13.2,17.0,62,0.00,,---,0.00,VWS V14.01,2013-01-31 02:06:00,
2013-01-30 20:07:00,5.5,-4.6,28.58,NW,315,19.9,22.2,62,0.00,,---,0.00,VWS V14.01,2013-01-31 02:07:00,
2013-01-30 20:08:00,5.4,-4.8,28.58,WNW,292,14.8,16.6,62,0.00,,---,0.00,VWS V14.01,2013-01-31 02:08:00,
2013-01-30 20:09:00,5.4,-4.8,28.58,WNW,292,18.1,25.5,62,0.00,,---,0.00,VWS V14.01,2013-01-31 02:09:00,
2013-01-30 20:10:00,5.4,-4.8,28.58,NW,315,13.2,18.1,62,0.00,,---,0.00,VWS V14.01,2013-01-31 02:10:00,
2013-01-30 20:11:00,5.4,-4.8,28.58,NNW,338,24.6,24.6,62,0.00,,---,0.00,VWS V14.01,2013-01-31 02:11:00,
2013-01-30 20:12:00,5.4,-4.8,28.58,WNW,292,19.7,24.6,62,0.00,,---,0.00,VWS V14.01,2013-01-31 02:12:00,
2013-01-30 20:13:00,5.2,-5.0,28.58,NW,315,16.3,16.3,62,0.00,,---,0.00,VWS V14.01,2013-01-31 02:13:00,
2013-01-30 20:14:00,5.2,-5.0,28.58,WNW,292,13.0,16.3,62,0.00,,---,0.00,VWS V14.01,2013-01-31 02:14:00,
2013-01-30 20:15:00,5.2,-5.0,28.58,WNW,292,16.3,16.3,62,0.00,,---,0.00,VWS V14.01,2013-01-31 02:15:00,
2013-01-30 20:16:00,5.2,-5.0,28.58,NW,315,12.1,16.3,62,0.00,,---,0.00,VWS V14.01,2013-01-31 02:16:00,
2013-01-30 20:17:00,5.2,-5.0,28.58,WNW,292,15.4,15.4,62,0.00,,---,0.00,VWS V14.01,2013-01-31 02:17:00,
2013-01-30 20:18:00,5.2,-5.0,28.58,NW,315,12.8,13.2,62,0.00,,---,0.00,VWS V14.01,2013-01-31 02:18:00,
2013-01-30 20:19:00,5.2,-5.0,28.58,WNW,292,13.0,15.4,62,0.00,,---,0.00,VWS V14.01,2013-01-31 02:19:00,
2013-01-30 20:20:00,5.2,-5.0,28.58,NW,315,19.7,25.3,62,0.00,,---,0.00,VWS V14.01,2013-01-31 02:20:00,
2013-01-30 20:21:00,5.0,-5.2,28.58,WNW,292,14.1,19.7,62,0.00,,---,0.00,VWS V14.01,2013-01-31 02:21:00,
2013-01-30 20:22:00,5.0,-5.2,28.58,West,270,10.3,14.1,62,0.00,,---,0.00,VWS V14.01,2013-01-31 02:22:00,
2013-01-30 20:23:00,5.0,-5.2,28.58,WNW,292,13.6,13.6,62,0.00,,---,0.00,VWS V14.01,2013-01-31 02:23:00,
2013-01-30 20:24:00,5.0,-5.2,28.58,NW,315,14.1,17.5,62,0.00,,---,0.00,VWS V14.01,2013-01-31 02:24:00,
2013-01-30 20:25:00,5.0,-5.2,28.58,WNW,292,12.3,17.0,62,0.00,,---,0.00,VWS V14.01,2013-01-31 02:25:00,
2013-01-30 20:26:00,4.8,-5.3,28.58,NW,315,17.5,17.5,62,0.00,,---,0.00,VWS V14.01,2013-01-31 02:26:00,
2013-01-30 20:27:00,4.8,-5.3,28.58,NW,315,17.2,17.7,62,0.00,,---,0.00,VWS V14.01,2013-01-31 02:27:00,
2013-01-30 20:28:00,4.8,-5.3,28.58,NW,315,16.3,18.6,62,0.00,,---,0.00,VWS V14.01,2013-01-31 02:28:00,
2013-01-30 20:29:00,4.8,-5.3,28.58,WNW,292,12.8,19.9,62,0.00,,---,0.00,VWS V14.01,2013-01-31 02:29:00,
2013-01-30 20:30:00,4.6,-5.5,28.58,NW,315,13.2,17.7,62,0.00,,---,0.00,VWS V14.01,2013-01-31 02:30:00,
2013-01-30 20:31:00,4.6,-5.5,28.58,WNW,292,17.7,18.8,62,0.00,,---,0.00,VWS V14.01,2013-01-31 02:31:00,
2013-01-30 20:32:00,4.6,-5.5,28.58,NNW,338,13.2,17.7,62,0.00,,---,0.00,VWS V14.01,2013-01-31 02:32:00,
2013-01-30 20:33:00,4.6,-5.5,28.58,NW,315,15.4,15.4,62,0.00,,---,0.00,VWS V14.01,2013-01-31 02:33:00,
2013-01-30 20:34:00,4.6,-5.5,28.58,NW,315,17.5,25.3,62,0.00,,---,0.00,VWS V14.01,2013-01-31 02:34:00,
2013-01-30 20:35:00,4.6,-5.5,28.58,NNW,338,20.6,23.7,62,0.00,,---,0.00,VWS V14.01,2013-01-31 02:35:00,
2013-01-30 20:36:00,4.6,-5.5,28.58,NNW,338,14.3,20.6,62,0.00,,---,0.00,VWS V14.01,2013-01-31 02:36:00,
2013-01-30 20:37:00,4.6,-5.5,28.58,NW,315,19.9,19.9,62,0.00,,---,0.00,VWS V14.01,2013-01-31 02:37:00,
2013-01-30 20:38:00,4.5,-5.7,28.58,NW,315,17.0,17.0,62,0.00,,---,0.00,VWS V14.01,2013-01-31 02:38:00,
2013-01-30 20:39:00,4.5,-5.7,28.58,NNW,338,23.7,23.7,62,0.00,,---,0.00,VWS V14.01,2013-01-31 02:39:00,
2013-01-30 20:40:00,4.5,-5.7,28.58,NW,315,19.9,23.7,62,0.00,,---,0.00,VWS V14.01,2013-01-31 02:40:00,
2013-01-30 20:41:00,4.5,-5.7,28.58,WNW,292,15.9,19.9,62,0.00,,---,0.00,VWS V14.01,2013-01-31 02:41:00,
2013-01-30 20:42:00,4.5,-5.7,28.58,WNW,292,17.7,17.7,62,0.00,,---,0.00,VWS V14.01,2013-01-31 02:42:00,
2013-01-30 20:43:00,4.1,-6.0,28.58,WNW,292,17.2,17.2,62,0.00,,---,0.00,VWS V14.01,2013-01-31 02:43:00,
2013-01-30 20:44:00,4.1,-6.0,28.58,WNW,292,17.2,17.2,62,0.00,,---,0.00,VWS V14.01,2013-01-31 02:44:00,
2013-01-30 20:45:00,3.9,-6.2,28.58,WNW,292,17.5,21.9,62,0.00,,---,0.00,VWS V14.01,2013-01-31 02:45:00,
2013-01-30 20:46:00,3.9,-6.2,28.58,NW,315,11.0,17.5,62,0.00,,---,0.00,VWS V14.01,2013-01-31 02:46:00,
2013-01-30 20:47:00,3.7,-6.4,28.61,NNW,338,12.3,18.1,62,0.00,,---,0.00,VWS V14.01,2013-01-31 02:47:00,
2013-01-30 20:48:00,3.7,-6.4,28.61,NW,315,15.2,17.5,62,0.00,,---,0.00,VWS V14.01,2013-01-31 02:48:00,
2013-01-30 20:49:00,3.7,-6.4,28.61,NW,315,16.1,22.4,62,0.00,,---,0.00,VWS V14.01,2013-01-31 02:49:00,
2013-01-30 20:50:00,3.7,-6.4,28.61,NW,315,19.7,19.7,62,0.00,,---,0.00,VWS V14.01,2013-01-31 02:50:00,
2013-01-30 20:51:00,3.7,-6.4,28.61,WNW,292,17.5,19.7,62,0.00,,---,0.00,VWS V14.01,2013-01-31 02:51:00,
2013-01-30 20:52:00,3.7,-6.4,28.61,NNW,338,15.2,20.4,62,0.00,,---,0.00,VWS V14.01,2013-01-31 02:52:00,
2013-01-30 20:53:00,3.7,-6.4,28.61,NW,315,17.7,17.7,62,0.00,,---,0.00,VWS V14.01,2013-01-31 02:53:00,
2013-01-30 20:54:00,3.7,-6.4,28.61,NW,315,13.0,17.7,62,0.00,,---,0.00,VWS V14.01,2013-01-31 02:54:00,
2013-01-30 20:55:00,3.6,-6.5,28.61,WNW,292,17.9,17.9,62,0.00,,---,0.00,VWS V14.01,2013-01-31 02:55:00,
2013-01-30 20:56:00,3.6,-6.5,28.61,NNW,338,10.3,17.9,62,0.00,,---,0.00,VWS V14.01,2013-01-31 02:56:00,
2013-01-30 20:57:00,3.6,-6.5,28.61,NNW,338,15.4,15.4,62,0.00,,---,0.00,VWS V14.01,2013-01-31 02:57:00,
2013-01-30 20:58:00,3.6,-6.5,28.61,WNW,292,8.7,12.5,62,0.00,,---,0.00,VWS V14.01,2013-01-31 02:58:00,
2013-01-30 20:59:00,3.6,-6.5,28.61,NNW,338,12.5,12.8,62,0.00,,---,0.00,VWS V14.01,2013-01-31 02:59:00,
2013-01-30 21:00:00,3.6,-6.5,28.61,WNW,292,12.1,12.5,62,0.00,,---,0.00,VWS V14.01,2013-01-31 03:00:00,
2013-01-30 21:01:00,3.6,-6.5,28.61,WNW,292,17.2,23.3,62,0.00,,---,0.00,VWS V14.01,2013-01-31 03:01:00,
2013-01-30 21:02:00,3.6,-6.5,28.61,WNW,292,15.4,20.4,62,0.00,,---,0.00,VWS V14.01,2013-01-31 03:02:00,
2013-01-30 21:03:00,3.4,-6.7,28.61,NNW,338,14.3,16.1,62,0.00,,---,0.00,VWS V14.01,2013-01-31 03:03:00,
2013-01-30 21:04:00,3.4,-6.7,28.61,NNW,338,14.3,16.1,62,0.00,,---,0.00,VWS V14.01,2013-01-31 03:04:00,
2013-01-30 21:05:00,3.4,-6.7,28.61,NW,315,18.6,19.2,62,0.00,,---,0.00,VWS V14.01,2013-01-31 03:05:00,
2013-01-30 21:06:00,3.4,-6.7,28.61,NNW,338,12.5,18.6,62,0.00,,---,0.00,VWS V14.01,2013-01-31 03:06:00,
2013-01-30 21:07:00,3.2,-6.9,28.61,NW,315,16.3,16.3,62,0.00,,---,0.00,VWS V14.01,2013-01-31 03:07:00,
2013-01-30 21:08:00,3.2,-6.9,28.61,NW,315,13.0,14.5,62,0.00,,---,0.00,VWS V14.01,2013-01-31 03:08:00,
2013-01-30 21:09:00,3.2,-6.9,28.61,NW,315,12.3,14.5,62,0.00,,---,0.00,VWS V14.01,2013-01-31 03:09:00,
2013-01-30 21:10:00,3.2,-6.9,28.61,WNW,292,17.7,17.7,62,0.00,,---,0.00,VWS V14.01,2013-01-31 03:10:00,
2013-01-30 21:11:00,3.2,-6.9,28.61,WNW,292,17.7,17.7,62,0.00,,---,0.00,VWS V14.01,2013-01-31 03:11:00,
2013-01-30 21:12:00,3.2,-6.9,28.61,NW,315,19.9,23.7,62,0.00,,---,0.00,VWS V14.01,2013-01-31 03:12:00,
2013-01-30 21:13:00,3.2,-6.9,28.61,NW,315,12.3,22.2,62,0.00,,---,0.00,VWS V14.01,2013-01-31 03:13:00,
2013-01-30 21:14:00,3.2,-6.9,28.61,NW,315,12.3,22.2,62,0.00,,---,0.00,VWS V14.01,2013-01-31 03:14:00,
2013-01-30 21:15:00,3.2,-6.9,28.61,NW,315,9.8,12.8,62,0.00,,---,0.00,VWS V14.01,2013-01-31 03:15:00,
2013-01-30 21:16:00,3.2,-6.9,28.61,NW,315,19.9,19.9,62,0.00,,---,0.00,VWS V14.01,2013-01-31 03:16:00,
2013-01-30 21:17:00,3.2,-6.9,28.61,NW,315,18.1,23.5,62,0.00,,---,0.00,VWS V14.01,2013-01-31 03:17:00,
2013-01-30 21:18:00,3.2,-6.9,28.58,WNW,292,17.7,18.1,62,0.00,,---,0.00,VWS V14.01,2013-01-31 03:18:00,
2013-01-30 21:19:00,3.2,-6.9,28.58,NNW,338,19.2,19.2,62,0.00,,---,0.00,VWS V14.01,2013-01-31 03:19:00,
2013-01-30 21:20:00,3.2,-6.9,28.58,WNW,292,15.2,19.2,62,0.00,,---,0.00,VWS V14.01,2013-01-31 03:20:00,
2013-01-30 21:21:00,3.2,-6.9,28.58,NNW,338,19.2,19.2,62,0.00,,---,0.00,VWS V14.01,2013-01-31 03:21:00,
2013-01-30 21:22:00,3.2,-6.9,28.58,NNW,338,13.0,19.2,62,0.00,,---,0.00,VWS V14.01,2013-01-31 03:22:00,
2013-01-30 21:23:00,3.2,-6.9,28.58,NW,315,15.2,15.2,62,0.00,,---,0.00,VWS V14.01,2013-01-31 03:23:00,
2013-01-30 21:24:00,3.2,-6.9,28.58,NW,315,10.7,15.2,62,0.00,,---,0.00,VWS V14.01,2013-01-31 03:24:00,
2013-01-30 21:25:00,3.2,-6.9,28.58,NW,315,14.5,14.5,62,0.00,,---,0.00,VWS V14.01,2013-01-31 03:25:00,
2013-01-30 21:26:00,3.2,-6.9,28.58,NW,315,10.1,14.5,62,0.00,,---,0.00,VWS V14.01,2013-01-31 03:26:00,
2013-01-30 21:27:00,3.2,-6.9,28.58,NW,315,10.1,10.1,62,0.00,,---,0.00,VWS V14.01,2013-01-31 03:27:00,
2013-01-30 21:28:00,3.0,-7.0,28.58,WNW,292,14.8,14.8,62,0.00,,---,0.00,VWS V14.01,2013-01-31 03:28:00,
2013-01-30 21:29:00,3.0,-7.0,28.58,NW,315,14.3,14.8,62,0.00,,---,0.00,VWS V14.01,2013-01-31 03:29:00,
2013-01-30 21:30:00,3.0,-7.0,28.58,WNW,292,14.8,14.8,62,0.00,,---,0.00,VWS V14.01,2013-01-31 03:30:00,
2013-01-30 21:32:00,3.0,-7.0,28.58,WNW,292,13.2,15.2,62,0.00,,---,0.00,VWS V14.01,2013-01-31 03:32:00,
2013-01-30 21:33:00,2.8,-7.2,28.61,NNW,338,10.1,14.3,62,0.00,,---,0.00,VWS V14.01,2013-01-31 03:33:00,
2013-01-30 21:34:00,2.8,-7.2,28.61,NW,315,18.1,18.1,62,0.00,,---,0.00,VWS V14.01,2013-01-31 03:34:00,
2013-01-30 21:35:00,2.8,-7.2,28.61,WNW,292,13.9,18.1,62,0.00,,---,0.00,VWS V14.01,2013-01-31 03:35:00,
2013-01-30 21:36:00,2.8,-7.2,28.61,WNW,292,16.1,21.9,62,0.00,,---,0.00,VWS V14.01,2013-01-31 03:36:00,
2013-01-30 21:37:00,2.8,-7.2,28.61,West,270,17.7,24.2,62,0.00,,---,0.00,VWS V14.01,2013-01-31 03:37:00,
2013-01-30 21:38:00,2.8,-7.2,28.61,NNW,338,13.9,17.7,62,0.00,,---,0.00,VWS V14.01,2013-01-31 03:38:00,
2013-01-30 21:39:00,2.8,-7.2,28.61,NNW,338,20.8,20.8,62,0.00,,---,0.00,VWS V14.01,2013-01-31 03:39:00,
2013-01-30 21:40:00,2.8,-7.2,28.61,NW,315,17.9,20.8,62,0.00,,---,0.00,VWS V14.01,2013-01-31 03:40:00,
2013-01-30 21:41:00,2.7,-7.4,28.61,NW,315,13.4,20.6,62,0.00,,---,0.00,VWS V14.01,2013-01-31 03:41:00,
2013-01-30 21:42:00,2.7,-7.4,28.61,NW,315,13.2,19.2,62,0.00,,---,0.00,VWS V14.01,2013-01-31 03:42:00,
2013-01-30 21:43:00,2.7,-7.4,28.61,NW,315,15.7,17.2,62,0.00,,---,0.00,VWS V14.01,2013-01-31 03:43:00,
2013-01-30 21:44:00,2.7,-7.4,28.61,NW,315,12.8,17.2,62,0.00,,---,0.00,VWS V14.01,2013-01-31 03:44:00,
2013-01-30 21:45:00,2.5,-7.6,28.61,WNW,292,16.6,16.8,62,0.00,,---,0.00,VWS V14.01,2013-01-31 03:45:00,
2013-01-30 21:46:00,2.5,-7.6,28.61,WNW,292,15.2,18.6,62,0.00,,---,0.00,VWS V14.01,2013-01-31 03:46:00,
2013-01-30 21:47:00,2.5,-7.6,28.61,NW,315,12.1,15.2,62,0.00,,---,0.00,VWS V14.01,2013-01-31 03:47:00,
2013-01-30 21:48:00,2.5,-7.6,28.61,WNW,292,11.9,17.0,62,0.00,,---,0.00,VWS V14.01,2013-01-31 03:48:00,
2013-01-30 21:49:00,2.5,-7.6,28.61,NW,315,7.8,17.0,62,0.00,,---,0.00,VWS V14.01,2013-01-31 03:49:00,
2013-01-30 21:50:00,2.5,-7.6,28.61,NW,315,15.4,15.4,62,0.00,,---,0.00,VWS V14.01,2013-01-31 03:50:00,
2013-01-30 21:51:00,2.3,-7.7,28.61,NW,315,9.4,15.4,62,0.00,,---,0.00,VWS V14.01,2013-01-31 03:51:00,
2013-01-30 21:52:00,2.3,-7.7,28.61,NW,315,14.1,14.1,62,0.00,,---,0.00,VWS V14.01,2013-01-31 03:52:00,
2013-01-30 21:53:00,2.3,-7.7,28.61,WNW,292,18.8,18.8,62,0.00,,---,0.00,VWS V14.01,2013-01-31 03:53:00,
2013-01-30 21:54:00,2.3,-7.7,28.61,NW,315,15.7,18.8,62,0.00,,---,0.00,VWS V14.01,2013-01-31 03:54:00,
2013-01-30 21:55:00,2.3,-7.7,28.61,NW,315,15.4,20.8,62,0.00,,---,0.00,VWS V14.01,2013-01-31 03:55:00,
2013-01-30 21:56:00,2.3,-7.7,28.61,NW,315,16.6,17.2,62,0.00,,---,0.00,VWS V14.01,2013-01-31 03:56:00,
2013-01-30 21:57:00,2.1,-7.9,28.61,NNW,338,15.7,17.9,62,0.00,,---,0.00,VWS V14.01,2013-01-31 03:57:00,
2013-01-30 21:58:00,2.1,-7.9,28.61,WNW,292,15.9,15.9,62,0.00,,---,0.00,VWS V14.01,2013-01-31 03:58:00,
2013-01-30 21:59:00,2.1,-7.9,28.61,NW,315,21.5,21.5,62,0.00,,---,0.00,VWS V14.01,2013-01-31 03:59:00,
2013-01-30 22:00:00,2.1,-7.9,28.61,WNW,292,17.5,26.2,62,0.00,,---,0.00,VWS V14.01,2013-01-31 04:00:00,
2013-01-30 22:01:00,2.1,-7.9,28.61,NW,315,17.5,22.8,62,0.00,,---,0.00,VWS V14.01,2013-01-31 04:01:00,
2013-01-30 22:02:00,2.1,-7.9,28.61,NNW,338,15.2,17.5,62,0.00,,---,0.00,VWS V14.01,2013-01-31 04:02:00,
2013-01-30 22:03:00,2.1,-7.9,28.61,NW,315,11.0,15.2,62,0.00,,---,0.00,VWS V14.01,2013-01-31 04:03:00,
2013-01-30 22:04:00,2.1,-7.9,28.61,WNW,292,12.3,15.2,62,0.00,,---,0.00,VWS V14.01,2013-01-31 04:04:00,
2013-01-30 22:06:00,2.1,-7.9,28.61,NNW,338,11.0,14.1,62,0.00,,---,0.00,VWS V14.01,2013-01-31 04:06:00,
2013-01-30 22:07:00,2.1,-7.9,28.61,WNW,292,19.9,19.9,62,0.00,,---,0.00,VWS V14.01,2013-01-31 04:07:00,
2013-01-30 22:08:00,2.1,-7.9,28.61,NW,315,20.6,20.6,62,0.00,,---,0.00,VWS V14.01,2013-01-31 04:08:00,
2013-01-30 22:09:00,2.1,-7.9,28.61,NW,315,13.0,20.6,62,0.00,,---,0.00,VWS V14.01,2013-01-31 04:09:00,
2013-01-30 22:10:00,2.1,-7.9,28.61,WNW,292,13.0,13.9,62,0.00,,---,0.00,VWS V14.01,2013-01-31 04:10:00,
2013-01-30 22:11:00,2.1,-7.9,28.61,NW,315,14.3,16.3,62,0.00,,---,0.00,VWS V14.01,2013-01-31 04:11:00,
2013-01-30 22:12:00,2.1,-7.9,28.61,NW,315,17.7,17.7,62,0.00,,---,0.00,VWS V14.01,2013-01-31 04:12:00,
2013-01-30 22:13:00,2.1,-7.9,28.61,NW,315,19.2,19.2,62,0.00,,---,0.00,VWS V14.01,2013-01-31 04:13:00,
2013-01-30 22:14:00,2.1,-7.9,28.61,NW,315,14.8,19.2,62,0.00,,---,0.00,VWS V14.01,2013-01-31 04:14:00,
2013-01-30 22:15:00,2.1,-7.9,28.61,NNW,338,21.3,21.3,62,0.00,,---,0.00,VWS V14.01,2013-01-31 04:15:00,
2013-01-30 22:16:00,2.1,-7.9,28.61,NNW,338,19.9,21.3,62,0.00,,---,0.00,VWS V14.01,2013-01-31 04:16:00,
2013-01-30 22:17:00,2.1,-7.9,28.61,WNW,292,22.8,22.8,62,0.00,,---,0.00,VWS V14.01,2013-01-31 04:17:00,
2013-01-30 22:18:00,1.9,-8.1,28.61,NNW,338,19.5,19.5,62,0.00,,---,0.00,VWS V14.01,2013-01-31 04:18:00,
2013-01-30 22:19:00,1.9,-8.1,28.61,NW,315,19.0,19.5,62,0.00,,---,0.00,VWS V14.01,2013-01-31 04:19:00,
2013-01-30 22:20:00,1.9,-8.1,28.61,NNW,338,15.4,20.8,62,0.00,,---,0.00,VWS V14.01,2013-01-31 04:20:00,
2013-01-30 22:21:00,1.9,-8.1,28.61,WNW,292,16.6,19.7,62,0.00,,---,0.00,VWS V14.01,2013-01-31 04:21:00,
2013-01-30 22:22:00,1.9,-8.1,28.61,NW,315,15.2,16.6,62,0.00,,---,0.00,VWS V14.01,2013-01-31 04:22:00,
2013-01-30 22:23:00,1.9,-8.1,28.61,WNW,292,16.1,19.9,62,0.00,,---,0.00,VWS V14.01,2013-01-31 04:23:00,
2013-01-30 22:24:00,1.9,-8.1,28.61,NNW,338,15.4,19.9,62,0.00,,---,0.00,VWS V14.01,2013-01-31 04:24:00,
2013-01-30 22:25:00,1.9,-8.1,28.61,NW,315,22.6,22.6,62,0.00,,---,0.00,VWS V14.01,2013-01-31 04:25:00,
2013-01-30 22:26:00,1.9,-8.1,28.61,NW,315,17.5,22.6,62,0.00,,---,0.00,VWS V14.01,2013-01-31 04:26:00,
2013-01-30 22:27:00,1.9,-8.1,28.61,WNW,292,23.5,23.5,62,0.00,,---,0.00,VWS V14.01,2013-01-31 04:27:00,
2013-01-30 22:28:00,1.9,-8.1,28.61,WNW,292,13.0,15.4,62,0.00,,---,0.00,VWS V14.01,2013-01-31 04:28:00,
2013-01-30 22:29:00,1.9,-8.1,28.61,WNW,292,13.0,15.4,62,0.00,,---,0.00,VWS V14.01,2013-01-31 04:29:00,
2013-01-30 22:30:00,1.9,-8.1,28.61,NW,315,20.1,20.1,62,0.00,,---,0.00,VWS V14.01,2013-01-31 04:30:00,
2013-01-30 22:31:00,1.9,-8.1,28.61,NNW,338,15.2,20.1,62,0.00,,---,0.00,VWS V14.01,2013-01-31 04:31:00,
2013-01-30 22:32:00,1.9,-8.1,28.61,WNW,292,21.5,21.5,62,0.00,,---,0.00,VWS V14.01,2013-01-31 04:32:00,
2013-01-30 22:33:00,1.9,-8.1,28.61,NW,315,20.8,21.5,62,0.00,,---,0.00,VWS V14.01,2013-01-31 04:33:00,
2013-01-30 22:34:00,1.9,-8.1,28.61,NNW,338,21.9,23.3,62,0.00,,---,0.00,VWS V14.01,2013-01-31 04:34:00,
2013-01-30 22:35:00,1.9,-8.1,28.61,NNW,338,16.8,17.2,62,0.00,,---,0.00,VWS V14.01,2013-01-31 04:35:00,
2013-01-30 22:36:00,1.9,-8.1,28.61,WNW,292,16.8,19.9,62,0.00,,---,0.00,VWS V14.01,2013-01-31 04:36:00,
2013-01-30 22:37:00,1.9,-8.1,28.61,NW,315,19.5,23.0,62,0.00,,---,0.00,VWS V14.01,2013-01-31 04:37:00,
2013-01-30 22:38:00,1.9,-8.1,28.61,NW,315,13.9,19.5,62,0.00,,---,0.00,VWS V14.01,2013-01-31 04:38:00,
2013-01-30 22:39:00,1.9,-8.1,28.61,WNW,292,14.3,14.3,62,0.00,,---,0.00,VWS V14.01,2013-01-31 04:39:00,
2013-01-30 22:40:00,1.9,-8.1,28.61,NNW,338,21.5,26.2,62,0.00,,---,0.00,VWS V14.01,2013-01-31 04:40:00,
2013-01-30 22:41:00,1.9,-8.1,28.61,WNW,292,15.2,21.5,62,0.00,,---,0.00,VWS V14.01,2013-01-31 04:41:00,
2013-01-30 22:42:00,1.9,-8.1,28.61,WNW,292,15.2,15.2,62,0.00,,---,0.00,VWS V14.01,2013-01-31 04:42:00,
2013-01-30 22:43:00,1.9,-8.1,28.61,NW,315,17.2,17.2,62,0.00,,---,0.00,VWS V14.01,2013-01-31 04:43:00,
2013-01-30 22:44:00,1.8,-8.2,28.61,WNW,292,12.5,17.2,62,0.00,,---,0.00,VWS V14.01,2013-01-31 04:44:00,
2013-01-30 22:45:00,1.8,-8.2,28.61,NNW,338,12.5,18.1,62,0.00,,---,0.00,VWS V14.01,2013-01-31 04:45:00,
2013-01-30 22:46:00,1.8,-8.2,28.61,NNW,338,17.7,17.7,62,0.00,,---,0.00,VWS V14.01,2013-01-31 04:46:00,
2013-01-30 22:47:00,1.8,-8.2,28.61,NNW,338,11.2,17.7,62,0.00,,---,0.00,VWS V14.01,2013-01-31 04:47:00,
2013-01-30 22:48:00,1.6,-8.4,28.61,NNW,338,9.4,18.8,62,0.00,,---,0.00,VWS V14.01,2013-01-31 04:48:00,
2013-01-30 22:49:00,1.6,-8.4,28.61,WNW,292,17.5,17.5,62,0.00,,---,0.00,VWS V14.01,2013-01-31 04:49:00,
2013-01-30 22:50:00,1.6,-8.4,28.61,NW,315,12.5,19.7,62,0.00,,---,0.00,VWS V14.01,2013-01-31 04:50:00,
2013-01-30 22:51:00,1.6,-8.4,28.61,NNW,338,10.3,15.2,62,0.00,,---,0.00,VWS V14.01,2013-01-31 04:51:00,
2013-01-30 22:52:00,1.6,-8.4,28.61,NW,315,12.8,14.8,62,0.00,,---,0.00,VWS V14.01,2013-01-31 04:52:00,
2013-01-30 22:53:00,1.6,-8.4,28.61,NW,315,10.5,15.4,62,0.00,,---,0.00,VWS V14.01,2013-01-31 04:53:00,
2013-01-30 22:54:00,1.6,-8.4,28.61,WNW,292,13.0,13.0,62,0.00,,---,0.00,VWS V14.01,2013-01-31 04:54:00,
2013-01-30 22:55:00,1.6,-8.4,28.61,WNW,292,13.6,16.6,62,0.00,,---,0.00,VWS V14.01,2013-01-31 04:55:00,
2013-01-30 22:56:00,1.6,-8.4,28.61,WNW,292,13.6,13.6,62,0.00,,---,0.00,VWS V14.01,2013-01-31 04:56:00,
2013-01-30 22:57:00,1.6,-8.4,28.61,NW,315,10.5,13.6,62,0.00,,---,0.00,VWS V14.01,2013-01-31 04:57:00,
2013-01-30 22:58:00,1.6,-8.4,28.61,NW,315,10.5,10.5,62,0.00,,---,0.00,VWS V14.01,2013-01-31 04:58:00,
2013-01-30 22:59:00,1.6,-8.4,28.61,NW,315,19.2,19.2,62,0.00,,---,0.00,VWS V14.01,2013-01-31 04:59:00,
2013-01-30 23:00:00,1.4,-8.6,28.61,NW,315,19.5,19.5,62,0.00,,---,0.00,VWS V14.01,2013-01-31 05:00:00,
2013-01-30 23:01:00,1.4,-8.6,28.61,WNW,292,13.2,19.2,62,0.00,,---,0.00,VWS V14.01,2013-01-31 05:01:00,
2013-01-30 23:02:00,1.4,-8.6,28.61,WNW,292,10.7,12.3,62,0.00,,---,0.00,VWS V14.01,2013-01-31 05:02:00,
2013-01-30 23:03:00,1.2,-8.8,28.61,WNW,292,12.5,12.5,62,0.00,,---,0.00,VWS V14.01,2013-01-31 05:03:00,
2013-01-30 23:04:00,1.2,-8.8,28.61,NNW,338,15.4,18.1,62,0.00,,---,0.00,VWS V14.01,2013-01-31 05:04:00,
2013-01-30 23:05:00,1.2,-8.8,28.61,NW,315,19.5,24.6,62,0.00,,---,0.00,VWS V14.01,2013-01-31 05:05:00,
2013-01-30 23:06:00,1.2,-8.8,28.61,WNW,292,17.5,23.3,62,0.00,,---,0.00,VWS V14.01,2013-01-31 05:06:00,
2013-01-30 23:07:00,1.2,-8.8,28.61,NW,315,16.1,21.5,62,0.00,,---,0.00,VWS V14.01,2013-01-31 05:07:00,
2013-01-30 23:08:00,1.2,-8.8,28.61,NW,315,16.1,16.1,62,0.00,,---,0.00,VWS V14.01,2013-01-31 05:08:00,
2013-01-30 23:09:00,1.2,-8.8,28.61,NW,315,23.3,23.3,62,0.00,,---,0.00,VWS V14.01,2013-01-31 05:09:00,
2013-01-30 23:10:00,1.2,-8.8,28.61,NNW,338,13.2,23.3,62,0.00,,---,0.00,VWS V14.01,2013-01-31 05:10:00,
2013-01-30 23:11:00,1.2,-8.8,28.61,WNW,292,15.2,17.2,62,0.00,,---,0.00,VWS V14.01,2013-01-31 05:11:00,
2013-01-30 23:12:00,1.2,-8.8,28.61,WNW,292,13.6,18.1,62,0.00,,---,0.00,VWS V14.01,2013-01-31 05:12:00,
2013-01-30 23:13:00,1.2,-8.8,28.61,NW,315,16.3,16.3,62,0.00,,---,0.00,VWS V14.01,2013-01-31 05:13:00,
2013-01-30 23:14:00,1.2,-8.8,28.61,NW,315,15.4,16.3,62,0.00,,---,0.00,VWS V14.01,2013-01-31 05:14:00,
2013-01-30 23:15:00,1.2,-8.8,28.61,NW,315,12.8,15.4,62,0.00,,---,0.00,VWS V14.01,2013-01-31 05:15:00,
2013-01-30 23:16:00,1.2,-8.8,28.61,WNW,292,15.9,15.9,62,0.00,,---,0.00,VWS V14.01,2013-01-31 05:16:00,
2013-01-30 23:17:00,1.0,-8.9,28.61,NW,315,13.2,15.9,62,0.00,,---,0.00,VWS V14.01,2013-01-31 05:17:00,
2013-01-30 23:18:00,1.0,-8.9,28.61,WNW,292,13.0,13.2,62,0.00,,---,0.00,VWS V14.01,2013-01-31 05:18:00,
2013-01-30 23:19:00,1.0,-8.9,28.61,NNW,338,12.1,13.0,62,0.00,,---,0.00,VWS V14.01,2013-01-31 05:19:00,
2013-01-30 23:20:00,1.0,-8.9,28.61,NNW,338,14.8,17.0,62,0.00,,---,0.00,VWS V14.01,2013-01-31 05:20:00,
2013-01-30 23:21:00,1.0,-8.9,28.61,NW,315,17.7,17.7,62,0.00,,---,0.00,VWS V14.01,2013-01-31 05:21:00,
2013-01-30 23:22:00,1.0,-8.9,28.61,WNW,292,11.9,19.7,62,0.00,,---,0.00,VWS V14.01,2013-01-31 05:22:00,
2013-01-30 23:23:00,1.0,-8.9,28.61,NW,315,17.5,17.5,62,0.00,,---,0.00,VWS V14.01,2013-01-31 05:23:00,
2013-01-30 23:24:00,1.0,-8.9,28.61,NNW,338,7.2,17.5,62,0.00,,---,0.00,VWS V14.01,2013-01-31 05:24:00,
2013-01-30 23:25:00,1.0,-8.9,28.61,NW,315,12.5,12.5,62,0.00,,---,0.00,VWS V14.01,2013-01-31 05:25:00,
2013-01-30 23:26:00,0.9,-9.1,28.61,WNW,292,11.0,12.5,62,0.00,,---,0.00,VWS V14.01,2013-01-31 05:26:00,
2013-01-30 23:27:00,0.9,-9.1,28.61,WNW,292,10.3,14.8,62,0.00,,---,0.00,VWS V14.01,2013-01-31 05:27:00,
2013-01-30 23:28:00,0.9,-9.1,28.61,WNW,292,13.0,13.0,62,0.00,,---,0.00,VWS V14.01,2013-01-31 05:28:00,
2013-01-30 23:29:00,0.7,-9.3,28.61,NNW,338,12.8,13.0,62,0.00,,---,0.00,VWS V14.01,2013-01-31 05:29:00,
2013-01-30 23:30:00,0.9,-9.1,28.61,NW,315,14.5,14.5,62,0.00,,---,0.00,VWS V14.01,2013-01-31 05:30:00,
2013-01-30 23:31:00,0.9,-9.1,28.61,North,0,12.1,14.5,62,0.00,,---,0.00,VWS V14.01,2013-01-31 05:31:00,
2013-01-30 23:32:00,0.9,-9.1,28.58,WNW,292,10.5,13.4,62,0.00,,---,0.00,VWS V14.01,2013-01-31 05:32:00,
2013-01-30 23:33:00,0.7,-9.3,28.58,WNW,292,11.0,11.0,62,0.00,,---,0.00,VWS V14.01,2013-01-31 05:33:00,
2013-01-30 23:34:00,0.7,-9.3,28.58,NW,315,13.2,13.2,62,0.00,,---,0.00,VWS V14.01,2013-01-31 05:34:00,
2013-01-30 23:35:00,0.7,-9.3,28.58,WNW,292,12.3,13.2,62,0.00,,---,0.00,VWS V14.01,2013-01-31 05:35:00,
2013-01-30 23:36:00,0.7,-9.3,28.58,WNW,292,12.3,17.5,62,0.00,,---,0.00,VWS V14.01,2013-01-31 05:36:00,
2013-01-30 23:37:00,0.7,-9.3,28.58,WNW,292,15.4,15.4,62,0.00,,---,0.00,VWS V14.01,2013-01-31 05:37:00,
2013-01-30 23:38:00,0.7,-9.3,28.58,WNW,292,13.2,14.5,62,0.00,,---,0.00,VWS V14.01,2013-01-31 05:38:00,
2013-01-30 23:39:00,0.5,-9.4,28.58,WNW,292,10.5,15.7,62,0.00,,---,0.00,VWS V14.01,2013-01-31 05:39:00,
2013-01-30 23:40:00,0.5,-9.4,28.58,NW,315,13.0,13.0,62,0.00,,---,0.00,VWS V14.01,2013-01-31 05:40:00,
2013-01-30 23:41:00,0.5,-9.4,28.58,NNW,338,14.8,14.8,62,0.00,,---,0.00,VWS V14.01,2013-01-31 05:41:00,
2013-01-30 23:42:00,0.3,-9.6,28.58,WNW,292,10.3,18.1,62,0.00,,---,0.00,VWS V14.01,2013-01-31 05:42:00,
2013-01-30 23:43:00,0.3,-9.6,28.58,NW,315,18.1,18.1,62,0.00,,---,0.00,VWS V14.01,2013-01-31 05:43:00,
2013-01-30 23:44:00,0.3,-9.6,28.58,NW,315,22.4,22.4,62,0.00,,---,0.00,VWS V14.01,2013-01-31 05:44:00,
2013-01-30 23:45:00,0.3,-9.6,28.58,NNW,338,23.9,23.9,62,0.00,,---,0.00,VWS V14.01,2013-01-31 05:45:00,
2013-01-30 23:46:00,0.3,-9.6,28.58,NNW,338,13.2,23.9,62,0.00,,---,0.00,VWS V14.01,2013-01-31 05:46:00,
2013-01-30 23:47:00,0.3,-9.6,28.61,WNW,292,17.5,19.7,62,0.00,,---,0.00,VWS V14.01,2013-01-31 05:47:00,
2013-01-30 23:48:00,0.3,-9.6,28.61,NNW,338,17.2,23.7,62,0.00,,---,0.00,VWS V14.01,2013-01-31 05:48:00,
2013-01-30 23:49:00,0.3,-9.6,28.61,NW,315,12.8,23.7,62,0.00,,---,0.00,VWS V14.01,2013-01-31 05:49:00,
2013-01-30 23:50:00,0.0,-9.9,28.61,NNW,338,7.6,12.8,62,0.00,,---,0.00,VWS V14.01,2013-01-31 05:50:00,
2013-01-30 23:51:00,0.0,-9.9,28.61,WNW,292,10.7,15.2,62,0.00,,---,0.00,VWS V14.01,2013-01-31 05:51:00,
2013-01-30 23:52:00,0.0,-9.9,28.61,NW,315,18.1,18.1,62,0.00,,---,0.00,VWS V14.01,2013-01-31 05:52:00,
2013-01-30 23:53:00,-0.2,-10.1,28.61,NW,315,18.1,18.1,62,0.00,,---,0.00,VWS V14.01,2013-01-31 05:53:00,
2013-01-30 23:54:00,-0.2,-10.1,28.61,NW,315,12.8,18.1,62,0.00,,---,0.00,VWS V14.01,2013-01-31 05:54:00,
2013-01-30 23:55:00,-0.2,-10.1,28.61,WNW,292,12.8,13.6,62,0.00,,---,0.00,VWS V14.01,2013-01-31 05:55:00,
2013-01-30 23:56:00,-0.2,-10.1,28.61,WNW,292,15.2,15.2,62,0.00,,---,0.00,VWS V14.01,2013-01-31 05:56:00,
2013-01-30 23:57:00,-0.2,-10.1,28.61,NW,315,18.1,19.2,62,0.00,,---,0.00,VWS V14.01,2013-01-31 05:57:00,
2013-01-30 23:58:00,-0.2,-10.1,28.61,NNW,338,19.0,19.0,62,0.00,,---,0.00,VWS V14.01,2013-01-31 05:58:00,
2013-01-30 23:59:00,-0.2,-10.1,28.61,NW,315,12.8,19.0,62,0.00,,---,0.00,VWS V14.01,2013-01-31 05:59:00,